<?xml version="1.0" encoding="UTF-8" standalone="no" ?>
<gpx xmlns="http://www.topografix.com/GPX/1/1" xmlns:xsi="http://www.w3.org/2001/XMLSchema-instance" xsi:schemaLocation="http://www.topografix.com/GPX/1/1 http://www.topografix.com/GPX/1/1/gpx.xsd" version="1.1" creator="VisuGPX - https://www.visugpx.com">
  <metadata>
    <name>Rando au pays de Roseland</name>
    <desc><![CDATA[Départ du barrage de Roseland , prendre la route direction col du Pré, puis au col prendre à gauche le sentier botanique. Descendre jusqu\'au lac St Geuérin puis remonter plein sud vers le col du couvercle à 2300 m. redescendre par les crêtes au col du Pré]]></desc>
  </metadata>
  <trk>
    <name><![CDATA[2012-06-16 07:23:00 Chronomètre-Erweitert]]></name>
    <trkseg>
      <trkpt lat="45.68075" lon="6.61529">
        <ele>1570.93</ele>
        <time>2012-06-16T05:23:00Z</time>
      </trkpt>
      <trkpt lat="45.68068" lon="6.61525">
        <ele>1571.41</ele>
        <time>2012-06-16T05:23:05Z</time>
      </trkpt>
      <trkpt lat="45.6806" lon="6.61526">
        <ele>1571.41</ele>
        <time>2012-06-16T05:23:11Z</time>
      </trkpt>
      <trkpt lat="45.68058" lon="6.61522">
        <ele>1571.41</ele>
        <time>2012-06-16T05:23:14Z</time>
      </trkpt>
      <trkpt lat="45.68055" lon="6.61509">
        <ele>1571.89</ele>
        <time>2012-06-16T05:23:21Z</time>
      </trkpt>
      <trkpt lat="45.68061" lon="6.61506">
        <ele>1572.85</ele>
        <time>2012-06-16T05:23:27Z</time>
      </trkpt>
      <trkpt lat="45.6807" lon="6.61508">
        <ele>1573.33</ele>
        <time>2012-06-16T05:23:35Z</time>
      </trkpt>
      <trkpt lat="45.6809" lon="6.61514">
        <ele>1575.26</ele>
        <time>2012-06-16T05:23:49Z</time>
      </trkpt>
      <trkpt lat="45.68095" lon="6.61516">
        <ele>1576.22</ele>
        <time>2012-06-16T05:24:03Z</time>
      </trkpt>
      <trkpt lat="45.68095" lon="6.61516">
        <ele>1576.7</ele>
        <time>2012-06-16T05:24:28Z</time>
      </trkpt>
      <trkpt lat="45.68113" lon="6.61518">
        <ele>1577.18</ele>
        <time>2012-06-16T05:24:42Z</time>
      </trkpt>
      <trkpt lat="45.68138" lon="6.61522">
        <ele>1578.62</ele>
        <time>2012-06-16T05:24:56Z</time>
      </trkpt>
      <trkpt lat="45.68156" lon="6.61522">
        <ele>1580.06</ele>
        <time>2012-06-16T05:25:09Z</time>
      </trkpt>
      <trkpt lat="45.68176" lon="6.61528">
        <ele>1581.99</ele>
        <time>2012-06-16T05:25:23Z</time>
      </trkpt>
      <trkpt lat="45.68197" lon="6.61532">
        <ele>1584.39</ele>
        <time>2012-06-16T05:25:38Z</time>
      </trkpt>
      <trkpt lat="45.68217" lon="6.61535">
        <ele>1586.31</ele>
        <time>2012-06-16T05:25:53Z</time>
      </trkpt>
      <trkpt lat="45.68231" lon="6.61536">
        <ele>1587.27</ele>
        <time>2012-06-16T05:26:03Z</time>
      </trkpt>
      <trkpt lat="45.68242" lon="6.61544">
        <ele>1588.72</ele>
        <time>2012-06-16T05:26:11Z</time>
      </trkpt>
      <trkpt lat="45.68266" lon="6.6156">
        <ele>1591.6</ele>
        <time>2012-06-16T05:26:31Z</time>
      </trkpt>
      <trkpt lat="45.68277" lon="6.61575">
        <ele>1593.04</ele>
        <time>2012-06-16T05:26:42Z</time>
      </trkpt>
      <trkpt lat="45.68285" lon="6.61592">
        <ele>1594.96</ele>
        <time>2012-06-16T05:26:54Z</time>
      </trkpt>
      <trkpt lat="45.68287" lon="6.61595">
        <ele>1594.48</ele>
        <time>2012-06-16T05:26:56Z</time>
      </trkpt>
      <trkpt lat="45.68293" lon="6.61605">
        <ele>1595.93</ele>
        <time>2012-06-16T05:27:03Z</time>
      </trkpt>
      <trkpt lat="45.68306" lon="6.61633">
        <ele>1598.33</ele>
        <time>2012-06-16T05:27:21Z</time>
      </trkpt>
      <trkpt lat="45.68322" lon="6.61652">
        <ele>1600.25</ele>
        <time>2012-06-16T05:27:37Z</time>
      </trkpt>
      <trkpt lat="45.6834" lon="6.61661">
        <ele>1602.66</ele>
        <time>2012-06-16T05:27:52Z</time>
      </trkpt>
      <trkpt lat="45.68333" lon="6.61637">
        <ele>1605.06</ele>
        <time>2012-06-16T05:28:07Z</time>
      </trkpt>
      <trkpt lat="45.68326" lon="6.61623">
        <ele>1605.54</ele>
        <time>2012-06-16T05:28:15Z</time>
      </trkpt>
      <trkpt lat="45.68323" lon="6.61617">
        <ele>1606.02</ele>
        <time>2012-06-16T05:28:19Z</time>
      </trkpt>
      <trkpt lat="45.68316" lon="6.61601">
        <ele>1606.98</ele>
        <time>2012-06-16T05:28:29Z</time>
      </trkpt>
      <trkpt lat="45.68326" lon="6.61574">
        <ele>1609.38</ele>
        <time>2012-06-16T05:28:46Z</time>
      </trkpt>
      <trkpt lat="45.68354" lon="6.61567">
        <ele>1610.35</ele>
        <time>2012-06-16T05:29:04Z</time>
      </trkpt>
      <trkpt lat="45.68364" lon="6.61566">
        <ele>1610.35</ele>
        <time>2012-06-16T05:29:10Z</time>
      </trkpt>
      <trkpt lat="45.68374" lon="6.6156">
        <ele>1610.83</ele>
        <time>2012-06-16T05:29:17Z</time>
      </trkpt>
      <trkpt lat="45.68398" lon="6.61535">
        <ele>1612.27</ele>
        <time>2012-06-16T05:29:35Z</time>
      </trkpt>
      <trkpt lat="45.6841" lon="6.61508">
        <ele>1614.19</ele>
        <time>2012-06-16T05:29:50Z</time>
      </trkpt>
      <trkpt lat="45.68411" lon="6.61504">
        <ele>1614.19</ele>
        <time>2012-06-16T05:29:52Z</time>
      </trkpt>
      <trkpt lat="45.68403" lon="6.61466">
        <ele>1617.07</ele>
        <time>2012-06-16T05:30:11Z</time>
      </trkpt>
      <trkpt lat="45.68398" lon="6.61459">
        <ele>1618.04</ele>
        <time>2012-06-16T05:30:23Z</time>
      </trkpt>
      <trkpt lat="45.68398" lon="6.61459">
        <ele>1618.04</ele>
        <time>2012-06-16T05:30:29Z</time>
      </trkpt>
      <trkpt lat="45.68386" lon="6.61438">
        <ele>1618.52</ele>
        <time>2012-06-16T05:30:42Z</time>
      </trkpt>
      <trkpt lat="45.68375" lon="6.6141">
        <ele>1620.44</ele>
        <time>2012-06-16T05:30:58Z</time>
      </trkpt>
      <trkpt lat="45.68365" lon="6.61381">
        <ele>1622.36</ele>
        <time>2012-06-16T05:31:13Z</time>
      </trkpt>
      <trkpt lat="45.68359" lon="6.61356">
        <ele>1624.28</ele>
        <time>2012-06-16T05:31:27Z</time>
      </trkpt>
      <trkpt lat="45.68352" lon="6.61328">
        <ele>1626.69</ele>
        <time>2012-06-16T05:31:43Z</time>
      </trkpt>
      <trkpt lat="45.68351" lon="6.61327">
        <ele>1626.69</ele>
        <time>2012-06-16T05:31:44Z</time>
      </trkpt>
      <trkpt lat="45.68348" lon="6.61318">
        <ele>1627.17</ele>
        <time>2012-06-16T05:31:49Z</time>
      </trkpt>
      <trkpt lat="45.68327" lon="6.61308">
        <ele>1629.09</ele>
        <time>2012-06-16T05:32:06Z</time>
      </trkpt>
      <trkpt lat="45.68313" lon="6.61308">
        <ele>1631.01</ele>
        <time>2012-06-16T05:32:17Z</time>
      </trkpt>
      <trkpt lat="45.68308" lon="6.61307">
        <ele>1631.49</ele>
        <time>2012-06-16T05:32:21Z</time>
      </trkpt>
      <trkpt lat="45.68284" lon="6.61306">
        <ele>1633.42</ele>
        <time>2012-06-16T05:32:39Z</time>
      </trkpt>
      <trkpt lat="45.68258" lon="6.61302">
        <ele>1635.82</ele>
        <time>2012-06-16T05:32:56Z</time>
      </trkpt>
      <trkpt lat="45.68233" lon="6.613">
        <ele>1638.22</ele>
        <time>2012-06-16T05:33:13Z</time>
      </trkpt>
      <trkpt lat="45.6822" lon="6.61298">
        <ele>1638.7</ele>
        <time>2012-06-16T05:33:22Z</time>
      </trkpt>
      <trkpt lat="45.68213" lon="6.61297">
        <ele>1639.19</ele>
        <time>2012-06-16T05:33:27Z</time>
      </trkpt>
      <trkpt lat="45.68205" lon="6.613">
        <ele>1640.15</ele>
        <time>2012-06-16T05:33:33Z</time>
      </trkpt>
      <trkpt lat="45.68196" lon="6.613">
        <ele>1640.63</ele>
        <time>2012-06-16T05:33:39Z</time>
      </trkpt>
      <trkpt lat="45.68192" lon="6.61299">
        <ele>1640.63</ele>
        <time>2012-06-16T05:33:42Z</time>
      </trkpt>
      <trkpt lat="45.68194" lon="6.61282">
        <ele>1642.07</ele>
        <time>2012-06-16T05:33:53Z</time>
      </trkpt>
      <trkpt lat="45.68198" lon="6.61279">
        <ele>1642.55</ele>
        <time>2012-06-16T05:33:57Z</time>
      </trkpt>
      <trkpt lat="45.68207" lon="6.61279">
        <ele>1643.03</ele>
        <time>2012-06-16T05:34:03Z</time>
      </trkpt>
      <trkpt lat="45.68212" lon="6.61278">
        <ele>1644.47</ele>
        <time>2012-06-16T05:34:15Z</time>
      </trkpt>
      <trkpt lat="45.68211" lon="6.61277">
        <ele>1645.43</ele>
        <time>2012-06-16T05:34:43Z</time>
      </trkpt>
      <trkpt lat="45.68212" lon="6.61278">
        <ele>1645.43</ele>
        <time>2012-06-16T05:35:09Z</time>
      </trkpt>
      <trkpt lat="45.68232" lon="6.61269">
        <ele>1646.4</ele>
        <time>2012-06-16T05:35:24Z</time>
      </trkpt>
      <trkpt lat="45.68234" lon="6.61269">
        <ele>1646.4</ele>
        <time>2012-06-16T05:35:25Z</time>
      </trkpt>
      <trkpt lat="45.68241" lon="6.61263">
        <ele>1646.88</ele>
        <time>2012-06-16T05:35:30Z</time>
      </trkpt>
      <trkpt lat="45.68255" lon="6.61255">
        <ele>1649.28</ele>
        <time>2012-06-16T05:35:40Z</time>
      </trkpt>
      <trkpt lat="45.6826" lon="6.61252">
        <ele>1649.76</ele>
        <time>2012-06-16T05:35:44Z</time>
      </trkpt>
      <trkpt lat="45.68283" lon="6.61239">
        <ele>1652.64</ele>
        <time>2012-06-16T05:36:01Z</time>
      </trkpt>
      <trkpt lat="45.68301" lon="6.61229">
        <ele>1655.05</ele>
        <time>2012-06-16T05:36:15Z</time>
      </trkpt>
      <trkpt lat="45.68303" lon="6.61227">
        <ele>1655.53</ele>
        <time>2012-06-16T05:36:17Z</time>
      </trkpt>
      <trkpt lat="45.68312" lon="6.6122">
        <ele>1656.97</ele>
        <time>2012-06-16T05:36:26Z</time>
      </trkpt>
      <trkpt lat="45.6832" lon="6.61218">
        <ele>1657.45</ele>
        <time>2012-06-16T05:36:33Z</time>
      </trkpt>
      <trkpt lat="45.68323" lon="6.61217">
        <ele>1657.93</ele>
        <time>2012-06-16T05:36:36Z</time>
      </trkpt>
      <trkpt lat="45.6833" lon="6.61214">
        <ele>1659.37</ele>
        <time>2012-06-16T05:36:43Z</time>
      </trkpt>
      <trkpt lat="45.68333" lon="6.61215">
        <ele>1660.33</ele>
        <time>2012-06-16T05:36:57Z</time>
      </trkpt>
      <trkpt lat="45.68334" lon="6.61213">
        <ele>1660.81</ele>
        <time>2012-06-16T05:37:13Z</time>
      </trkpt>
      <trkpt lat="45.68348" lon="6.61202">
        <ele>1661.78</ele>
        <time>2012-06-16T05:37:26Z</time>
      </trkpt>
      <trkpt lat="45.6836" lon="6.61195">
        <ele>1663.22</ele>
        <time>2012-06-16T05:37:35Z</time>
      </trkpt>
      <trkpt lat="45.68375" lon="6.61202">
        <ele>1664.66</ele>
        <time>2012-06-16T05:37:47Z</time>
      </trkpt>
      <trkpt lat="45.6839" lon="6.61204">
        <ele>1666.58</ele>
        <time>2012-06-16T05:37:57Z</time>
      </trkpt>
      <trkpt lat="45.6841" lon="6.61202">
        <ele>1668.02</ele>
        <time>2012-06-16T05:38:12Z</time>
      </trkpt>
      <trkpt lat="45.68415" lon="6.61197">
        <ele>1668.99</ele>
        <time>2012-06-16T05:38:17Z</time>
      </trkpt>
      <trkpt lat="45.68404" lon="6.61184">
        <ele>1670.91</ele>
        <time>2012-06-16T05:38:31Z</time>
      </trkpt>
      <trkpt lat="45.68388" lon="6.61184">
        <ele>1672.35</ele>
        <time>2012-06-16T05:38:42Z</time>
      </trkpt>
      <trkpt lat="45.6837" lon="6.61164">
        <ele>1673.79</ele>
        <time>2012-06-16T05:38:56Z</time>
      </trkpt>
      <trkpt lat="45.68361" lon="6.61156">
        <ele>1674.27</ele>
        <time>2012-06-16T05:39:03Z</time>
      </trkpt>
      <trkpt lat="45.6835" lon="6.61159">
        <ele>1676.2</ele>
        <time>2012-06-16T05:39:12Z</time>
      </trkpt>
      <trkpt lat="45.68323" lon="6.61158">
        <ele>1679.08</ele>
        <time>2012-06-16T05:39:31Z</time>
      </trkpt>
      <trkpt lat="45.68317" lon="6.61152">
        <ele>1679.56</ele>
        <time>2012-06-16T05:39:36Z</time>
      </trkpt>
      <trkpt lat="45.68302" lon="6.6115">
        <ele>1681.48</ele>
        <time>2012-06-16T05:39:46Z</time>
      </trkpt>
      <trkpt lat="45.68274" lon="6.61147">
        <ele>1683.89</ele>
        <time>2012-06-16T05:40:04Z</time>
      </trkpt>
      <trkpt lat="45.68251" lon="6.61141">
        <ele>1686.29</ele>
        <time>2012-06-16T05:40:18Z</time>
      </trkpt>
      <trkpt lat="45.68219" lon="6.61141">
        <ele>1689.65</ele>
        <time>2012-06-16T05:40:39Z</time>
      </trkpt>
      <trkpt lat="45.68216" lon="6.6114">
        <ele>1689.65</ele>
        <time>2012-06-16T05:40:41Z</time>
      </trkpt>
      <trkpt lat="45.68211" lon="6.61129">
        <ele>1690.62</ele>
        <time>2012-06-16T05:40:54Z</time>
      </trkpt>
      <trkpt lat="45.68212" lon="6.6113">
        <ele>1691.1</ele>
        <time>2012-06-16T05:40:58Z</time>
      </trkpt>
      <trkpt lat="45.68207" lon="6.61133">
        <ele>1691.1</ele>
        <time>2012-06-16T05:41:07Z</time>
      </trkpt>
      <trkpt lat="45.68205" lon="6.61135">
        <ele>1691.58</ele>
        <time>2012-06-16T05:41:10Z</time>
      </trkpt>
      <trkpt lat="45.68208" lon="6.61135">
        <ele>1691.58</ele>
        <time>2012-06-16T05:41:25Z</time>
      </trkpt>
      <trkpt lat="45.68208" lon="6.61136">
        <ele>1691.58</ele>
        <time>2012-06-16T05:41:40Z</time>
      </trkpt>
      <trkpt lat="45.68208" lon="6.61136">
        <ele>1692.06</ele>
        <time>2012-06-16T05:42:07Z</time>
      </trkpt>
      <trkpt lat="45.68209" lon="6.61133">
        <ele>1692.06</ele>
        <time>2012-06-16T05:42:28Z</time>
      </trkpt>
      <trkpt lat="45.6821" lon="6.61133">
        <ele>1692.06</ele>
        <time>2012-06-16T05:42:43Z</time>
      </trkpt>
      <trkpt lat="45.6821" lon="6.61132">
        <ele>1692.06</ele>
        <time>2012-06-16T05:42:56Z</time>
      </trkpt>
      <trkpt lat="45.68216" lon="6.6113">
        <ele>1692.06</ele>
        <time>2012-06-16T05:43:00Z</time>
      </trkpt>
      <trkpt lat="45.68233" lon="6.61125">
        <ele>1692.06</ele>
        <time>2012-06-16T05:43:11Z</time>
      </trkpt>
      <trkpt lat="45.68236" lon="6.61125">
        <ele>1692.54</ele>
        <time>2012-06-16T05:43:13Z</time>
      </trkpt>
      <trkpt lat="45.6825" lon="6.6112">
        <ele>1693.98</ele>
        <time>2012-06-16T05:43:24Z</time>
      </trkpt>
      <trkpt lat="45.6826" lon="6.61116">
        <ele>1694.94</ele>
        <time>2012-06-16T05:43:31Z</time>
      </trkpt>
      <trkpt lat="45.68283" lon="6.61097">
        <ele>1697.83</ele>
        <time>2012-06-16T05:43:50Z</time>
      </trkpt>
      <trkpt lat="45.68308" lon="6.61071">
        <ele>1700.23</ele>
        <time>2012-06-16T05:44:09Z</time>
      </trkpt>
      <trkpt lat="45.68331" lon="6.61044">
        <ele>1702.15</ele>
        <time>2012-06-16T05:44:27Z</time>
      </trkpt>
      <trkpt lat="45.68349" lon="6.61012">
        <ele>1704.55</ele>
        <time>2012-06-16T05:44:45Z</time>
      </trkpt>
      <trkpt lat="45.68373" lon="6.61001">
        <ele>1706.48</ele>
        <time>2012-06-16T05:45:02Z</time>
      </trkpt>
      <trkpt lat="45.68396" lon="6.61002">
        <ele>1708.88</ele>
        <time>2012-06-16T05:45:17Z</time>
      </trkpt>
      <trkpt lat="45.68421" lon="6.60991">
        <ele>1710.8</ele>
        <time>2012-06-16T05:45:36Z</time>
      </trkpt>
      <trkpt lat="45.6844" lon="6.60972">
        <ele>1710.8</ele>
        <time>2012-06-16T05:45:46Z</time>
      </trkpt>
      <trkpt lat="45.6844" lon="6.60971">
        <ele>1711.28</ele>
        <time>2012-06-16T05:45:56Z</time>
      </trkpt>
      <trkpt lat="45.6844" lon="6.60971">
        <ele>1711.28</ele>
        <time>2012-06-16T05:46:14Z</time>
      </trkpt>
      <trkpt lat="45.68442" lon="6.60969">
        <ele>1711.28</ele>
        <time>2012-06-16T05:46:26Z</time>
      </trkpt>
      <trkpt lat="45.68444" lon="6.60968">
        <ele>1711.28</ele>
        <time>2012-06-16T05:46:36Z</time>
      </trkpt>
      <trkpt lat="45.68445" lon="6.60968">
        <ele>1711.28</ele>
        <time>2012-06-16T05:47:14Z</time>
      </trkpt>
      <trkpt lat="45.68445" lon="6.60968">
        <ele>1711.28</ele>
        <time>2012-06-16T05:47:46Z</time>
      </trkpt>
      <trkpt lat="45.68446" lon="6.60969">
        <ele>1711.76</ele>
        <time>2012-06-16T05:48:41Z</time>
      </trkpt>
      <trkpt lat="45.68447" lon="6.6097">
        <ele>1711.76</ele>
        <time>2012-06-16T05:49:40Z</time>
      </trkpt>
      <trkpt lat="45.68447" lon="6.6097">
        <ele>1711.76</ele>
        <time>2012-06-16T05:50:28Z</time>
      </trkpt>
      <trkpt lat="45.68446" lon="6.60969">
        <ele>1711.76</ele>
        <time>2012-06-16T05:51:09Z</time>
      </trkpt>
      <trkpt lat="45.68445" lon="6.60968">
        <ele>1711.76</ele>
        <time>2012-06-16T05:51:43Z</time>
      </trkpt>
      <trkpt lat="45.68445" lon="6.60968">
        <ele>1711.76</ele>
        <time>2012-06-16T05:52:15Z</time>
      </trkpt>
      <trkpt lat="45.68445" lon="6.60969">
        <ele>1712.25</ele>
        <time>2012-06-16T05:52:55Z</time>
      </trkpt>
      <trkpt lat="45.68445" lon="6.60969">
        <ele>1712.25</ele>
        <time>2012-06-16T05:53:37Z</time>
      </trkpt>
      <trkpt lat="45.68445" lon="6.60968">
        <ele>1712.25</ele>
        <time>2012-06-16T05:54:27Z</time>
      </trkpt>
      <trkpt lat="45.68445" lon="6.60968">
        <ele>1712.73</ele>
        <time>2012-06-16T05:55:22Z</time>
      </trkpt>
      <trkpt lat="45.68445" lon="6.60969">
        <ele>1712.73</ele>
        <time>2012-06-16T05:56:15Z</time>
      </trkpt>
      <trkpt lat="45.68445" lon="6.60969">
        <ele>1712.73</ele>
        <time>2012-06-16T05:56:56Z</time>
      </trkpt>
      <trkpt lat="45.68446" lon="6.60968">
        <ele>1712.73</ele>
        <time>2012-06-16T05:57:53Z</time>
      </trkpt>
      <trkpt lat="45.68445" lon="6.60969">
        <ele>1713.21</ele>
        <time>2012-06-16T05:58:34Z</time>
      </trkpt>
      <trkpt lat="45.68445" lon="6.6097">
        <ele>1713.21</ele>
        <time>2012-06-16T05:59:16Z</time>
      </trkpt>
      <trkpt lat="45.68445" lon="6.60969">
        <ele>1713.21</ele>
        <time>2012-06-16T05:59:56Z</time>
      </trkpt>
      <trkpt lat="45.68441" lon="6.60967">
        <ele>1713.21</ele>
        <time>2012-06-16T06:00:08Z</time>
      </trkpt>
      <trkpt lat="45.68438" lon="6.60965">
        <ele>1713.21</ele>
        <time>2012-06-16T06:00:19Z</time>
      </trkpt>
      <trkpt lat="45.68439" lon="6.60963">
        <ele>1713.21</ele>
        <time>2012-06-16T06:00:21Z</time>
      </trkpt>
      <trkpt lat="45.68449" lon="6.60951">
        <ele>1713.69</ele>
        <time>2012-06-16T06:00:31Z</time>
      </trkpt>
      <trkpt lat="45.6845" lon="6.60942">
        <ele>1714.65</ele>
        <time>2012-06-16T06:00:36Z</time>
      </trkpt>
      <trkpt lat="45.68449" lon="6.60925">
        <ele>1715.13</ele>
        <time>2012-06-16T06:00:46Z</time>
      </trkpt>
      <trkpt lat="45.68449" lon="6.6092">
        <ele>1715.13</ele>
        <time>2012-06-16T06:00:49Z</time>
      </trkpt>
      <trkpt lat="45.68448" lon="6.60913">
        <ele>1715.13</ele>
        <time>2012-06-16T06:00:53Z</time>
      </trkpt>
      <trkpt lat="45.68449" lon="6.60895">
        <ele>1715.61</ele>
        <time>2012-06-16T06:01:02Z</time>
      </trkpt>
      <trkpt lat="45.68452" lon="6.60887">
        <ele>1716.57</ele>
        <time>2012-06-16T06:01:16Z</time>
      </trkpt>
      <trkpt lat="45.68452" lon="6.60886">
        <ele>1716.57</ele>
        <time>2012-06-16T06:01:41Z</time>
      </trkpt>
      <trkpt lat="45.68453" lon="6.60878">
        <ele>1716.57</ele>
        <time>2012-06-16T06:01:45Z</time>
      </trkpt>
      <trkpt lat="45.68454" lon="6.60873">
        <ele>1716.57</ele>
        <time>2012-06-16T06:01:47Z</time>
      </trkpt>
      <trkpt lat="45.68458" lon="6.60861">
        <ele>1717.05</ele>
        <time>2012-06-16T06:01:53Z</time>
      </trkpt>
      <trkpt lat="45.68466" lon="6.60846">
        <ele>1718.01</ele>
        <time>2012-06-16T06:02:03Z</time>
      </trkpt>
      <trkpt lat="45.68472" lon="6.60839">
        <ele>1718.49</ele>
        <time>2012-06-16T06:02:09Z</time>
      </trkpt>
      <trkpt lat="45.68475" lon="6.60838">
        <ele>1718.49</ele>
        <time>2012-06-16T06:02:11Z</time>
      </trkpt>
      <trkpt lat="45.68491" lon="6.60832">
        <ele>1719.46</ele>
        <time>2012-06-16T06:02:23Z</time>
      </trkpt>
      <trkpt lat="45.68498" lon="6.60834">
        <ele>1720.9</ele>
        <time>2012-06-16T06:02:29Z</time>
      </trkpt>
      <trkpt lat="45.68521" lon="6.60847">
        <ele>1722.34</ele>
        <time>2012-06-16T06:02:45Z</time>
      </trkpt>
      <trkpt lat="45.68542" lon="6.60846">
        <ele>1723.78</ele>
        <time>2012-06-16T06:03:00Z</time>
      </trkpt>
      <trkpt lat="45.6855" lon="6.60839">
        <ele>1724.26</ele>
        <time>2012-06-16T06:03:06Z</time>
      </trkpt>
      <trkpt lat="45.68559" lon="6.60833">
        <ele>1724.74</ele>
        <time>2012-06-16T06:03:12Z</time>
      </trkpt>
      <trkpt lat="45.68583" lon="6.60804">
        <ele>1725.7</ele>
        <time>2012-06-16T06:03:28Z</time>
      </trkpt>
      <trkpt lat="45.68612" lon="6.60769">
        <ele>1726.18</ele>
        <time>2012-06-16T06:03:46Z</time>
      </trkpt>
      <trkpt lat="45.68636" lon="6.60737">
        <ele>1726.67</ele>
        <time>2012-06-16T06:04:01Z</time>
      </trkpt>
      <trkpt lat="45.68651" lon="6.60699">
        <ele>1727.63</ele>
        <time>2012-06-16T06:04:15Z</time>
      </trkpt>
      <trkpt lat="45.68654" lon="6.60691">
        <ele>1727.63</ele>
        <time>2012-06-16T06:04:18Z</time>
      </trkpt>
      <trkpt lat="45.68677" lon="6.60648">
        <ele>1729.07</ele>
        <time>2012-06-16T06:04:36Z</time>
      </trkpt>
      <trkpt lat="45.68697" lon="6.60612">
        <ele>1730.03</ele>
        <time>2012-06-16T06:04:52Z</time>
      </trkpt>
      <trkpt lat="45.68717" lon="6.60573">
        <ele>1731.47</ele>
        <time>2012-06-16T06:05:09Z</time>
      </trkpt>
      <trkpt lat="45.68723" lon="6.6055">
        <ele>1732.43</ele>
        <time>2012-06-16T06:05:18Z</time>
      </trkpt>
      <trkpt lat="45.68722" lon="6.60542">
        <ele>1732.91</ele>
        <time>2012-06-16T06:05:22Z</time>
      </trkpt>
      <trkpt lat="45.68717" lon="6.6054">
        <ele>1733.88</ele>
        <time>2012-06-16T06:05:29Z</time>
      </trkpt>
      <trkpt lat="45.68715" lon="6.60544">
        <ele>1733.88</ele>
        <time>2012-06-16T06:05:32Z</time>
      </trkpt>
      <trkpt lat="45.68711" lon="6.60547">
        <ele>1734.84</ele>
        <time>2012-06-16T06:05:43Z</time>
      </trkpt>
      <trkpt lat="45.68714" lon="6.60548">
        <ele>1734.84</ele>
        <time>2012-06-16T06:05:48Z</time>
      </trkpt>
      <trkpt lat="45.6872" lon="6.60544">
        <ele>1734.84</ele>
        <time>2012-06-16T06:05:52Z</time>
      </trkpt>
      <trkpt lat="45.68723" lon="6.60541">
        <ele>1734.84</ele>
        <time>2012-06-16T06:05:54Z</time>
      </trkpt>
      <trkpt lat="45.68725" lon="6.6053">
        <ele>1734.84</ele>
        <time>2012-06-16T06:05:59Z</time>
      </trkpt>
      <trkpt lat="45.68728" lon="6.60529">
        <ele>1734.84</ele>
        <time>2012-06-16T06:06:10Z</time>
      </trkpt>
      <trkpt lat="45.68727" lon="6.6053">
        <ele>1734.84</ele>
        <time>2012-06-16T06:06:34Z</time>
      </trkpt>
      <trkpt lat="45.68727" lon="6.6053">
        <ele>1734.84</ele>
        <time>2012-06-16T06:06:47Z</time>
      </trkpt>
      <trkpt lat="45.68733" lon="6.6053">
        <ele>1734.84</ele>
        <time>2012-06-16T06:06:53Z</time>
      </trkpt>
      <trkpt lat="45.68736" lon="6.60534">
        <ele>1734.84</ele>
        <time>2012-06-16T06:07:06Z</time>
      </trkpt>
      <trkpt lat="45.68736" lon="6.60534">
        <ele>1734.84</ele>
        <time>2012-06-16T06:07:33Z</time>
      </trkpt>
      <trkpt lat="45.68737" lon="6.60535">
        <ele>1735.32</ele>
        <time>2012-06-16T06:08:01Z</time>
      </trkpt>
      <trkpt lat="45.68737" lon="6.60534">
        <ele>1735.32</ele>
        <time>2012-06-16T06:08:26Z</time>
      </trkpt>
      <trkpt lat="45.68736" lon="6.60535">
        <ele>1735.32</ele>
        <time>2012-06-16T06:08:50Z</time>
      </trkpt>
      <trkpt lat="45.68736" lon="6.60535">
        <ele>1735.32</ele>
        <time>2012-06-16T06:09:17Z</time>
      </trkpt>
      <trkpt lat="45.68736" lon="6.6053">
        <ele>1735.32</ele>
        <time>2012-06-16T06:09:31Z</time>
      </trkpt>
      <trkpt lat="45.68731" lon="6.6053">
        <ele>1735.32</ele>
        <time>2012-06-16T06:09:36Z</time>
      </trkpt>
      <trkpt lat="45.68729" lon="6.60525">
        <ele>1735.32</ele>
        <time>2012-06-16T06:09:46Z</time>
      </trkpt>
      <trkpt lat="45.68733" lon="6.6053">
        <ele>1735.32</ele>
        <time>2012-06-16T06:09:52Z</time>
      </trkpt>
      <trkpt lat="45.68733" lon="6.60524">
        <ele>1735.8</ele>
        <time>2012-06-16T06:09:58Z</time>
      </trkpt>
      <trkpt lat="45.68725" lon="6.60525">
        <ele>1735.8</ele>
        <time>2012-06-16T06:10:07Z</time>
      </trkpt>
      <trkpt lat="45.68727" lon="6.60517">
        <ele>1735.8</ele>
        <time>2012-06-16T06:10:12Z</time>
      </trkpt>
      <trkpt lat="45.68729" lon="6.60478">
        <ele>1735.8</ele>
        <time>2012-06-16T06:10:25Z</time>
      </trkpt>
      <trkpt lat="45.68738" lon="6.60444">
        <ele>1735.8</ele>
        <time>2012-06-16T06:10:38Z</time>
      </trkpt>
      <trkpt lat="45.68751" lon="6.60404">
        <ele>1734.36</ele>
        <time>2012-06-16T06:10:51Z</time>
      </trkpt>
      <trkpt lat="45.68761" lon="6.60396">
        <ele>1734.36</ele>
        <time>2012-06-16T06:10:54Z</time>
      </trkpt>
      <trkpt lat="45.68775" lon="6.60392">
        <ele>1733.88</ele>
        <time>2012-06-16T06:10:58Z</time>
      </trkpt>
      <trkpt lat="45.68811" lon="6.60366">
        <ele>1732.91</ele>
        <time>2012-06-16T06:11:14Z</time>
      </trkpt>
      <trkpt lat="45.68823" lon="6.60315">
        <ele>1731.95</ele>
        <time>2012-06-16T06:11:27Z</time>
      </trkpt>
      <trkpt lat="45.68852" lon="6.60284">
        <ele>1731.47</ele>
        <time>2012-06-16T06:11:41Z</time>
      </trkpt>
      <trkpt lat="45.6887" lon="6.60264">
        <ele>1731.47</ele>
        <time>2012-06-16T06:11:55Z</time>
      </trkpt>
      <trkpt lat="45.68879" lon="6.6023">
        <ele>1731.47</ele>
        <time>2012-06-16T06:12:08Z</time>
      </trkpt>
      <trkpt lat="45.68885" lon="6.602">
        <ele>1731.47</ele>
        <time>2012-06-16T06:12:16Z</time>
      </trkpt>
      <trkpt lat="45.68894" lon="6.60129">
        <ele>1730.03</ele>
        <time>2012-06-16T06:12:31Z</time>
      </trkpt>
      <trkpt lat="45.68899" lon="6.60091">
        <ele>1729.07</ele>
        <time>2012-06-16T06:12:39Z</time>
      </trkpt>
      <trkpt lat="45.68919" lon="6.60071">
        <ele>1728.59</ele>
        <time>2012-06-16T06:12:44Z</time>
      </trkpt>
      <trkpt lat="45.68955" lon="6.60044">
        <ele>1725.22</ele>
        <time>2012-06-16T06:12:53Z</time>
      </trkpt>
      <trkpt lat="45.68962" lon="6.60035">
        <ele>1721.86</ele>
        <time>2012-06-16T06:12:57Z</time>
      </trkpt>
      <trkpt lat="45.68987" lon="6.59974">
        <ele>1719.94</ele>
        <time>2012-06-16T06:13:15Z</time>
      </trkpt>
      <trkpt lat="45.69002" lon="6.59915">
        <ele>1717.05</ele>
        <time>2012-06-16T06:13:29Z</time>
      </trkpt>
      <trkpt lat="45.68997" lon="6.59862">
        <ele>1714.65</ele>
        <time>2012-06-16T06:13:40Z</time>
      </trkpt>
      <trkpt lat="45.69003" lon="6.59835">
        <ele>1710.8</ele>
        <time>2012-06-16T06:13:45Z</time>
      </trkpt>
      <trkpt lat="45.69005" lon="6.5983">
        <ele>1709.84</ele>
        <time>2012-06-16T06:13:46Z</time>
      </trkpt>
      <trkpt lat="45.69013" lon="6.59817">
        <ele>1706.96</ele>
        <time>2012-06-16T06:13:49Z</time>
      </trkpt>
      <trkpt lat="45.69006" lon="6.59799">
        <ele>1706</ele>
        <time>2012-06-16T06:13:55Z</time>
      </trkpt>
      <trkpt lat="45.69" lon="6.598">
        <ele>1709.84</ele>
        <time>2012-06-16T06:13:59Z</time>
      </trkpt>
      <trkpt lat="45.68992" lon="6.59801">
        <ele>1713.21</ele>
        <time>2012-06-16T06:14:03Z</time>
      </trkpt>
      <trkpt lat="45.68971" lon="6.59798">
        <ele>1713.69</ele>
        <time>2012-06-16T06:14:17Z</time>
      </trkpt>
      <trkpt lat="45.68953" lon="6.598">
        <ele>1714.65</ele>
        <time>2012-06-16T06:14:31Z</time>
      </trkpt>
      <trkpt lat="45.68948" lon="6.59808">
        <ele>1716.09</ele>
        <time>2012-06-16T06:14:37Z</time>
      </trkpt>
      <trkpt lat="45.68946" lon="6.5981">
        <ele>1716.57</ele>
        <time>2012-06-16T06:14:39Z</time>
      </trkpt>
      <trkpt lat="45.6894" lon="6.59816">
        <ele>1718.49</ele>
        <time>2012-06-16T06:14:48Z</time>
      </trkpt>
      <trkpt lat="45.68928" lon="6.59819">
        <ele>1720.9</ele>
        <time>2012-06-16T06:15:04Z</time>
      </trkpt>
      <trkpt lat="45.68927" lon="6.59819">
        <ele>1720.9</ele>
        <time>2012-06-16T06:15:05Z</time>
      </trkpt>
      <trkpt lat="45.68919" lon="6.59814">
        <ele>1722.82</ele>
        <time>2012-06-16T06:15:19Z</time>
      </trkpt>
      <trkpt lat="45.68918" lon="6.59816">
        <ele>1724.26</ele>
        <time>2012-06-16T06:15:48Z</time>
      </trkpt>
      <trkpt lat="45.68913" lon="6.59809">
        <ele>1725.22</ele>
        <time>2012-06-16T06:16:02Z</time>
      </trkpt>
      <trkpt lat="45.68908" lon="6.59804">
        <ele>1725.7</ele>
        <time>2012-06-16T06:16:12Z</time>
      </trkpt>
      <trkpt lat="45.68889" lon="6.59781">
        <ele>1726.18</ele>
        <time>2012-06-16T06:16:27Z</time>
      </trkpt>
      <trkpt lat="45.68879" lon="6.59774">
        <ele>1726.67</ele>
        <time>2012-06-16T06:16:34Z</time>
      </trkpt>
      <trkpt lat="45.68872" lon="6.59769">
        <ele>1727.63</ele>
        <time>2012-06-16T06:16:40Z</time>
      </trkpt>
      <trkpt lat="45.68855" lon="6.59758">
        <ele>1730.03</ele>
        <time>2012-06-16T06:16:56Z</time>
      </trkpt>
      <trkpt lat="45.68835" lon="6.59744">
        <ele>1731.95</ele>
        <time>2012-06-16T06:17:09Z</time>
      </trkpt>
      <trkpt lat="45.68805" lon="6.59731">
        <ele>1732.43</ele>
        <time>2012-06-16T06:17:22Z</time>
      </trkpt>
      <trkpt lat="45.68788" lon="6.59713">
        <ele>1732.91</ele>
        <time>2012-06-16T06:17:33Z</time>
      </trkpt>
      <trkpt lat="45.68781" lon="6.59708">
        <ele>1733.39</ele>
        <time>2012-06-16T06:17:38Z</time>
      </trkpt>
      <trkpt lat="45.68775" lon="6.59704">
        <ele>1733.39</ele>
        <time>2012-06-16T06:17:42Z</time>
      </trkpt>
      <trkpt lat="45.6875" lon="6.59705">
        <ele>1734.36</ele>
        <time>2012-06-16T06:17:58Z</time>
      </trkpt>
      <trkpt lat="45.68731" lon="6.59702">
        <ele>1734.36</ele>
        <time>2012-06-16T06:18:10Z</time>
      </trkpt>
      <trkpt lat="45.68709" lon="6.59699">
        <ele>1734.84</ele>
        <time>2012-06-16T06:18:24Z</time>
      </trkpt>
      <trkpt lat="45.68685" lon="6.597">
        <ele>1734.84</ele>
        <time>2012-06-16T06:18:35Z</time>
      </trkpt>
      <trkpt lat="45.68673" lon="6.59699">
        <ele>1734.84</ele>
        <time>2012-06-16T06:18:38Z</time>
      </trkpt>
      <trkpt lat="45.68652" lon="6.59684">
        <ele>1733.88</ele>
        <time>2012-06-16T06:18:44Z</time>
      </trkpt>
      <trkpt lat="45.6864" lon="6.5967">
        <ele>1733.88</ele>
        <time>2012-06-16T06:18:54Z</time>
      </trkpt>
      <trkpt lat="45.68628" lon="6.59657">
        <ele>1734.84</ele>
        <time>2012-06-16T06:19:07Z</time>
      </trkpt>
      <trkpt lat="45.68627" lon="6.59656">
        <ele>1734.84</ele>
        <time>2012-06-16T06:19:08Z</time>
      </trkpt>
      <trkpt lat="45.68615" lon="6.59651">
        <ele>1736.28</ele>
        <time>2012-06-16T06:19:16Z</time>
      </trkpt>
      <trkpt lat="45.68591" lon="6.59644">
        <ele>1737.24</ele>
        <time>2012-06-16T06:19:29Z</time>
      </trkpt>
      <trkpt lat="45.68567" lon="6.59645">
        <ele>1737.24</ele>
        <time>2012-06-16T06:19:41Z</time>
      </trkpt>
      <trkpt lat="45.68542" lon="6.59658">
        <ele>1737.24</ele>
        <time>2012-06-16T06:19:54Z</time>
      </trkpt>
      <trkpt lat="45.6852" lon="6.59646">
        <ele>1737.24</ele>
        <time>2012-06-16T06:20:04Z</time>
      </trkpt>
      <trkpt lat="45.68504" lon="6.59634">
        <ele>1737.24</ele>
        <time>2012-06-16T06:20:16Z</time>
      </trkpt>
      <trkpt lat="45.6849" lon="6.59629">
        <ele>1737.24</ele>
        <time>2012-06-16T06:20:29Z</time>
      </trkpt>
      <trkpt lat="45.68473" lon="6.59626">
        <ele>1737.24</ele>
        <time>2012-06-16T06:20:44Z</time>
      </trkpt>
      <trkpt lat="45.68458" lon="6.59629">
        <ele>1738.2</ele>
        <time>2012-06-16T06:20:56Z</time>
      </trkpt>
      <trkpt lat="45.68439" lon="6.59647">
        <ele>1738.2</ele>
        <time>2012-06-16T06:21:08Z</time>
      </trkpt>
      <trkpt lat="45.68425" lon="6.59656">
        <ele>1736.76</ele>
        <time>2012-06-16T06:21:12Z</time>
      </trkpt>
      <trkpt lat="45.68406" lon="6.59662">
        <ele>1733.88</ele>
        <time>2012-06-16T06:21:18Z</time>
      </trkpt>
      <trkpt lat="45.68397" lon="6.59667">
        <ele>1737.72</ele>
        <time>2012-06-16T06:21:27Z</time>
      </trkpt>
      <trkpt lat="45.68395" lon="6.59668">
        <ele>1739.16</ele>
        <time>2012-06-16T06:21:30Z</time>
      </trkpt>
      <trkpt lat="45.68386" lon="6.59681">
        <ele>1739.64</ele>
        <time>2012-06-16T06:21:42Z</time>
      </trkpt>
      <trkpt lat="45.68375" lon="6.5969">
        <ele>1739.64</ele>
        <time>2012-06-16T06:21:57Z</time>
      </trkpt>
      <trkpt lat="45.68373" lon="6.59694">
        <ele>1740.12</ele>
        <time>2012-06-16T06:22:03Z</time>
      </trkpt>
      <trkpt lat="45.68355" lon="6.59715">
        <ele>1740.12</ele>
        <time>2012-06-16T06:22:14Z</time>
      </trkpt>
      <trkpt lat="45.68348" lon="6.59719">
        <ele>1740.12</ele>
        <time>2012-06-16T06:22:19Z</time>
      </trkpt>
      <trkpt lat="45.68335" lon="6.59722">
        <ele>1739.16</ele>
        <time>2012-06-16T06:22:25Z</time>
      </trkpt>
      <trkpt lat="45.68316" lon="6.59726">
        <ele>1738.68</ele>
        <time>2012-06-16T06:22:30Z</time>
      </trkpt>
      <trkpt lat="45.68297" lon="6.59726">
        <ele>1737.72</ele>
        <time>2012-06-16T06:22:35Z</time>
      </trkpt>
      <trkpt lat="45.68279" lon="6.59729">
        <ele>1737.24</ele>
        <time>2012-06-16T06:22:49Z</time>
      </trkpt>
      <trkpt lat="45.68258" lon="6.59733">
        <ele>1738.68</ele>
        <time>2012-06-16T06:23:04Z</time>
      </trkpt>
      <trkpt lat="45.68234" lon="6.59733">
        <ele>1740.6</ele>
        <time>2012-06-16T06:23:19Z</time>
      </trkpt>
      <trkpt lat="45.68214" lon="6.59714">
        <ele>1742.53</ele>
        <time>2012-06-16T06:23:34Z</time>
      </trkpt>
      <trkpt lat="45.68198" lon="6.59698">
        <ele>1745.41</ele>
        <time>2012-06-16T06:23:50Z</time>
      </trkpt>
      <trkpt lat="45.68186" lon="6.59691">
        <ele>1749.26</ele>
        <time>2012-06-16T06:23:59Z</time>
      </trkpt>
      <trkpt lat="45.68181" lon="6.59689">
        <ele>1751.66</ele>
        <time>2012-06-16T06:24:02Z</time>
      </trkpt>
      <trkpt lat="45.68168" lon="6.59697">
        <ele>1752.62</ele>
        <time>2012-06-16T06:24:17Z</time>
      </trkpt>
      <trkpt lat="45.68155" lon="6.59711">
        <ele>1752.62</ele>
        <time>2012-06-16T06:24:31Z</time>
      </trkpt>
      <trkpt lat="45.68155" lon="6.59711">
        <ele>1752.62</ele>
        <time>2012-06-16T06:24:44Z</time>
      </trkpt>
      <trkpt lat="45.68155" lon="6.59712">
        <ele>1752.62</ele>
        <time>2012-06-16T06:25:06Z</time>
      </trkpt>
      <trkpt lat="45.68155" lon="6.59712">
        <ele>1752.62</ele>
        <time>2012-06-16T06:25:14Z</time>
      </trkpt>
      <trkpt lat="45.68149" lon="6.59719">
        <ele>1752.62</ele>
        <time>2012-06-16T06:25:21Z</time>
      </trkpt>
      <trkpt lat="45.68145" lon="6.59725">
        <ele>1752.62</ele>
        <time>2012-06-16T06:25:27Z</time>
      </trkpt>
      <trkpt lat="45.68143" lon="6.59728">
        <ele>1751.18</ele>
        <time>2012-06-16T06:25:43Z</time>
      </trkpt>
      <trkpt lat="45.68143" lon="6.59727">
        <ele>1751.18</ele>
        <time>2012-06-16T06:26:13Z</time>
      </trkpt>
      <trkpt lat="45.68135" lon="6.5974">
        <ele>1751.18</ele>
        <time>2012-06-16T06:26:25Z</time>
      </trkpt>
      <trkpt lat="45.68136" lon="6.5974">
        <ele>1750.7</ele>
        <time>2012-06-16T06:26:50Z</time>
      </trkpt>
      <trkpt lat="45.68137" lon="6.59741">
        <ele>1750.7</ele>
        <time>2012-06-16T06:27:20Z</time>
      </trkpt>
      <trkpt lat="45.68129" lon="6.5975">
        <ele>1750.7</ele>
        <time>2012-06-16T06:27:41Z</time>
      </trkpt>
      <trkpt lat="45.68125" lon="6.59756">
        <ele>1750.22</ele>
        <time>2012-06-16T06:27:46Z</time>
      </trkpt>
      <trkpt lat="45.68119" lon="6.59762">
        <ele>1750.22</ele>
        <time>2012-06-16T06:27:51Z</time>
      </trkpt>
      <trkpt lat="45.68116" lon="6.59765">
        <ele>1750.22</ele>
        <time>2012-06-16T06:27:54Z</time>
      </trkpt>
      <trkpt lat="45.68097" lon="6.5978">
        <ele>1750.22</ele>
        <time>2012-06-16T06:28:10Z</time>
      </trkpt>
      <trkpt lat="45.68094" lon="6.59781">
        <ele>1750.22</ele>
        <time>2012-06-16T06:28:12Z</time>
      </trkpt>
      <trkpt lat="45.68087" lon="6.59782">
        <ele>1751.18</ele>
        <time>2012-06-16T06:28:18Z</time>
      </trkpt>
      <trkpt lat="45.68075" lon="6.59785">
        <ele>1752.14</ele>
        <time>2012-06-16T06:28:32Z</time>
      </trkpt>
      <trkpt lat="45.6807" lon="6.59786">
        <ele>1753.1</ele>
        <time>2012-06-16T06:28:53Z</time>
      </trkpt>
      <trkpt lat="45.68065" lon="6.59787">
        <ele>1753.1</ele>
        <time>2012-06-16T06:28:57Z</time>
      </trkpt>
      <trkpt lat="45.68059" lon="6.59789">
        <ele>1754.06</ele>
        <time>2012-06-16T06:29:09Z</time>
      </trkpt>
      <trkpt lat="45.68059" lon="6.59789">
        <ele>1754.54</ele>
        <time>2012-06-16T06:29:35Z</time>
      </trkpt>
      <trkpt lat="45.68058" lon="6.59789">
        <ele>1754.54</ele>
        <time>2012-06-16T06:30:04Z</time>
      </trkpt>
      <trkpt lat="45.68059" lon="6.5979">
        <ele>1754.54</ele>
        <time>2012-06-16T06:30:36Z</time>
      </trkpt>
      <trkpt lat="45.68059" lon="6.5979">
        <ele>1754.54</ele>
        <time>2012-06-16T06:31:04Z</time>
      </trkpt>
      <trkpt lat="45.68059" lon="6.5979">
        <ele>1755.02</ele>
        <time>2012-06-16T06:31:40Z</time>
      </trkpt>
      <trkpt lat="45.68059" lon="6.59791">
        <ele>1755.02</ele>
        <time>2012-06-16T06:32:13Z</time>
      </trkpt>
      <trkpt lat="45.68059" lon="6.59788">
        <ele>1755.02</ele>
        <time>2012-06-16T06:32:47Z</time>
      </trkpt>
      <trkpt lat="45.68059" lon="6.5979">
        <ele>1755.02</ele>
        <time>2012-06-16T06:33:22Z</time>
      </trkpt>
      <trkpt lat="45.68059" lon="6.5979">
        <ele>1755.02</ele>
        <time>2012-06-16T06:33:44Z</time>
      </trkpt>
      <trkpt lat="45.68053" lon="6.59793">
        <ele>1755.02</ele>
        <time>2012-06-16T06:33:55Z</time>
      </trkpt>
      <trkpt lat="45.6805" lon="6.59792">
        <ele>1755.02</ele>
        <time>2012-06-16T06:33:58Z</time>
      </trkpt>
      <trkpt lat="45.6803" lon="6.59796">
        <ele>1755.02</ele>
        <time>2012-06-16T06:34:16Z</time>
      </trkpt>
      <trkpt lat="45.68027" lon="6.59795">
        <ele>1755.5</ele>
        <time>2012-06-16T06:34:19Z</time>
      </trkpt>
      <trkpt lat="45.68011" lon="6.59791">
        <ele>1757.43</ele>
        <time>2012-06-16T06:34:32Z</time>
      </trkpt>
      <trkpt lat="45.67998" lon="6.59788">
        <ele>1759.35</ele>
        <time>2012-06-16T06:34:45Z</time>
      </trkpt>
      <trkpt lat="45.67985" lon="6.59784">
        <ele>1761.27</ele>
        <time>2012-06-16T06:34:59Z</time>
      </trkpt>
      <trkpt lat="45.67966" lon="6.59778">
        <ele>1764.16</ele>
        <time>2012-06-16T06:35:17Z</time>
      </trkpt>
      <trkpt lat="45.67953" lon="6.59772">
        <ele>1765.12</ele>
        <time>2012-06-16T06:35:30Z</time>
      </trkpt>
      <trkpt lat="45.67935" lon="6.59761">
        <ele>1768.48</ele>
        <time>2012-06-16T06:35:48Z</time>
      </trkpt>
      <trkpt lat="45.6793" lon="6.59759">
        <ele>1768.96</ele>
        <time>2012-06-16T06:35:53Z</time>
      </trkpt>
      <trkpt lat="45.67925" lon="6.59758">
        <ele>1769.92</ele>
        <time>2012-06-16T06:35:57Z</time>
      </trkpt>
      <trkpt lat="45.67906" lon="6.5976">
        <ele>1771.85</ele>
        <time>2012-06-16T06:36:14Z</time>
      </trkpt>
      <trkpt lat="45.679" lon="6.5976">
        <ele>1772.81</ele>
        <time>2012-06-16T06:36:20Z</time>
      </trkpt>
      <trkpt lat="45.67894" lon="6.59758">
        <ele>1772.81</ele>
        <time>2012-06-16T06:36:25Z</time>
      </trkpt>
      <trkpt lat="45.67879" lon="6.59744">
        <ele>1775.21</ele>
        <time>2012-06-16T06:36:40Z</time>
      </trkpt>
      <trkpt lat="45.67876" lon="6.59738">
        <ele>1775.69</ele>
        <time>2012-06-16T06:36:45Z</time>
      </trkpt>
      <trkpt lat="45.67863" lon="6.59719">
        <ele>1777.61</ele>
        <time>2012-06-16T06:37:03Z</time>
      </trkpt>
      <trkpt lat="45.6786" lon="6.59717">
        <ele>1778.1</ele>
        <time>2012-06-16T06:37:07Z</time>
      </trkpt>
      <trkpt lat="45.67843" lon="6.59699">
        <ele>1780.98</ele>
        <time>2012-06-16T06:37:25Z</time>
      </trkpt>
      <trkpt lat="45.67827" lon="6.5969">
        <ele>1782.42</ele>
        <time>2012-06-16T06:37:38Z</time>
      </trkpt>
      <trkpt lat="45.67824" lon="6.59688">
        <ele>1783.38</ele>
        <time>2012-06-16T06:37:41Z</time>
      </trkpt>
      <trkpt lat="45.67816" lon="6.59683">
        <ele>1784.82</ele>
        <time>2012-06-16T06:37:50Z</time>
      </trkpt>
      <trkpt lat="45.67811" lon="6.5968">
        <ele>1785.31</ele>
        <time>2012-06-16T06:37:55Z</time>
      </trkpt>
      <trkpt lat="45.67808" lon="6.59679">
        <ele>1785.31</ele>
        <time>2012-06-16T06:37:58Z</time>
      </trkpt>
      <trkpt lat="45.67805" lon="6.59676">
        <ele>1785.79</ele>
        <time>2012-06-16T06:38:01Z</time>
      </trkpt>
      <trkpt lat="45.67791" lon="6.59667">
        <ele>1786.27</ele>
        <time>2012-06-16T06:38:16Z</time>
      </trkpt>
      <trkpt lat="45.67784" lon="6.59659">
        <ele>1786.75</ele>
        <time>2012-06-16T06:38:24Z</time>
      </trkpt>
      <trkpt lat="45.67779" lon="6.59656">
        <ele>1786.75</ele>
        <time>2012-06-16T06:38:28Z</time>
      </trkpt>
      <trkpt lat="45.67773" lon="6.59651">
        <ele>1786.75</ele>
        <time>2012-06-16T06:38:34Z</time>
      </trkpt>
      <trkpt lat="45.67772" lon="6.59649">
        <ele>1786.75</ele>
        <time>2012-06-16T06:38:48Z</time>
      </trkpt>
      <trkpt lat="45.67774" lon="6.59648">
        <ele>1786.75</ele>
        <time>2012-06-16T06:39:18Z</time>
      </trkpt>
      <trkpt lat="45.67774" lon="6.59648">
        <ele>1786.75</ele>
        <time>2012-06-16T06:39:45Z</time>
      </trkpt>
      <trkpt lat="45.67773" lon="6.5965">
        <ele>1787.23</ele>
        <time>2012-06-16T06:40:30Z</time>
      </trkpt>
      <trkpt lat="45.67772" lon="6.59648">
        <ele>1787.23</ele>
        <time>2012-06-16T06:41:06Z</time>
      </trkpt>
      <trkpt lat="45.67771" lon="6.59646">
        <ele>1787.23</ele>
        <time>2012-06-16T06:41:41Z</time>
      </trkpt>
      <trkpt lat="45.67772" lon="6.59646">
        <ele>1787.23</ele>
        <time>2012-06-16T06:42:15Z</time>
      </trkpt>
      <trkpt lat="45.67771" lon="6.59645">
        <ele>1787.23</ele>
        <time>2012-06-16T06:42:58Z</time>
      </trkpt>
      <trkpt lat="45.67772" lon="6.59645">
        <ele>1787.71</ele>
        <time>2012-06-16T06:43:20Z</time>
      </trkpt>
      <trkpt lat="45.6776" lon="6.59627">
        <ele>1787.71</ele>
        <time>2012-06-16T06:43:33Z</time>
      </trkpt>
      <trkpt lat="45.67742" lon="6.59593">
        <ele>1784.34</ele>
        <time>2012-06-16T06:43:52Z</time>
      </trkpt>
      <trkpt lat="45.67736" lon="6.59583">
        <ele>1780.5</ele>
        <time>2012-06-16T06:43:57Z</time>
      </trkpt>
      <trkpt lat="45.67727" lon="6.59575">
        <ele>1777.13</ele>
        <time>2012-06-16T06:44:01Z</time>
      </trkpt>
      <trkpt lat="45.67725" lon="6.59574">
        <ele>1777.13</ele>
        <time>2012-06-16T06:44:02Z</time>
      </trkpt>
      <trkpt lat="45.67708" lon="6.59555">
        <ele>1774.73</ele>
        <time>2012-06-16T06:44:16Z</time>
      </trkpt>
      <trkpt lat="45.67708" lon="6.59557">
        <ele>1773.77</ele>
        <time>2012-06-16T06:44:44Z</time>
      </trkpt>
      <trkpt lat="45.67709" lon="6.59555">
        <ele>1773.77</ele>
        <time>2012-06-16T06:45:16Z</time>
      </trkpt>
      <trkpt lat="45.67709" lon="6.59555">
        <ele>1773.29</ele>
        <time>2012-06-16T06:45:49Z</time>
      </trkpt>
      <trkpt lat="45.67702" lon="6.59546">
        <ele>1773.29</ele>
        <time>2012-06-16T06:46:11Z</time>
      </trkpt>
      <trkpt lat="45.67682" lon="6.59523">
        <ele>1769.92</ele>
        <time>2012-06-16T06:46:16Z</time>
      </trkpt>
      <trkpt lat="45.67672" lon="6.59513">
        <ele>1766.08</ele>
        <time>2012-06-16T06:46:19Z</time>
      </trkpt>
      <trkpt lat="45.67668" lon="6.59509">
        <ele>1765.12</ele>
        <time>2012-06-16T06:46:20Z</time>
      </trkpt>
      <trkpt lat="45.67654" lon="6.59496">
        <ele>1760.31</ele>
        <time>2012-06-16T06:46:24Z</time>
      </trkpt>
      <trkpt lat="45.67654" lon="6.59473">
        <ele>1759.83</ele>
        <time>2012-06-16T06:46:31Z</time>
      </trkpt>
      <trkpt lat="45.67649" lon="6.5945">
        <ele>1765.12</ele>
        <time>2012-06-16T06:46:39Z</time>
      </trkpt>
      <trkpt lat="45.6764" lon="6.59425">
        <ele>1765.12</ele>
        <time>2012-06-16T06:46:52Z</time>
      </trkpt>
      <trkpt lat="45.67639" lon="6.59397">
        <ele>1766.08</ele>
        <time>2012-06-16T06:47:06Z</time>
      </trkpt>
      <trkpt lat="45.67642" lon="6.59391">
        <ele>1767.04</ele>
        <time>2012-06-16T06:47:10Z</time>
      </trkpt>
      <trkpt lat="45.67639" lon="6.59395">
        <ele>1767.04</ele>
        <time>2012-06-16T06:47:20Z</time>
      </trkpt>
      <trkpt lat="45.67638" lon="6.59396">
        <ele>1767.04</ele>
        <time>2012-06-16T06:47:31Z</time>
      </trkpt>
      <trkpt lat="45.67638" lon="6.594">
        <ele>1767.52</ele>
        <time>2012-06-16T06:47:45Z</time>
      </trkpt>
      <trkpt lat="45.67638" lon="6.59402">
        <ele>1767.52</ele>
        <time>2012-06-16T06:48:08Z</time>
      </trkpt>
      <trkpt lat="45.67636" lon="6.59402">
        <ele>1767.52</ele>
        <time>2012-06-16T06:48:54Z</time>
      </trkpt>
      <trkpt lat="45.67636" lon="6.59402">
        <ele>1768</ele>
        <time>2012-06-16T06:49:44Z</time>
      </trkpt>
      <trkpt lat="45.67636" lon="6.59402">
        <ele>1768</ele>
        <time>2012-06-16T06:50:29Z</time>
      </trkpt>
      <trkpt lat="45.67636" lon="6.59402">
        <ele>1768</ele>
        <time>2012-06-16T06:51:09Z</time>
      </trkpt>
      <trkpt lat="45.67636" lon="6.59403">
        <ele>1768</ele>
        <time>2012-06-16T06:51:52Z</time>
      </trkpt>
      <trkpt lat="45.67635" lon="6.59404">
        <ele>1768</ele>
        <time>2012-06-16T06:52:21Z</time>
      </trkpt>
      <trkpt lat="45.67635" lon="6.59405">
        <ele>1768</ele>
        <time>2012-06-16T06:52:39Z</time>
      </trkpt>
      <trkpt lat="45.67635" lon="6.59408">
        <ele>1768</ele>
        <time>2012-06-16T06:53:02Z</time>
      </trkpt>
      <trkpt lat="45.67635" lon="6.59408">
        <ele>1768.48</ele>
        <time>2012-06-16T06:53:07Z</time>
      </trkpt>
      <trkpt lat="45.67625" lon="6.59414">
        <ele>1768.48</ele>
        <time>2012-06-16T06:53:17Z</time>
      </trkpt>
      <trkpt lat="45.67612" lon="6.59427">
        <ele>1768.48</ele>
        <time>2012-06-16T06:53:24Z</time>
      </trkpt>
      <trkpt lat="45.67599" lon="6.59437">
        <ele>1767.04</ele>
        <time>2012-06-16T06:53:29Z</time>
      </trkpt>
      <trkpt lat="45.67584" lon="6.59431">
        <ele>1767.04</ele>
        <time>2012-06-16T06:53:33Z</time>
      </trkpt>
      <trkpt lat="45.67569" lon="6.59427">
        <ele>1766.08</ele>
        <time>2012-06-16T06:53:39Z</time>
      </trkpt>
      <trkpt lat="45.67543" lon="6.59417">
        <ele>1765.6</ele>
        <time>2012-06-16T06:53:47Z</time>
      </trkpt>
      <trkpt lat="45.67536" lon="6.59413">
        <ele>1765.12</ele>
        <time>2012-06-16T06:53:49Z</time>
      </trkpt>
      <trkpt lat="45.67522" lon="6.59406">
        <ele>1762.23</ele>
        <time>2012-06-16T06:53:53Z</time>
      </trkpt>
      <trkpt lat="45.67493" lon="6.59385">
        <ele>1760.31</ele>
        <time>2012-06-16T06:54:05Z</time>
      </trkpt>
      <trkpt lat="45.67493" lon="6.59386">
        <ele>1760.31</ele>
        <time>2012-06-16T06:54:24Z</time>
      </trkpt>
      <trkpt lat="45.67485" lon="6.59376">
        <ele>1759.83</ele>
        <time>2012-06-16T06:54:28Z</time>
      </trkpt>
      <trkpt lat="45.67473" lon="6.59372">
        <ele>1758.39</ele>
        <time>2012-06-16T06:54:31Z</time>
      </trkpt>
      <trkpt lat="45.67457" lon="6.59366">
        <ele>1754.06</ele>
        <time>2012-06-16T06:54:35Z</time>
      </trkpt>
      <trkpt lat="45.67454" lon="6.59365">
        <ele>1753.1</ele>
        <time>2012-06-16T06:54:36Z</time>
      </trkpt>
      <trkpt lat="45.67436" lon="6.59367">
        <ele>1750.7</ele>
        <time>2012-06-16T06:54:45Z</time>
      </trkpt>
      <trkpt lat="45.67432" lon="6.59367">
        <ele>1750.7</ele>
        <time>2012-06-16T06:54:54Z</time>
      </trkpt>
      <trkpt lat="45.67428" lon="6.5936">
        <ele>1750.7</ele>
        <time>2012-06-16T06:55:05Z</time>
      </trkpt>
      <trkpt lat="45.67425" lon="6.59355">
        <ele>1748.78</ele>
        <time>2012-06-16T06:55:17Z</time>
      </trkpt>
      <trkpt lat="45.67422" lon="6.59351">
        <ele>1746.85</ele>
        <time>2012-06-16T06:55:29Z</time>
      </trkpt>
      <trkpt lat="45.67415" lon="6.59344">
        <ele>1746.37</ele>
        <time>2012-06-16T06:55:34Z</time>
      </trkpt>
      <trkpt lat="45.67405" lon="6.59334">
        <ele>1745.41</ele>
        <time>2012-06-16T06:55:43Z</time>
      </trkpt>
      <trkpt lat="45.67405" lon="6.59334">
        <ele>1745.41</ele>
        <time>2012-06-16T06:55:44Z</time>
      </trkpt>
      <trkpt lat="45.67402" lon="6.59327">
        <ele>1744.93</ele>
        <time>2012-06-16T06:55:49Z</time>
      </trkpt>
      <trkpt lat="45.67394" lon="6.59317">
        <ele>1744.93</ele>
        <time>2012-06-16T06:56:00Z</time>
      </trkpt>
      <trkpt lat="45.6739" lon="6.59312">
        <ele>1744.93</ele>
        <time>2012-06-16T06:56:02Z</time>
      </trkpt>
      <trkpt lat="45.6738" lon="6.59299">
        <ele>1743.97</ele>
        <time>2012-06-16T06:56:09Z</time>
      </trkpt>
      <trkpt lat="45.67377" lon="6.59291">
        <ele>1743.97</ele>
        <time>2012-06-16T06:56:23Z</time>
      </trkpt>
      <trkpt lat="45.67374" lon="6.59283">
        <ele>1744.93</ele>
        <time>2012-06-16T06:56:35Z</time>
      </trkpt>
      <trkpt lat="45.67368" lon="6.59271">
        <ele>1744.93</ele>
        <time>2012-06-16T06:56:45Z</time>
      </trkpt>
      <trkpt lat="45.67364" lon="6.59264">
        <ele>1746.37</ele>
        <time>2012-06-16T06:56:59Z</time>
      </trkpt>
      <trkpt lat="45.67361" lon="6.5926">
        <ele>1747.33</ele>
        <time>2012-06-16T06:57:11Z</time>
      </trkpt>
      <trkpt lat="45.67359" lon="6.59259">
        <ele>1749.74</ele>
        <time>2012-06-16T06:57:23Z</time>
      </trkpt>
      <trkpt lat="45.67352" lon="6.5925">
        <ele>1750.22</ele>
        <time>2012-06-16T06:57:35Z</time>
      </trkpt>
      <trkpt lat="45.67342" lon="6.59229">
        <ele>1750.22</ele>
        <time>2012-06-16T06:57:42Z</time>
      </trkpt>
      <trkpt lat="45.67339" lon="6.59219">
        <ele>1750.22</ele>
        <time>2012-06-16T06:57:54Z</time>
      </trkpt>
      <trkpt lat="45.67335" lon="6.59204">
        <ele>1751.66</ele>
        <time>2012-06-16T06:58:10Z</time>
      </trkpt>
      <trkpt lat="45.67335" lon="6.59204">
        <ele>1752.14</ele>
        <time>2012-06-16T06:58:28Z</time>
      </trkpt>
      <trkpt lat="45.67334" lon="6.59203">
        <ele>1752.14</ele>
        <time>2012-06-16T06:58:40Z</time>
      </trkpt>
      <trkpt lat="45.6732" lon="6.59187">
        <ele>1752.14</ele>
        <time>2012-06-16T06:58:50Z</time>
      </trkpt>
      <trkpt lat="45.67308" lon="6.59179">
        <ele>1751.18</ele>
        <time>2012-06-16T06:58:57Z</time>
      </trkpt>
      <trkpt lat="45.67302" lon="6.59168">
        <ele>1751.18</ele>
        <time>2012-06-16T06:59:11Z</time>
      </trkpt>
      <trkpt lat="45.67298" lon="6.59154">
        <ele>1752.14</ele>
        <time>2012-06-16T06:59:24Z</time>
      </trkpt>
      <trkpt lat="45.67293" lon="6.59141">
        <ele>1754.06</ele>
        <time>2012-06-16T06:59:39Z</time>
      </trkpt>
      <trkpt lat="45.6729" lon="6.59139">
        <ele>1754.54</ele>
        <time>2012-06-16T06:59:44Z</time>
      </trkpt>
      <trkpt lat="45.6728" lon="6.59132">
        <ele>1754.54</ele>
        <time>2012-06-16T06:59:57Z</time>
      </trkpt>
      <trkpt lat="45.67279" lon="6.59131">
        <ele>1754.54</ele>
        <time>2012-06-16T07:00:01Z</time>
      </trkpt>
      <trkpt lat="45.67273" lon="6.59128">
        <ele>1754.54</ele>
        <time>2012-06-16T07:00:05Z</time>
      </trkpt>
      <trkpt lat="45.6726" lon="6.59116">
        <ele>1754.54</ele>
        <time>2012-06-16T07:00:16Z</time>
      </trkpt>
      <trkpt lat="45.67249" lon="6.5911">
        <ele>1754.54</ele>
        <time>2012-06-16T07:00:26Z</time>
      </trkpt>
      <trkpt lat="45.67244" lon="6.59107">
        <ele>1754.54</ele>
        <time>2012-06-16T07:00:39Z</time>
      </trkpt>
      <trkpt lat="45.67241" lon="6.59108">
        <ele>1754.54</ele>
        <time>2012-06-16T07:01:10Z</time>
      </trkpt>
      <trkpt lat="45.67235" lon="6.59101">
        <ele>1754.54</ele>
        <time>2012-06-16T07:01:19Z</time>
      </trkpt>
      <trkpt lat="45.67233" lon="6.59101">
        <ele>1754.54</ele>
        <time>2012-06-16T07:01:20Z</time>
      </trkpt>
      <trkpt lat="45.6723" lon="6.591">
        <ele>1754.54</ele>
        <time>2012-06-16T07:01:36Z</time>
      </trkpt>
      <trkpt lat="45.6723" lon="6.591">
        <ele>1754.54</ele>
        <time>2012-06-16T07:02:10Z</time>
      </trkpt>
      <trkpt lat="45.67219" lon="6.59095">
        <ele>1754.54</ele>
        <time>2012-06-16T07:02:20Z</time>
      </trkpt>
      <trkpt lat="45.67213" lon="6.59092">
        <ele>1754.54</ele>
        <time>2012-06-16T07:02:24Z</time>
      </trkpt>
      <trkpt lat="45.67198" lon="6.59083">
        <ele>1753.1</ele>
        <time>2012-06-16T07:02:35Z</time>
      </trkpt>
      <trkpt lat="45.6719" lon="6.59079">
        <ele>1752.14</ele>
        <time>2012-06-16T07:02:48Z</time>
      </trkpt>
      <trkpt lat="45.67187" lon="6.5908">
        <ele>1751.18</ele>
        <time>2012-06-16T07:02:53Z</time>
      </trkpt>
      <trkpt lat="45.67185" lon="6.59081">
        <ele>1751.18</ele>
        <time>2012-06-16T07:02:56Z</time>
      </trkpt>
      <trkpt lat="45.67172" lon="6.59076">
        <ele>1751.18</ele>
        <time>2012-06-16T07:03:01Z</time>
      </trkpt>
      <trkpt lat="45.6716" lon="6.59071">
        <ele>1750.7</ele>
        <time>2012-06-16T07:03:04Z</time>
      </trkpt>
      <trkpt lat="45.67147" lon="6.59065">
        <ele>1750.22</ele>
        <time>2012-06-16T07:03:10Z</time>
      </trkpt>
      <trkpt lat="45.67143" lon="6.59057">
        <ele>1749.74</ele>
        <time>2012-06-16T07:03:15Z</time>
      </trkpt>
      <trkpt lat="45.67137" lon="6.59043">
        <ele>1749.26</ele>
        <time>2012-06-16T07:03:28Z</time>
      </trkpt>
      <trkpt lat="45.67136" lon="6.59044">
        <ele>1748.78</ele>
        <time>2012-06-16T07:03:51Z</time>
      </trkpt>
      <trkpt lat="45.67137" lon="6.59044">
        <ele>1748.78</ele>
        <time>2012-06-16T07:04:09Z</time>
      </trkpt>
      <trkpt lat="45.67121" lon="6.59036">
        <ele>1748.78</ele>
        <time>2012-06-16T07:04:16Z</time>
      </trkpt>
      <trkpt lat="45.67112" lon="6.59034">
        <ele>1748.29</ele>
        <time>2012-06-16T07:04:18Z</time>
      </trkpt>
      <trkpt lat="45.67095" lon="6.59035">
        <ele>1746.85</ele>
        <time>2012-06-16T07:04:22Z</time>
      </trkpt>
      <trkpt lat="45.6709" lon="6.5903">
        <ele>1743.49</ele>
        <time>2012-06-16T07:04:26Z</time>
      </trkpt>
      <trkpt lat="45.6709" lon="6.59031">
        <ele>1743.01</ele>
        <time>2012-06-16T07:04:43Z</time>
      </trkpt>
      <trkpt lat="45.67079" lon="6.59023">
        <ele>1743.49</ele>
        <time>2012-06-16T07:04:48Z</time>
      </trkpt>
      <trkpt lat="45.6707" lon="6.59011">
        <ele>1743.49</ele>
        <time>2012-06-16T07:04:51Z</time>
      </trkpt>
      <trkpt lat="45.67051" lon="6.58997">
        <ele>1742.05</ele>
        <time>2012-06-16T07:04:56Z</time>
      </trkpt>
      <trkpt lat="45.67037" lon="6.59">
        <ele>1738.68</ele>
        <time>2012-06-16T07:04:59Z</time>
      </trkpt>
      <trkpt lat="45.67021" lon="6.59009">
        <ele>1733.88</ele>
        <time>2012-06-16T07:05:02Z</time>
      </trkpt>
      <trkpt lat="45.67015" lon="6.59012">
        <ele>1732.43</ele>
        <time>2012-06-16T07:05:03Z</time>
      </trkpt>
      <trkpt lat="45.67" lon="6.59012">
        <ele>1730.51</ele>
        <time>2012-06-16T07:05:07Z</time>
      </trkpt>
      <trkpt lat="45.66993" lon="6.59">
        <ele>1733.88</ele>
        <time>2012-06-16T07:05:12Z</time>
      </trkpt>
      <trkpt lat="45.6699" lon="6.58992">
        <ele>1737.24</ele>
        <time>2012-06-16T07:05:15Z</time>
      </trkpt>
      <trkpt lat="45.66972" lon="6.58954">
        <ele>1733.88</ele>
        <time>2012-06-16T07:05:28Z</time>
      </trkpt>
      <trkpt lat="45.6694" lon="6.58943">
        <ele>1731.47</ele>
        <time>2012-06-16T07:05:35Z</time>
      </trkpt>
      <trkpt lat="45.66939" lon="6.58936">
        <ele>1730.51</ele>
        <time>2012-06-16T07:05:37Z</time>
      </trkpt>
      <trkpt lat="45.66934" lon="6.58922">
        <ele>1731.95</ele>
        <time>2012-06-16T07:05:42Z</time>
      </trkpt>
      <trkpt lat="45.66931" lon="6.58918">
        <ele>1733.39</ele>
        <time>2012-06-16T07:05:53Z</time>
      </trkpt>
      <trkpt lat="45.66931" lon="6.58918">
        <ele>1733.39</ele>
        <time>2012-06-16T07:05:54Z</time>
      </trkpt>
      <trkpt lat="45.66923" lon="6.58918">
        <ele>1733.88</ele>
        <time>2012-06-16T07:06:00Z</time>
      </trkpt>
      <trkpt lat="45.66904" lon="6.58891">
        <ele>1737.24</ele>
        <time>2012-06-16T07:06:15Z</time>
      </trkpt>
      <trkpt lat="45.66899" lon="6.58884">
        <ele>1740.12</ele>
        <time>2012-06-16T07:06:19Z</time>
      </trkpt>
      <trkpt lat="45.66893" lon="6.58877">
        <ele>1743.49</ele>
        <time>2012-06-16T07:06:25Z</time>
      </trkpt>
      <trkpt lat="45.66872" lon="6.58872">
        <ele>1743.49</ele>
        <time>2012-06-16T07:06:43Z</time>
      </trkpt>
      <trkpt lat="45.66871" lon="6.58873">
        <ele>1743.49</ele>
        <time>2012-06-16T07:07:09Z</time>
      </trkpt>
      <trkpt lat="45.66871" lon="6.58873">
        <ele>1743.49</ele>
        <time>2012-06-16T07:07:27Z</time>
      </trkpt>
      <trkpt lat="45.66859" lon="6.58881">
        <ele>1743.97</ele>
        <time>2012-06-16T07:07:38Z</time>
      </trkpt>
      <trkpt lat="45.66848" lon="6.58884">
        <ele>1745.89</ele>
        <time>2012-06-16T07:07:48Z</time>
      </trkpt>
      <trkpt lat="45.66836" lon="6.58879">
        <ele>1747.81</ele>
        <time>2012-06-16T07:08:00Z</time>
      </trkpt>
      <trkpt lat="45.66821" lon="6.58861">
        <ele>1750.7</ele>
        <time>2012-06-16T07:08:17Z</time>
      </trkpt>
      <trkpt lat="45.66807" lon="6.5885">
        <ele>1754.06</ele>
        <time>2012-06-16T07:08:28Z</time>
      </trkpt>
      <trkpt lat="45.66802" lon="6.58852">
        <ele>1757.91</ele>
        <time>2012-06-16T07:08:32Z</time>
      </trkpt>
      <trkpt lat="45.66801" lon="6.58853">
        <ele>1758.87</ele>
        <time>2012-06-16T07:08:33Z</time>
      </trkpt>
      <trkpt lat="45.66788" lon="6.58866">
        <ele>1760.31</ele>
        <time>2012-06-16T07:08:49Z</time>
      </trkpt>
      <trkpt lat="45.66785" lon="6.58866">
        <ele>1760.79</ele>
        <time>2012-06-16T07:09:10Z</time>
      </trkpt>
      <trkpt lat="45.66783" lon="6.58866">
        <ele>1761.27</ele>
        <time>2012-06-16T07:09:13Z</time>
      </trkpt>
      <trkpt lat="45.66779" lon="6.58859">
        <ele>1763.2</ele>
        <time>2012-06-16T07:09:28Z</time>
      </trkpt>
      <trkpt lat="45.6678" lon="6.58859">
        <ele>1763.2</ele>
        <time>2012-06-16T07:09:57Z</time>
      </trkpt>
      <trkpt lat="45.66773" lon="6.58855">
        <ele>1764.64</ele>
        <time>2012-06-16T07:10:09Z</time>
      </trkpt>
      <trkpt lat="45.66761" lon="6.58854">
        <ele>1767.04</ele>
        <time>2012-06-16T07:10:25Z</time>
      </trkpt>
      <trkpt lat="45.66751" lon="6.58859">
        <ele>1769.92</ele>
        <time>2012-06-16T07:10:41Z</time>
      </trkpt>
      <trkpt lat="45.66745" lon="6.58861">
        <ele>1771.85</ele>
        <time>2012-06-16T07:10:56Z</time>
      </trkpt>
      <trkpt lat="45.66733" lon="6.58862">
        <ele>1773.77</ele>
        <time>2012-06-16T07:11:12Z</time>
      </trkpt>
      <trkpt lat="45.6672" lon="6.58865">
        <ele>1776.65</ele>
        <time>2012-06-16T07:11:29Z</time>
      </trkpt>
      <trkpt lat="45.66709" lon="6.58869">
        <ele>1779.54</ele>
        <time>2012-06-16T07:11:46Z</time>
      </trkpt>
      <trkpt lat="45.66704" lon="6.5887">
        <ele>1781.46</ele>
        <time>2012-06-16T07:12:02Z</time>
      </trkpt>
      <trkpt lat="45.66694" lon="6.58875">
        <ele>1782.9</ele>
        <time>2012-06-16T07:12:17Z</time>
      </trkpt>
      <trkpt lat="45.66692" lon="6.58874">
        <ele>1785.31</ele>
        <time>2012-06-16T07:12:34Z</time>
      </trkpt>
      <trkpt lat="45.66691" lon="6.58875">
        <ele>1785.79</ele>
        <time>2012-06-16T07:13:01Z</time>
      </trkpt>
      <trkpt lat="45.66691" lon="6.58875">
        <ele>1785.79</ele>
        <time>2012-06-16T07:13:23Z</time>
      </trkpt>
      <trkpt lat="45.66692" lon="6.58874">
        <ele>1785.79</ele>
        <time>2012-06-16T07:14:04Z</time>
      </trkpt>
      <trkpt lat="45.66692" lon="6.58874">
        <ele>1786.27</ele>
        <time>2012-06-16T07:14:20Z</time>
      </trkpt>
      <trkpt lat="45.66692" lon="6.58874">
        <ele>1786.27</ele>
        <time>2012-06-16T07:14:50Z</time>
      </trkpt>
      <trkpt lat="45.66692" lon="6.58876">
        <ele>1786.27</ele>
        <time>2012-06-16T07:15:30Z</time>
      </trkpt>
      <trkpt lat="45.66692" lon="6.58876">
        <ele>1786.27</ele>
        <time>2012-06-16T07:15:56Z</time>
      </trkpt>
      <trkpt lat="45.66692" lon="6.58873">
        <ele>1785.79</ele>
        <time>2012-06-16T07:16:35Z</time>
      </trkpt>
      <trkpt lat="45.6669" lon="6.58876">
        <ele>1786.27</ele>
        <time>2012-06-16T07:17:10Z</time>
      </trkpt>
      <trkpt lat="45.66691" lon="6.58875">
        <ele>1786.27</ele>
        <time>2012-06-16T07:17:36Z</time>
      </trkpt>
      <trkpt lat="45.66692" lon="6.58875">
        <ele>1786.27</ele>
        <time>2012-06-16T07:18:07Z</time>
      </trkpt>
      <trkpt lat="45.66691" lon="6.58876">
        <ele>1786.27</ele>
        <time>2012-06-16T07:18:36Z</time>
      </trkpt>
      <trkpt lat="45.66691" lon="6.58875">
        <ele>1786.27</ele>
        <time>2012-06-16T07:19:05Z</time>
      </trkpt>
      <trkpt lat="45.66691" lon="6.58874">
        <ele>1786.27</ele>
        <time>2012-06-16T07:19:34Z</time>
      </trkpt>
      <trkpt lat="45.66691" lon="6.58875">
        <ele>1786.27</ele>
        <time>2012-06-16T07:20:07Z</time>
      </trkpt>
      <trkpt lat="45.66692" lon="6.58875">
        <ele>1786.27</ele>
        <time>2012-06-16T07:20:43Z</time>
      </trkpt>
      <trkpt lat="45.66692" lon="6.58875">
        <ele>1786.27</ele>
        <time>2012-06-16T07:21:13Z</time>
      </trkpt>
      <trkpt lat="45.66691" lon="6.58876">
        <ele>1786.27</ele>
        <time>2012-06-16T07:21:32Z</time>
      </trkpt>
      <trkpt lat="45.66692" lon="6.58875">
        <ele>1786.27</ele>
        <time>2012-06-16T07:22:22Z</time>
      </trkpt>
      <trkpt lat="45.66691" lon="6.58875">
        <ele>1786.75</ele>
        <time>2012-06-16T07:22:59Z</time>
      </trkpt>
      <trkpt lat="45.66691" lon="6.58875">
        <ele>1786.75</ele>
        <time>2012-06-16T07:23:37Z</time>
      </trkpt>
      <trkpt lat="45.66691" lon="6.58875">
        <ele>1786.75</ele>
        <time>2012-06-16T07:24:14Z</time>
      </trkpt>
      <trkpt lat="45.66691" lon="6.58875">
        <ele>1786.75</ele>
        <time>2012-06-16T07:24:39Z</time>
      </trkpt>
      <trkpt lat="45.66692" lon="6.58874">
        <ele>1786.75</ele>
        <time>2012-06-16T07:24:51Z</time>
      </trkpt>
      <trkpt lat="45.66693" lon="6.58874">
        <ele>1786.75</ele>
        <time>2012-06-16T07:24:55Z</time>
      </trkpt>
      <trkpt lat="45.66704" lon="6.5887">
        <ele>1785.79</ele>
        <time>2012-06-16T07:25:06Z</time>
      </trkpt>
      <trkpt lat="45.66712" lon="6.58867">
        <ele>1784.34</ele>
        <time>2012-06-16T07:25:22Z</time>
      </trkpt>
      <trkpt lat="45.6673" lon="6.58864">
        <ele>1780.5</ele>
        <time>2012-06-16T07:25:27Z</time>
      </trkpt>
      <trkpt lat="45.66742" lon="6.58863">
        <ele>1777.13</ele>
        <time>2012-06-16T07:25:30Z</time>
      </trkpt>
      <trkpt lat="45.66749" lon="6.58861">
        <ele>1773.77</ele>
        <time>2012-06-16T07:25:32Z</time>
      </trkpt>
      <trkpt lat="45.66758" lon="6.58856">
        <ele>1769.92</ele>
        <time>2012-06-16T07:25:35Z</time>
      </trkpt>
      <trkpt lat="45.66768" lon="6.58854">
        <ele>1766.56</ele>
        <time>2012-06-16T07:25:38Z</time>
      </trkpt>
      <trkpt lat="45.66771" lon="6.58855">
        <ele>1766.08</ele>
        <time>2012-06-16T07:25:39Z</time>
      </trkpt>
      <trkpt lat="45.6678" lon="6.58864">
        <ele>1764.16</ele>
        <time>2012-06-16T07:25:42Z</time>
      </trkpt>
      <trkpt lat="45.66793" lon="6.58862">
        <ele>1761.27</ele>
        <time>2012-06-16T07:25:46Z</time>
      </trkpt>
      <trkpt lat="45.66812" lon="6.58853">
        <ele>1756.95</ele>
        <time>2012-06-16T07:25:52Z</time>
      </trkpt>
      <trkpt lat="45.66824" lon="6.58868">
        <ele>1753.1</ele>
        <time>2012-06-16T07:25:56Z</time>
      </trkpt>
      <trkpt lat="45.66828" lon="6.58872">
        <ele>1752.62</ele>
        <time>2012-06-16T07:25:57Z</time>
      </trkpt>
      <trkpt lat="45.66856" lon="6.58884">
        <ele>1747.33</ele>
        <time>2012-06-16T07:26:03Z</time>
      </trkpt>
      <trkpt lat="45.66874" lon="6.58873">
        <ele>1744.45</ele>
        <time>2012-06-16T07:26:07Z</time>
      </trkpt>
      <trkpt lat="45.66899" lon="6.58887">
        <ele>1741.08</ele>
        <time>2012-06-16T07:26:12Z</time>
      </trkpt>
      <trkpt lat="45.66907" lon="6.58899">
        <ele>1740.12</ele>
        <time>2012-06-16T07:26:14Z</time>
      </trkpt>
      <trkpt lat="45.66914" lon="6.58911">
        <ele>1740.12</ele>
        <time>2012-06-16T07:26:16Z</time>
      </trkpt>
      <trkpt lat="45.66934" lon="6.5891">
        <ele>1734.84</ele>
        <time>2012-06-16T07:26:22Z</time>
      </trkpt>
      <trkpt lat="45.66941" lon="6.58887">
        <ele>1731.47</ele>
        <time>2012-06-16T07:26:26Z</time>
      </trkpt>
      <trkpt lat="45.66945" lon="6.5887">
        <ele>1728.11</ele>
        <time>2012-06-16T07:26:29Z</time>
      </trkpt>
      <trkpt lat="45.66944" lon="6.58855">
        <ele>1725.7</ele>
        <time>2012-06-16T07:26:31Z</time>
      </trkpt>
      <trkpt lat="45.66947" lon="6.58822">
        <ele>1718.97</ele>
        <time>2012-06-16T07:26:35Z</time>
      </trkpt>
      <trkpt lat="45.66946" lon="6.58802">
        <ele>1715.61</ele>
        <time>2012-06-16T07:26:39Z</time>
      </trkpt>
      <trkpt lat="45.66947" lon="6.58802">
        <ele>1719.46</ele>
        <time>2012-06-16T07:26:48Z</time>
      </trkpt>
      <trkpt lat="45.66946" lon="6.58803">
        <ele>1720.9</ele>
        <time>2012-06-16T07:26:59Z</time>
      </trkpt>
      <trkpt lat="45.66945" lon="6.58802">
        <ele>1719.46</ele>
        <time>2012-06-16T07:27:09Z</time>
      </trkpt>
      <trkpt lat="45.6694" lon="6.5879">
        <ele>1717.53</ele>
        <time>2012-06-16T07:27:24Z</time>
      </trkpt>
      <trkpt lat="45.6694" lon="6.5879">
        <ele>1717.05</ele>
        <time>2012-06-16T07:27:30Z</time>
      </trkpt>
      <trkpt lat="45.66934" lon="6.58785">
        <ele>1716.09</ele>
        <time>2012-06-16T07:27:34Z</time>
      </trkpt>
      <trkpt lat="45.66918" lon="6.58772">
        <ele>1712.25</ele>
        <time>2012-06-16T07:27:40Z</time>
      </trkpt>
      <trkpt lat="45.6691" lon="6.58763">
        <ele>1707.92</ele>
        <time>2012-06-16T07:27:43Z</time>
      </trkpt>
      <trkpt lat="45.66903" lon="6.58751">
        <ele>1703.59</ele>
        <time>2012-06-16T07:27:46Z</time>
      </trkpt>
      <trkpt lat="45.66897" lon="6.5874">
        <ele>1702.15</ele>
        <time>2012-06-16T07:27:49Z</time>
      </trkpt>
      <trkpt lat="45.66879" lon="6.58721">
        <ele>1702.63</ele>
        <time>2012-06-16T07:27:59Z</time>
      </trkpt>
      <trkpt lat="45.6688" lon="6.5872">
        <ele>1703.59</ele>
        <time>2012-06-16T07:28:20Z</time>
      </trkpt>
      <trkpt lat="45.66877" lon="6.58718">
        <ele>1703.59</ele>
        <time>2012-06-16T07:28:43Z</time>
      </trkpt>
      <trkpt lat="45.66861" lon="6.58705">
        <ele>1703.59</ele>
        <time>2012-06-16T07:28:48Z</time>
      </trkpt>
      <trkpt lat="45.66851" lon="6.58695">
        <ele>1697.83</ele>
        <time>2012-06-16T07:28:51Z</time>
      </trkpt>
      <trkpt lat="45.66841" lon="6.58686">
        <ele>1693.02</ele>
        <time>2012-06-16T07:28:54Z</time>
      </trkpt>
      <trkpt lat="45.66836" lon="6.58678">
        <ele>1689.17</ele>
        <time>2012-06-16T07:28:57Z</time>
      </trkpt>
      <trkpt lat="45.66828" lon="6.58666">
        <ele>1687.25</ele>
        <time>2012-06-16T07:29:01Z</time>
      </trkpt>
      <trkpt lat="45.66803" lon="6.58633">
        <ele>1684.37</ele>
        <time>2012-06-16T07:29:07Z</time>
      </trkpt>
      <trkpt lat="45.66788" lon="6.58612">
        <ele>1679.56</ele>
        <time>2012-06-16T07:29:10Z</time>
      </trkpt>
      <trkpt lat="45.66777" lon="6.586">
        <ele>1676.2</ele>
        <time>2012-06-16T07:29:12Z</time>
      </trkpt>
      <trkpt lat="45.66771" lon="6.58594">
        <ele>1674.75</ele>
        <time>2012-06-16T07:29:13Z</time>
      </trkpt>
      <trkpt lat="45.66751" lon="6.5858">
        <ele>1671.39</ele>
        <time>2012-06-16T07:29:16Z</time>
      </trkpt>
      <trkpt lat="45.66721" lon="6.58569">
        <ele>1669.95</ele>
        <time>2012-06-16T07:29:21Z</time>
      </trkpt>
      <trkpt lat="45.66694" lon="6.58544">
        <ele>1669.95</ele>
        <time>2012-06-16T07:29:28Z</time>
      </trkpt>
      <trkpt lat="45.66677" lon="6.58524">
        <ele>1669.95</ele>
        <time>2012-06-16T07:29:32Z</time>
      </trkpt>
      <trkpt lat="45.66671" lon="6.58512">
        <ele>1668.99</ele>
        <time>2012-06-16T07:29:34Z</time>
      </trkpt>
      <trkpt lat="45.66662" lon="6.58499">
        <ele>1664.66</ele>
        <time>2012-06-16T07:29:39Z</time>
      </trkpt>
      <trkpt lat="45.66661" lon="6.58499">
        <ele>1663.7</ele>
        <time>2012-06-16T07:29:50Z</time>
      </trkpt>
      <trkpt lat="45.66661" lon="6.58498">
        <ele>1664.18</ele>
        <time>2012-06-16T07:29:56Z</time>
      </trkpt>
      <trkpt lat="45.66659" lon="6.58495">
        <ele>1664.18</ele>
        <time>2012-06-16T07:30:03Z</time>
      </trkpt>
      <trkpt lat="45.66659" lon="6.58494">
        <ele>1663.7</ele>
        <time>2012-06-16T07:30:13Z</time>
      </trkpt>
      <trkpt lat="45.66655" lon="6.58492">
        <ele>1663.7</ele>
        <time>2012-06-16T07:30:24Z</time>
      </trkpt>
      <trkpt lat="45.66655" lon="6.58492">
        <ele>1663.7</ele>
        <time>2012-06-16T07:30:39Z</time>
      </trkpt>
      <trkpt lat="45.66656" lon="6.5849">
        <ele>1663.7</ele>
        <time>2012-06-16T07:30:57Z</time>
      </trkpt>
      <trkpt lat="45.66658" lon="6.58488">
        <ele>1663.7</ele>
        <time>2012-06-16T07:31:16Z</time>
      </trkpt>
      <trkpt lat="45.66658" lon="6.58487">
        <ele>1663.7</ele>
        <time>2012-06-16T07:31:29Z</time>
      </trkpt>
      <trkpt lat="45.66653" lon="6.58487">
        <ele>1663.7</ele>
        <time>2012-06-16T07:31:39Z</time>
      </trkpt>
      <trkpt lat="45.66646" lon="6.58486">
        <ele>1663.7</ele>
        <time>2012-06-16T07:32:00Z</time>
      </trkpt>
      <trkpt lat="45.66643" lon="6.58485">
        <ele>1663.7</ele>
        <time>2012-06-16T07:32:03Z</time>
      </trkpt>
      <trkpt lat="45.66631" lon="6.58479">
        <ele>1664.18</ele>
        <time>2012-06-16T07:32:17Z</time>
      </trkpt>
      <trkpt lat="45.66621" lon="6.58473">
        <ele>1664.66</ele>
        <time>2012-06-16T07:32:29Z</time>
      </trkpt>
      <trkpt lat="45.66608" lon="6.5847">
        <ele>1665.62</ele>
        <time>2012-06-16T07:32:40Z</time>
      </trkpt>
      <trkpt lat="45.66596" lon="6.5847">
        <ele>1666.1</ele>
        <time>2012-06-16T07:32:49Z</time>
      </trkpt>
      <trkpt lat="45.66585" lon="6.58472">
        <ele>1667.06</ele>
        <time>2012-06-16T07:32:57Z</time>
      </trkpt>
      <trkpt lat="45.66561" lon="6.58484">
        <ele>1668.99</ele>
        <time>2012-06-16T07:33:15Z</time>
      </trkpt>
      <trkpt lat="45.66539" lon="6.58489">
        <ele>1669.95</ele>
        <time>2012-06-16T07:33:31Z</time>
      </trkpt>
      <trkpt lat="45.66517" lon="6.58483">
        <ele>1671.87</ele>
        <time>2012-06-16T07:33:46Z</time>
      </trkpt>
      <trkpt lat="45.6651" lon="6.58477">
        <ele>1672.35</ele>
        <time>2012-06-16T07:33:52Z</time>
      </trkpt>
      <trkpt lat="45.66507" lon="6.58474">
        <ele>1672.83</ele>
        <time>2012-06-16T07:33:56Z</time>
      </trkpt>
      <trkpt lat="45.66505" lon="6.58471">
        <ele>1673.31</ele>
        <time>2012-06-16T07:33:59Z</time>
      </trkpt>
      <trkpt lat="45.66499" lon="6.58463">
        <ele>1674.27</ele>
        <time>2012-06-16T07:34:06Z</time>
      </trkpt>
      <trkpt lat="45.66483" lon="6.58457">
        <ele>1675.72</ele>
        <time>2012-06-16T07:34:20Z</time>
      </trkpt>
      <trkpt lat="45.6648" lon="6.58455">
        <ele>1676.2</ele>
        <time>2012-06-16T07:34:23Z</time>
      </trkpt>
      <trkpt lat="45.66468" lon="6.58453">
        <ele>1676.68</ele>
        <time>2012-06-16T07:34:37Z</time>
      </trkpt>
      <trkpt lat="45.66465" lon="6.58453">
        <ele>1676.68</ele>
        <time>2012-06-16T07:34:39Z</time>
      </trkpt>
      <trkpt lat="45.66449" lon="6.58448">
        <ele>1676.68</ele>
        <time>2012-06-16T07:34:51Z</time>
      </trkpt>
      <trkpt lat="45.66433" lon="6.58451">
        <ele>1678.12</ele>
        <time>2012-06-16T07:35:06Z</time>
      </trkpt>
      <trkpt lat="45.66432" lon="6.58451">
        <ele>1678.12</ele>
        <time>2012-06-16T07:35:07Z</time>
      </trkpt>
      <trkpt lat="45.66422" lon="6.58454">
        <ele>1679.08</ele>
        <time>2012-06-16T07:35:17Z</time>
      </trkpt>
      <trkpt lat="45.66407" lon="6.58459">
        <ele>1681</ele>
        <time>2012-06-16T07:35:31Z</time>
      </trkpt>
      <trkpt lat="45.66394" lon="6.58463">
        <ele>1682.93</ele>
        <time>2012-06-16T07:35:43Z</time>
      </trkpt>
      <trkpt lat="45.66375" lon="6.58469">
        <ele>1684.85</ele>
        <time>2012-06-16T07:36:01Z</time>
      </trkpt>
      <trkpt lat="45.6636" lon="6.58477">
        <ele>1687.25</ele>
        <time>2012-06-16T07:36:15Z</time>
      </trkpt>
      <trkpt lat="45.66343" lon="6.5849">
        <ele>1689.17</ele>
        <time>2012-06-16T07:36:31Z</time>
      </trkpt>
      <trkpt lat="45.66323" lon="6.58509">
        <ele>1692.06</ele>
        <time>2012-06-16T07:36:52Z</time>
      </trkpt>
      <trkpt lat="45.66321" lon="6.58513">
        <ele>1692.54</ele>
        <time>2012-06-16T07:36:55Z</time>
      </trkpt>
      <trkpt lat="45.66306" lon="6.58525">
        <ele>1693.98</ele>
        <time>2012-06-16T07:37:10Z</time>
      </trkpt>
      <trkpt lat="45.66301" lon="6.58531">
        <ele>1694.46</ele>
        <time>2012-06-16T07:37:16Z</time>
      </trkpt>
      <trkpt lat="45.66283" lon="6.58545">
        <ele>1695.9</ele>
        <time>2012-06-16T07:37:34Z</time>
      </trkpt>
      <trkpt lat="45.6628" lon="6.58545">
        <ele>1696.86</ele>
        <time>2012-06-16T07:37:37Z</time>
      </trkpt>
      <trkpt lat="45.66275" lon="6.58545">
        <ele>1697.34</ele>
        <time>2012-06-16T07:37:41Z</time>
      </trkpt>
      <trkpt lat="45.66254" lon="6.58542">
        <ele>1698.31</ele>
        <time>2012-06-16T07:37:59Z</time>
      </trkpt>
      <trkpt lat="45.66241" lon="6.58541">
        <ele>1699.27</ele>
        <time>2012-06-16T07:38:10Z</time>
      </trkpt>
      <trkpt lat="45.66217" lon="6.58542">
        <ele>1701.19</ele>
        <time>2012-06-16T07:38:29Z</time>
      </trkpt>
      <trkpt lat="45.66216" lon="6.58542">
        <ele>1701.19</ele>
        <time>2012-06-16T07:38:30Z</time>
      </trkpt>
      <trkpt lat="45.66198" lon="6.58546">
        <ele>1703.59</ele>
        <time>2012-06-16T07:38:47Z</time>
      </trkpt>
      <trkpt lat="45.66195" lon="6.58547">
        <ele>1704.07</ele>
        <time>2012-06-16T07:38:49Z</time>
      </trkpt>
      <trkpt lat="45.66188" lon="6.58553">
        <ele>1705.04</ele>
        <time>2012-06-16T07:38:56Z</time>
      </trkpt>
      <trkpt lat="45.66182" lon="6.58562">
        <ele>1705.52</ele>
        <time>2012-06-16T07:39:04Z</time>
      </trkpt>
      <trkpt lat="45.66169" lon="6.58579">
        <ele>1707.44</ele>
        <time>2012-06-16T07:39:21Z</time>
      </trkpt>
      <trkpt lat="45.66168" lon="6.5858">
        <ele>1707.44</ele>
        <time>2012-06-16T07:39:22Z</time>
      </trkpt>
      <trkpt lat="45.66157" lon="6.5859">
        <ele>1707.92</ele>
        <time>2012-06-16T07:39:34Z</time>
      </trkpt>
      <trkpt lat="45.66156" lon="6.58591">
        <ele>1707.92</ele>
        <time>2012-06-16T07:39:35Z</time>
      </trkpt>
      <trkpt lat="45.66144" lon="6.58595">
        <ele>1707.92</ele>
        <time>2012-06-16T07:39:44Z</time>
      </trkpt>
      <trkpt lat="45.66114" lon="6.58604">
        <ele>1706.48</ele>
        <time>2012-06-16T07:39:56Z</time>
      </trkpt>
      <trkpt lat="45.6611" lon="6.58576">
        <ele>1706</ele>
        <time>2012-06-16T07:40:08Z</time>
      </trkpt>
      <trkpt lat="45.66105" lon="6.58538">
        <ele>1706</ele>
        <time>2012-06-16T07:40:21Z</time>
      </trkpt>
      <trkpt lat="45.66099" lon="6.58523">
        <ele>1706</ele>
        <time>2012-06-16T07:40:27Z</time>
      </trkpt>
      <trkpt lat="45.66076" lon="6.58513">
        <ele>1704.07</ele>
        <time>2012-06-16T07:40:35Z</time>
      </trkpt>
      <trkpt lat="45.6605" lon="6.58497">
        <ele>1701.19</ele>
        <time>2012-06-16T07:40:47Z</time>
      </trkpt>
      <trkpt lat="45.66033" lon="6.58497">
        <ele>1697.83</ele>
        <time>2012-06-16T07:40:53Z</time>
      </trkpt>
      <trkpt lat="45.66004" lon="6.58478">
        <ele>1698.31</ele>
        <time>2012-06-16T07:41:04Z</time>
      </trkpt>
      <trkpt lat="45.65992" lon="6.58455">
        <ele>1698.31</ele>
        <time>2012-06-16T07:41:15Z</time>
      </trkpt>
      <trkpt lat="45.65957" lon="6.58444">
        <ele>1696.86</ele>
        <time>2012-06-16T07:41:30Z</time>
      </trkpt>
      <trkpt lat="45.65929" lon="6.58421">
        <ele>1695.42</ele>
        <time>2012-06-16T07:41:42Z</time>
      </trkpt>
      <trkpt lat="45.65901" lon="6.58409">
        <ele>1692.54</ele>
        <time>2012-06-16T07:41:56Z</time>
      </trkpt>
      <trkpt lat="45.65891" lon="6.58409">
        <ele>1689.65</ele>
        <time>2012-06-16T07:42:00Z</time>
      </trkpt>
      <trkpt lat="45.65877" lon="6.58408">
        <ele>1685.81</ele>
        <time>2012-06-16T07:42:04Z</time>
      </trkpt>
      <trkpt lat="45.65868" lon="6.58404">
        <ele>1684.37</ele>
        <time>2012-06-16T07:42:07Z</time>
      </trkpt>
      <trkpt lat="45.65824" lon="6.58391">
        <ele>1683.89</ele>
        <time>2012-06-16T07:42:23Z</time>
      </trkpt>
      <trkpt lat="45.65794" lon="6.58395">
        <ele>1680.52</ele>
        <time>2012-06-16T07:42:33Z</time>
      </trkpt>
      <trkpt lat="45.6578" lon="6.58397">
        <ele>1677.16</ele>
        <time>2012-06-16T07:42:37Z</time>
      </trkpt>
      <trkpt lat="45.65729" lon="6.58402">
        <ele>1675.72</ele>
        <time>2012-06-16T07:42:52Z</time>
      </trkpt>
      <trkpt lat="45.65676" lon="6.58417">
        <ele>1674.75</ele>
        <time>2012-06-16T07:43:07Z</time>
      </trkpt>
      <trkpt lat="45.65672" lon="6.58417">
        <ele>1674.75</ele>
        <time>2012-06-16T07:43:09Z</time>
      </trkpt>
      <trkpt lat="45.65644" lon="6.58398">
        <ele>1674.75</ele>
        <time>2012-06-16T07:43:25Z</time>
      </trkpt>
      <trkpt lat="45.65604" lon="6.58409">
        <ele>1673.31</ele>
        <time>2012-06-16T07:43:40Z</time>
      </trkpt>
      <trkpt lat="45.65567" lon="6.58416">
        <ele>1673.31</ele>
        <time>2012-06-16T07:43:58Z</time>
      </trkpt>
      <trkpt lat="45.65529" lon="6.58399">
        <ele>1673.31</ele>
        <time>2012-06-16T07:44:11Z</time>
      </trkpt>
      <trkpt lat="45.65508" lon="6.58392">
        <ele>1673.31</ele>
        <time>2012-06-16T07:44:22Z</time>
      </trkpt>
      <trkpt lat="45.65501" lon="6.58391">
        <ele>1673.31</ele>
        <time>2012-06-16T07:44:27Z</time>
      </trkpt>
      <trkpt lat="45.65496" lon="6.58393">
        <ele>1673.31</ele>
        <time>2012-06-16T07:44:40Z</time>
      </trkpt>
      <trkpt lat="45.65483" lon="6.58392">
        <ele>1672.83</ele>
        <time>2012-06-16T07:44:57Z</time>
      </trkpt>
      <trkpt lat="45.6548" lon="6.58392">
        <ele>1672.83</ele>
        <time>2012-06-16T07:45:11Z</time>
      </trkpt>
      <trkpt lat="45.65479" lon="6.58391">
        <ele>1672.35</ele>
        <time>2012-06-16T07:45:33Z</time>
      </trkpt>
      <trkpt lat="45.65473" lon="6.58387">
        <ele>1672.35</ele>
        <time>2012-06-16T07:46:08Z</time>
      </trkpt>
      <trkpt lat="45.65448" lon="6.58371">
        <ele>1669.95</ele>
        <time>2012-06-16T07:46:19Z</time>
      </trkpt>
      <trkpt lat="45.65434" lon="6.58362">
        <ele>1668.99</ele>
        <time>2012-06-16T07:46:22Z</time>
      </trkpt>
      <trkpt lat="45.6541" lon="6.5836">
        <ele>1664.66</ele>
        <time>2012-06-16T07:46:26Z</time>
      </trkpt>
      <trkpt lat="45.65387" lon="6.58356">
        <ele>1659.85</ele>
        <time>2012-06-16T07:46:30Z</time>
      </trkpt>
      <trkpt lat="45.6536" lon="6.58349">
        <ele>1656.49</ele>
        <time>2012-06-16T07:46:36Z</time>
      </trkpt>
      <trkpt lat="45.65326" lon="6.58336">
        <ele>1656.49</ele>
        <time>2012-06-16T07:46:51Z</time>
      </trkpt>
      <trkpt lat="45.65299" lon="6.58318">
        <ele>1653.6</ele>
        <time>2012-06-16T07:47:04Z</time>
      </trkpt>
      <trkpt lat="45.65276" lon="6.583">
        <ele>1650.24</ele>
        <time>2012-06-16T07:47:15Z</time>
      </trkpt>
      <trkpt lat="45.65266" lon="6.58294">
        <ele>1647.36</ele>
        <time>2012-06-16T07:47:19Z</time>
      </trkpt>
      <trkpt lat="45.65251" lon="6.58281">
        <ele>1644.47</ele>
        <time>2012-06-16T07:47:26Z</time>
      </trkpt>
      <trkpt lat="45.65242" lon="6.58273">
        <ele>1644.47</ele>
        <time>2012-06-16T07:47:40Z</time>
      </trkpt>
      <trkpt lat="45.65243" lon="6.58274">
        <ele>1644.47</ele>
        <time>2012-06-16T07:48:14Z</time>
      </trkpt>
      <trkpt lat="45.65243" lon="6.58273">
        <ele>1644.47</ele>
        <time>2012-06-16T07:48:49Z</time>
      </trkpt>
      <trkpt lat="45.65243" lon="6.58274">
        <ele>1644.47</ele>
        <time>2012-06-16T07:49:38Z</time>
      </trkpt>
      <trkpt lat="45.65242" lon="6.58272">
        <ele>1644.47</ele>
        <time>2012-06-16T07:50:05Z</time>
      </trkpt>
      <trkpt lat="45.65242" lon="6.58272">
        <ele>1644.47</ele>
        <time>2012-06-16T07:50:43Z</time>
      </trkpt>
      <trkpt lat="45.65242" lon="6.58272">
        <ele>1644.47</ele>
        <time>2012-06-16T07:51:16Z</time>
      </trkpt>
      <trkpt lat="45.65242" lon="6.58271">
        <ele>1644.47</ele>
        <time>2012-06-16T07:51:41Z</time>
      </trkpt>
      <trkpt lat="45.65243" lon="6.5827">
        <ele>1644.47</ele>
        <time>2012-06-16T07:52:01Z</time>
      </trkpt>
      <trkpt lat="45.65233" lon="6.5823">
        <ele>1643.99</ele>
        <time>2012-06-16T07:52:14Z</time>
      </trkpt>
      <trkpt lat="45.65232" lon="6.58197">
        <ele>1640.15</ele>
        <time>2012-06-16T07:52:21Z</time>
      </trkpt>
      <trkpt lat="45.65224" lon="6.58179">
        <ele>1636.78</ele>
        <time>2012-06-16T07:52:25Z</time>
      </trkpt>
      <trkpt lat="45.65212" lon="6.58137">
        <ele>1634.86</ele>
        <time>2012-06-16T07:52:37Z</time>
      </trkpt>
      <trkpt lat="45.6521" lon="6.58133">
        <ele>1634.86</ele>
        <time>2012-06-16T07:52:39Z</time>
      </trkpt>
      <trkpt lat="45.65196" lon="6.58133">
        <ele>1634.86</ele>
        <time>2012-06-16T07:52:50Z</time>
      </trkpt>
      <trkpt lat="45.65196" lon="6.58137">
        <ele>1634.86</ele>
        <time>2012-06-16T07:52:52Z</time>
      </trkpt>
      <trkpt lat="45.65204" lon="6.58177">
        <ele>1633.42</ele>
        <time>2012-06-16T07:53:05Z</time>
      </trkpt>
      <trkpt lat="45.65209" lon="6.5822">
        <ele>1630.05</ele>
        <time>2012-06-16T07:53:14Z</time>
      </trkpt>
      <trkpt lat="45.65207" lon="6.58238">
        <ele>1626.21</ele>
        <time>2012-06-16T07:53:18Z</time>
      </trkpt>
      <trkpt lat="45.65202" lon="6.58275">
        <ele>1624.77</ele>
        <time>2012-06-16T07:53:33Z</time>
      </trkpt>
      <trkpt lat="45.65217" lon="6.58328">
        <ele>1623.8</ele>
        <time>2012-06-16T07:53:48Z</time>
      </trkpt>
      <trkpt lat="45.65212" lon="6.58364">
        <ele>1620.44</ele>
        <time>2012-06-16T07:53:56Z</time>
      </trkpt>
      <trkpt lat="45.65206" lon="6.58381">
        <ele>1616.59</ele>
        <time>2012-06-16T07:54:01Z</time>
      </trkpt>
      <trkpt lat="45.65197" lon="6.584">
        <ele>1616.11</ele>
        <time>2012-06-16T07:54:09Z</time>
      </trkpt>
      <trkpt lat="45.65189" lon="6.58419">
        <ele>1616.11</ele>
        <time>2012-06-16T07:54:20Z</time>
      </trkpt>
      <trkpt lat="45.65189" lon="6.58419">
        <ele>1616.11</ele>
        <time>2012-06-16T07:54:46Z</time>
      </trkpt>
      <trkpt lat="45.65188" lon="6.5842">
        <ele>1615.63</ele>
        <time>2012-06-16T07:54:55Z</time>
      </trkpt>
      <trkpt lat="45.65165" lon="6.58436">
        <ele>1614.67</ele>
        <time>2012-06-16T07:55:04Z</time>
      </trkpt>
      <trkpt lat="45.6516" lon="6.5842">
        <ele>1614.19</ele>
        <time>2012-06-16T07:55:11Z</time>
      </trkpt>
      <trkpt lat="45.65165" lon="6.58408">
        <ele>1613.23</ele>
        <time>2012-06-16T07:55:17Z</time>
      </trkpt>
      <trkpt lat="45.65168" lon="6.5839">
        <ele>1611.79</ele>
        <time>2012-06-16T07:55:23Z</time>
      </trkpt>
      <trkpt lat="45.65171" lon="6.58368">
        <ele>1607.46</ele>
        <time>2012-06-16T07:55:29Z</time>
      </trkpt>
      <trkpt lat="45.65173" lon="6.58342">
        <ele>1604.1</ele>
        <time>2012-06-16T07:55:35Z</time>
      </trkpt>
      <trkpt lat="45.65163" lon="6.58291">
        <ele>1603.62</ele>
        <time>2012-06-16T07:55:46Z</time>
      </trkpt>
      <trkpt lat="45.65151" lon="6.58234">
        <ele>1601.21</ele>
        <time>2012-06-16T07:55:58Z</time>
      </trkpt>
      <trkpt lat="45.6514" lon="6.58209">
        <ele>1597.37</ele>
        <time>2012-06-16T07:56:03Z</time>
      </trkpt>
      <trkpt lat="45.65134" lon="6.58186">
        <ele>1594</ele>
        <time>2012-06-16T07:56:07Z</time>
      </trkpt>
      <trkpt lat="45.65126" lon="6.58117">
        <ele>1592.08</ele>
        <time>2012-06-16T07:56:21Z</time>
      </trkpt>
      <trkpt lat="45.65124" lon="6.58112">
        <ele>1592.08</ele>
        <time>2012-06-16T07:56:22Z</time>
      </trkpt>
      <trkpt lat="45.65115" lon="6.58096">
        <ele>1591.12</ele>
        <time>2012-06-16T07:56:25Z</time>
      </trkpt>
      <trkpt lat="45.65099" lon="6.58094">
        <ele>1590.16</ele>
        <time>2012-06-16T07:56:32Z</time>
      </trkpt>
      <trkpt lat="45.65095" lon="6.58097">
        <ele>1589.68</ele>
        <time>2012-06-16T07:56:37Z</time>
      </trkpt>
      <trkpt lat="45.65092" lon="6.58093">
        <ele>1589.2</ele>
        <time>2012-06-16T07:56:52Z</time>
      </trkpt>
      <trkpt lat="45.65092" lon="6.58092">
        <ele>1588.24</ele>
        <time>2012-06-16T07:57:17Z</time>
      </trkpt>
      <trkpt lat="45.65092" lon="6.58094">
        <ele>1588.24</ele>
        <time>2012-06-16T07:57:26Z</time>
      </trkpt>
      <trkpt lat="45.65098" lon="6.58125">
        <ele>1588.24</ele>
        <time>2012-06-16T07:57:36Z</time>
      </trkpt>
      <trkpt lat="45.65101" lon="6.58137">
        <ele>1587.75</ele>
        <time>2012-06-16T07:57:39Z</time>
      </trkpt>
      <trkpt lat="45.6511" lon="6.58181">
        <ele>1586.31</ele>
        <time>2012-06-16T07:57:46Z</time>
      </trkpt>
      <trkpt lat="45.65113" lon="6.58209">
        <ele>1584.39</ele>
        <time>2012-06-16T07:57:49Z</time>
      </trkpt>
      <trkpt lat="45.65116" lon="6.58228">
        <ele>1582.47</ele>
        <time>2012-06-16T07:57:51Z</time>
      </trkpt>
      <trkpt lat="45.65107" lon="6.58279">
        <ele>1578.62</ele>
        <time>2012-06-16T07:57:56Z</time>
      </trkpt>
      <trkpt lat="45.65095" lon="6.58302">
        <ele>1578.62</ele>
        <time>2012-06-16T07:57:59Z</time>
      </trkpt>
      <trkpt lat="45.65088" lon="6.58313">
        <ele>1579.1</ele>
        <time>2012-06-16T07:58:01Z</time>
      </trkpt>
      <trkpt lat="45.6508" lon="6.5833">
        <ele>1583.43</ele>
        <time>2012-06-16T07:58:05Z</time>
      </trkpt>
      <trkpt lat="45.65079" lon="6.58333">
        <ele>1584.39</ele>
        <time>2012-06-16T07:58:06Z</time>
      </trkpt>
      <trkpt lat="45.65078" lon="6.5834">
        <ele>1586.31</ele>
        <time>2012-06-16T07:58:10Z</time>
      </trkpt>
      <trkpt lat="45.65076" lon="6.58361">
        <ele>1584.87</ele>
        <time>2012-06-16T07:58:21Z</time>
      </trkpt>
      <trkpt lat="45.65075" lon="6.5838">
        <ele>1584.87</ele>
        <time>2012-06-16T07:58:30Z</time>
      </trkpt>
      <trkpt lat="45.65057" lon="6.5843">
        <ele>1584.87</ele>
        <time>2012-06-16T07:58:48Z</time>
      </trkpt>
      <trkpt lat="45.65051" lon="6.5844">
        <ele>1584.87</ele>
        <time>2012-06-16T07:58:52Z</time>
      </trkpt>
      <trkpt lat="45.65034" lon="6.58445">
        <ele>1584.87</ele>
        <time>2012-06-16T07:59:01Z</time>
      </trkpt>
      <trkpt lat="45.65025" lon="6.58435">
        <ele>1584.87</ele>
        <time>2012-06-16T07:59:06Z</time>
      </trkpt>
      <trkpt lat="45.65008" lon="6.58401">
        <ele>1584.87</ele>
        <time>2012-06-16T07:59:17Z</time>
      </trkpt>
      <trkpt lat="45.64997" lon="6.58392">
        <ele>1584.87</ele>
        <time>2012-06-16T07:59:22Z</time>
      </trkpt>
      <trkpt lat="45.64961" lon="6.584">
        <ele>1582.95</ele>
        <time>2012-06-16T07:59:34Z</time>
      </trkpt>
      <trkpt lat="45.64949" lon="6.58402">
        <ele>1581.03</ele>
        <time>2012-06-16T07:59:37Z</time>
      </trkpt>
      <trkpt lat="45.6493" lon="6.584">
        <ele>1576.7</ele>
        <time>2012-06-16T07:59:41Z</time>
      </trkpt>
      <trkpt lat="45.64912" lon="6.58395">
        <ele>1573.33</ele>
        <time>2012-06-16T07:59:47Z</time>
      </trkpt>
      <trkpt lat="45.64885" lon="6.58387">
        <ele>1573.82</ele>
        <time>2012-06-16T08:00:01Z</time>
      </trkpt>
      <trkpt lat="45.64857" lon="6.58388">
        <ele>1572.37</ele>
        <time>2012-06-16T08:00:15Z</time>
      </trkpt>
      <trkpt lat="45.64813" lon="6.5841">
        <ele>1569.97</ele>
        <time>2012-06-16T08:00:31Z</time>
      </trkpt>
      <trkpt lat="45.64784" lon="6.58448">
        <ele>1568.05</ele>
        <time>2012-06-16T08:00:44Z</time>
      </trkpt>
      <trkpt lat="45.64766" lon="6.58474">
        <ele>1567.57</ele>
        <time>2012-06-16T08:00:56Z</time>
      </trkpt>
      <trkpt lat="45.64762" lon="6.58478">
        <ele>1567.57</ele>
        <time>2012-06-16T08:00:59Z</time>
      </trkpt>
      <trkpt lat="45.64732" lon="6.58483">
        <ele>1567.57</ele>
        <time>2012-06-16T08:01:15Z</time>
      </trkpt>
      <trkpt lat="45.64728" lon="6.58479">
        <ele>1569.01</ele>
        <time>2012-06-16T08:01:21Z</time>
      </trkpt>
      <trkpt lat="45.64706" lon="6.58453">
        <ele>1569.49</ele>
        <time>2012-06-16T08:01:35Z</time>
      </trkpt>
      <trkpt lat="45.64695" lon="6.58435">
        <ele>1569.97</ele>
        <time>2012-06-16T08:01:44Z</time>
      </trkpt>
      <trkpt lat="45.64689" lon="6.58425">
        <ele>1570.45</ele>
        <time>2012-06-16T08:01:49Z</time>
      </trkpt>
      <trkpt lat="45.64674" lon="6.58406">
        <ele>1570.93</ele>
        <time>2012-06-16T08:02:01Z</time>
      </trkpt>
      <trkpt lat="45.64659" lon="6.58374">
        <ele>1571.41</ele>
        <time>2012-06-16T08:02:15Z</time>
      </trkpt>
      <trkpt lat="45.64657" lon="6.58349">
        <ele>1571.41</ele>
        <time>2012-06-16T08:02:24Z</time>
      </trkpt>
      <trkpt lat="45.64632" lon="6.58315">
        <ele>1569.97</ele>
        <time>2012-06-16T08:02:39Z</time>
      </trkpt>
      <trkpt lat="45.64613" lon="6.58329">
        <ele>1569.49</ele>
        <time>2012-06-16T08:02:47Z</time>
      </trkpt>
      <trkpt lat="45.64602" lon="6.58321">
        <ele>1569.49</ele>
        <time>2012-06-16T08:02:55Z</time>
      </trkpt>
      <trkpt lat="45.64582" lon="6.58307">
        <ele>1569.49</ele>
        <time>2012-06-16T08:03:08Z</time>
      </trkpt>
      <trkpt lat="45.64553" lon="6.58297">
        <ele>1570.45</ele>
        <time>2012-06-16T08:03:24Z</time>
      </trkpt>
      <trkpt lat="45.64519" lon="6.58296">
        <ele>1570.45</ele>
        <time>2012-06-16T08:03:34Z</time>
      </trkpt>
      <trkpt lat="45.64495" lon="6.58302">
        <ele>1570.45</ele>
        <time>2012-06-16T08:03:42Z</time>
      </trkpt>
      <trkpt lat="45.64466" lon="6.5829">
        <ele>1571.41</ele>
        <time>2012-06-16T08:03:56Z</time>
      </trkpt>
      <trkpt lat="45.64439" lon="6.58286">
        <ele>1571.89</ele>
        <time>2012-06-16T08:04:10Z</time>
      </trkpt>
      <trkpt lat="45.64411" lon="6.58291">
        <ele>1572.85</ele>
        <time>2012-06-16T08:04:25Z</time>
      </trkpt>
      <trkpt lat="45.64389" lon="6.58309">
        <ele>1573.82</ele>
        <time>2012-06-16T08:04:37Z</time>
      </trkpt>
      <trkpt lat="45.6437" lon="6.58319">
        <ele>1575.26</ele>
        <time>2012-06-16T08:04:49Z</time>
      </trkpt>
      <trkpt lat="45.64353" lon="6.58328">
        <ele>1576.7</ele>
        <time>2012-06-16T08:05:00Z</time>
      </trkpt>
      <trkpt lat="45.6435" lon="6.58329">
        <ele>1577.66</ele>
        <time>2012-06-16T08:05:02Z</time>
      </trkpt>
      <trkpt lat="45.64342" lon="6.5832">
        <ele>1578.14</ele>
        <time>2012-06-16T08:05:08Z</time>
      </trkpt>
      <trkpt lat="45.64318" lon="6.58316">
        <ele>1579.58</ele>
        <time>2012-06-16T08:05:22Z</time>
      </trkpt>
      <trkpt lat="45.64299" lon="6.58325">
        <ele>1581.03</ele>
        <time>2012-06-16T08:05:35Z</time>
      </trkpt>
      <trkpt lat="45.64285" lon="6.58328">
        <ele>1581.99</ele>
        <time>2012-06-16T08:05:45Z</time>
      </trkpt>
      <trkpt lat="45.64265" lon="6.58315">
        <ele>1581.99</ele>
        <time>2012-06-16T08:05:58Z</time>
      </trkpt>
      <trkpt lat="45.64259" lon="6.5831">
        <ele>1581.99</ele>
        <time>2012-06-16T08:06:02Z</time>
      </trkpt>
      <trkpt lat="45.64255" lon="6.58307">
        <ele>1580.54</ele>
        <time>2012-06-16T08:06:13Z</time>
      </trkpt>
      <trkpt lat="45.64253" lon="6.58303">
        <ele>1580.54</ele>
        <time>2012-06-16T08:06:29Z</time>
      </trkpt>
      <trkpt lat="45.64254" lon="6.58304">
        <ele>1580.54</ele>
        <time>2012-06-16T08:06:42Z</time>
      </trkpt>
      <trkpt lat="45.64255" lon="6.58305">
        <ele>1580.54</ele>
        <time>2012-06-16T08:06:56Z</time>
      </trkpt>
      <trkpt lat="45.64255" lon="6.58305">
        <ele>1580.54</ele>
        <time>2012-06-16T08:06:58Z</time>
      </trkpt>
      <trkpt lat="45.64271" lon="6.58312">
        <ele>1580.06</ele>
        <time>2012-06-16T08:07:06Z</time>
      </trkpt>
      <trkpt lat="45.64269" lon="6.58305">
        <ele>1579.58</ele>
        <time>2012-06-16T08:07:11Z</time>
      </trkpt>
      <trkpt lat="45.64245" lon="6.5829">
        <ele>1577.66</ele>
        <time>2012-06-16T08:07:24Z</time>
      </trkpt>
      <trkpt lat="45.64244" lon="6.58292">
        <ele>1576.7</ele>
        <time>2012-06-16T08:07:33Z</time>
      </trkpt>
      <trkpt lat="45.64246" lon="6.58292">
        <ele>1576.22</ele>
        <time>2012-06-16T08:08:02Z</time>
      </trkpt>
      <trkpt lat="45.64247" lon="6.58292">
        <ele>1576.22</ele>
        <time>2012-06-16T08:08:51Z</time>
      </trkpt>
      <trkpt lat="45.64247" lon="6.58293">
        <ele>1576.22</ele>
        <time>2012-06-16T08:09:28Z</time>
      </trkpt>
      <trkpt lat="45.64245" lon="6.58295">
        <ele>1576.22</ele>
        <time>2012-06-16T08:09:55Z</time>
      </trkpt>
      <trkpt lat="45.64244" lon="6.58295">
        <ele>1576.22</ele>
        <time>2012-06-16T08:10:24Z</time>
      </trkpt>
      <trkpt lat="45.64244" lon="6.58296">
        <ele>1576.22</ele>
        <time>2012-06-16T08:10:55Z</time>
      </trkpt>
      <trkpt lat="45.64244" lon="6.58296">
        <ele>1576.7</ele>
        <time>2012-06-16T08:11:22Z</time>
      </trkpt>
      <trkpt lat="45.64245" lon="6.58294">
        <ele>1576.7</ele>
        <time>2012-06-16T08:11:51Z</time>
      </trkpt>
      <trkpt lat="45.64245" lon="6.58294">
        <ele>1576.7</ele>
        <time>2012-06-16T08:12:26Z</time>
      </trkpt>
      <trkpt lat="45.64244" lon="6.58293">
        <ele>1576.7</ele>
        <time>2012-06-16T08:13:06Z</time>
      </trkpt>
      <trkpt lat="45.64244" lon="6.58292">
        <ele>1576.7</ele>
        <time>2012-06-16T08:13:47Z</time>
      </trkpt>
      <trkpt lat="45.64245" lon="6.58292">
        <ele>1576.7</ele>
        <time>2012-06-16T08:14:31Z</time>
      </trkpt>
      <trkpt lat="45.64246" lon="6.58293">
        <ele>1576.7</ele>
        <time>2012-06-16T08:15:23Z</time>
      </trkpt>
      <trkpt lat="45.64244" lon="6.58295">
        <ele>1576.7</ele>
        <time>2012-06-16T08:16:19Z</time>
      </trkpt>
      <trkpt lat="45.64245" lon="6.58297">
        <ele>1576.7</ele>
        <time>2012-06-16T08:16:59Z</time>
      </trkpt>
      <trkpt lat="45.64246" lon="6.58294">
        <ele>1576.7</ele>
        <time>2012-06-16T08:17:45Z</time>
      </trkpt>
      <trkpt lat="45.64246" lon="6.58293">
        <ele>1576.7</ele>
        <time>2012-06-16T08:18:23Z</time>
      </trkpt>
      <trkpt lat="45.64246" lon="6.58293">
        <ele>1577.18</ele>
        <time>2012-06-16T08:18:34Z</time>
      </trkpt>
      <trkpt lat="45.64246" lon="6.58295">
        <ele>1577.18</ele>
        <time>2012-06-16T08:18:50Z</time>
      </trkpt>
      <trkpt lat="45.64246" lon="6.58295">
        <ele>1577.18</ele>
        <time>2012-06-16T08:19:11Z</time>
      </trkpt>
      <trkpt lat="45.64262" lon="6.58303">
        <ele>1578.14</ele>
        <time>2012-06-16T08:19:26Z</time>
      </trkpt>
      <trkpt lat="45.64263" lon="6.58303">
        <ele>1578.14</ele>
        <time>2012-06-16T08:19:27Z</time>
      </trkpt>
      <trkpt lat="45.64273" lon="6.58309">
        <ele>1579.1</ele>
        <time>2012-06-16T08:19:38Z</time>
      </trkpt>
      <trkpt lat="45.64274" lon="6.58313">
        <ele>1579.1</ele>
        <time>2012-06-16T08:19:41Z</time>
      </trkpt>
      <trkpt lat="45.64259" lon="6.58308">
        <ele>1580.54</ele>
        <time>2012-06-16T08:19:55Z</time>
      </trkpt>
      <trkpt lat="45.64257" lon="6.58307">
        <ele>1580.54</ele>
        <time>2012-06-16T08:19:57Z</time>
      </trkpt>
      <trkpt lat="45.64257" lon="6.58311">
        <ele>1581.03</ele>
        <time>2012-06-16T08:20:02Z</time>
      </trkpt>
      <trkpt lat="45.64262" lon="6.58315">
        <ele>1581.51</ele>
        <time>2012-06-16T08:20:07Z</time>
      </trkpt>
      <trkpt lat="45.64277" lon="6.58325">
        <ele>1582.47</ele>
        <time>2012-06-16T08:20:22Z</time>
      </trkpt>
      <trkpt lat="45.6428" lon="6.58325">
        <ele>1582.95</ele>
        <time>2012-06-16T08:20:25Z</time>
      </trkpt>
      <trkpt lat="45.64281" lon="6.58328">
        <ele>1582.95</ele>
        <time>2012-06-16T08:20:29Z</time>
      </trkpt>
      <trkpt lat="45.64274" lon="6.58327">
        <ele>1583.91</ele>
        <time>2012-06-16T08:20:35Z</time>
      </trkpt>
      <trkpt lat="45.64266" lon="6.58326">
        <ele>1584.87</ele>
        <time>2012-06-16T08:20:46Z</time>
      </trkpt>
      <trkpt lat="45.64265" lon="6.58324">
        <ele>1585.83</ele>
        <time>2012-06-16T08:20:58Z</time>
      </trkpt>
      <trkpt lat="45.64264" lon="6.58323">
        <ele>1586.31</ele>
        <time>2012-06-16T08:21:13Z</time>
      </trkpt>
      <trkpt lat="45.64264" lon="6.58323">
        <ele>1586.31</ele>
        <time>2012-06-16T08:21:14Z</time>
      </trkpt>
      <trkpt lat="45.64258" lon="6.58323">
        <ele>1586.79</ele>
        <time>2012-06-16T08:21:22Z</time>
      </trkpt>
      <trkpt lat="45.64241" lon="6.58336">
        <ele>1588.72</ele>
        <time>2012-06-16T08:21:39Z</time>
      </trkpt>
      <trkpt lat="45.64235" lon="6.58343">
        <ele>1589.68</ele>
        <time>2012-06-16T08:21:46Z</time>
      </trkpt>
      <trkpt lat="45.64231" lon="6.58357">
        <ele>1590.64</ele>
        <time>2012-06-16T08:21:58Z</time>
      </trkpt>
      <trkpt lat="45.64216" lon="6.58357">
        <ele>1592.56</ele>
        <time>2012-06-16T08:22:12Z</time>
      </trkpt>
      <trkpt lat="45.64211" lon="6.58357">
        <ele>1593.04</ele>
        <time>2012-06-16T08:22:18Z</time>
      </trkpt>
      <trkpt lat="45.64203" lon="6.58366">
        <ele>1593.52</ele>
        <time>2012-06-16T08:22:25Z</time>
      </trkpt>
      <trkpt lat="45.64194" lon="6.58374">
        <ele>1594.48</ele>
        <time>2012-06-16T08:22:30Z</time>
      </trkpt>
      <trkpt lat="45.64188" lon="6.58379">
        <ele>1594.96</ele>
        <time>2012-06-16T08:22:35Z</time>
      </trkpt>
      <trkpt lat="45.64186" lon="6.58401">
        <ele>1595.45</ele>
        <time>2012-06-16T08:22:45Z</time>
      </trkpt>
      <trkpt lat="45.64182" lon="6.58412">
        <ele>1595.45</ele>
        <time>2012-06-16T08:22:49Z</time>
      </trkpt>
      <trkpt lat="45.64174" lon="6.5842">
        <ele>1595.45</ele>
        <time>2012-06-16T08:22:54Z</time>
      </trkpt>
      <trkpt lat="45.64163" lon="6.58437">
        <ele>1596.41</ele>
        <time>2012-06-16T08:23:02Z</time>
      </trkpt>
      <trkpt lat="45.64143" lon="6.58437">
        <ele>1597.37</ele>
        <time>2012-06-16T08:23:14Z</time>
      </trkpt>
      <trkpt lat="45.64134" lon="6.58441">
        <ele>1597.37</ele>
        <time>2012-06-16T08:23:21Z</time>
      </trkpt>
      <trkpt lat="45.64127" lon="6.58443">
        <ele>1597.85</ele>
        <time>2012-06-16T08:23:27Z</time>
      </trkpt>
      <trkpt lat="45.64104" lon="6.58468">
        <ele>1597.85</ele>
        <time>2012-06-16T08:23:38Z</time>
      </trkpt>
      <trkpt lat="45.64097" lon="6.58483">
        <ele>1596.89</ele>
        <time>2012-06-16T08:23:46Z</time>
      </trkpt>
      <trkpt lat="45.64095" lon="6.58488">
        <ele>1595.93</ele>
        <time>2012-06-16T08:23:53Z</time>
      </trkpt>
      <trkpt lat="45.64091" lon="6.58489">
        <ele>1595.93</ele>
        <time>2012-06-16T08:23:59Z</time>
      </trkpt>
      <trkpt lat="45.64084" lon="6.58494">
        <ele>1595.45</ele>
        <time>2012-06-16T08:24:11Z</time>
      </trkpt>
      <trkpt lat="45.64084" lon="6.58495">
        <ele>1595.45</ele>
        <time>2012-06-16T08:24:14Z</time>
      </trkpt>
      <trkpt lat="45.64078" lon="6.58496">
        <ele>1595.45</ele>
        <time>2012-06-16T08:24:22Z</time>
      </trkpt>
      <trkpt lat="45.64074" lon="6.58503">
        <ele>1596.89</ele>
        <time>2012-06-16T08:24:29Z</time>
      </trkpt>
      <trkpt lat="45.64064" lon="6.58518">
        <ele>1597.85</ele>
        <time>2012-06-16T08:24:44Z</time>
      </trkpt>
      <trkpt lat="45.64057" lon="6.58534">
        <ele>1599.29</ele>
        <time>2012-06-16T08:24:59Z</time>
      </trkpt>
      <trkpt lat="45.64048" lon="6.58551">
        <ele>1599.77</ele>
        <time>2012-06-16T08:25:15Z</time>
      </trkpt>
      <trkpt lat="45.64044" lon="6.58557">
        <ele>1600.25</ele>
        <time>2012-06-16T08:25:21Z</time>
      </trkpt>
      <trkpt lat="45.64042" lon="6.58561">
        <ele>1600.25</ele>
        <time>2012-06-16T08:25:24Z</time>
      </trkpt>
      <trkpt lat="45.64034" lon="6.58567">
        <ele>1600.73</ele>
        <time>2012-06-16T08:25:37Z</time>
      </trkpt>
      <trkpt lat="45.64024" lon="6.58565">
        <ele>1602.17</ele>
        <time>2012-06-16T08:25:54Z</time>
      </trkpt>
      <trkpt lat="45.64013" lon="6.58562">
        <ele>1604.1</ele>
        <time>2012-06-16T08:26:08Z</time>
      </trkpt>
      <trkpt lat="45.64002" lon="6.58568">
        <ele>1605.54</ele>
        <time>2012-06-16T08:26:21Z</time>
      </trkpt>
      <trkpt lat="45.64001" lon="6.58569">
        <ele>1606.02</ele>
        <time>2012-06-16T08:26:24Z</time>
      </trkpt>
      <trkpt lat="45.63996" lon="6.58572">
        <ele>1606.5</ele>
        <time>2012-06-16T08:26:31Z</time>
      </trkpt>
      <trkpt lat="45.63989" lon="6.58579">
        <ele>1606.98</ele>
        <time>2012-06-16T08:26:41Z</time>
      </trkpt>
      <trkpt lat="45.63982" lon="6.58583">
        <ele>1607.94</ele>
        <time>2012-06-16T08:26:54Z</time>
      </trkpt>
      <trkpt lat="45.63975" lon="6.58588">
        <ele>1607.94</ele>
        <time>2012-06-16T08:27:03Z</time>
      </trkpt>
      <trkpt lat="45.6397" lon="6.58592">
        <ele>1608.42</ele>
        <time>2012-06-16T08:27:15Z</time>
      </trkpt>
      <trkpt lat="45.63963" lon="6.58597">
        <ele>1608.9</ele>
        <time>2012-06-16T08:27:29Z</time>
      </trkpt>
      <trkpt lat="45.63961" lon="6.58597">
        <ele>1608.9</ele>
        <time>2012-06-16T08:27:31Z</time>
      </trkpt>
      <trkpt lat="45.63948" lon="6.58602">
        <ele>1609.38</ele>
        <time>2012-06-16T08:27:45Z</time>
      </trkpt>
      <trkpt lat="45.63946" lon="6.58602">
        <ele>1609.86</ele>
        <time>2012-06-16T08:27:59Z</time>
      </trkpt>
      <trkpt lat="45.63943" lon="6.58603">
        <ele>1610.35</ele>
        <time>2012-06-16T08:28:19Z</time>
      </trkpt>
      <trkpt lat="45.63936" lon="6.58609">
        <ele>1610.83</ele>
        <time>2012-06-16T08:28:29Z</time>
      </trkpt>
      <trkpt lat="45.63926" lon="6.58618">
        <ele>1613.23</ele>
        <time>2012-06-16T08:28:43Z</time>
      </trkpt>
      <trkpt lat="45.63919" lon="6.58626">
        <ele>1614.19</ele>
        <time>2012-06-16T08:28:54Z</time>
      </trkpt>
      <trkpt lat="45.63916" lon="6.58629">
        <ele>1615.15</ele>
        <time>2012-06-16T08:29:03Z</time>
      </trkpt>
      <trkpt lat="45.63909" lon="6.58633">
        <ele>1617.07</ele>
        <time>2012-06-16T08:29:15Z</time>
      </trkpt>
      <trkpt lat="45.63894" lon="6.58641">
        <ele>1619.48</ele>
        <time>2012-06-16T08:29:34Z</time>
      </trkpt>
      <trkpt lat="45.63881" lon="6.58645">
        <ele>1620.92</ele>
        <time>2012-06-16T08:29:48Z</time>
      </trkpt>
      <trkpt lat="45.63872" lon="6.58648">
        <ele>1621.4</ele>
        <time>2012-06-16T08:29:57Z</time>
      </trkpt>
      <trkpt lat="45.63858" lon="6.58652">
        <ele>1623.32</ele>
        <time>2012-06-16T08:30:12Z</time>
      </trkpt>
      <trkpt lat="45.63848" lon="6.58656">
        <ele>1623.8</ele>
        <time>2012-06-16T08:30:27Z</time>
      </trkpt>
      <trkpt lat="45.63848" lon="6.58658">
        <ele>1624.28</ele>
        <time>2012-06-16T08:30:56Z</time>
      </trkpt>
      <trkpt lat="45.63846" lon="6.58658">
        <ele>1624.28</ele>
        <time>2012-06-16T08:31:11Z</time>
      </trkpt>
      <trkpt lat="45.63843" lon="6.58661">
        <ele>1623.8</ele>
        <time>2012-06-16T08:31:33Z</time>
      </trkpt>
      <trkpt lat="45.63828" lon="6.58667">
        <ele>1625.25</ele>
        <time>2012-06-16T08:31:48Z</time>
      </trkpt>
      <trkpt lat="45.63815" lon="6.5868">
        <ele>1627.17</ele>
        <time>2012-06-16T08:32:05Z</time>
      </trkpt>
      <trkpt lat="45.63805" lon="6.58692">
        <ele>1629.57</ele>
        <time>2012-06-16T08:32:22Z</time>
      </trkpt>
      <trkpt lat="45.63801" lon="6.58697">
        <ele>1631.49</ele>
        <time>2012-06-16T08:32:32Z</time>
      </trkpt>
      <trkpt lat="45.63796" lon="6.58703">
        <ele>1633.9</ele>
        <time>2012-06-16T08:32:44Z</time>
      </trkpt>
      <trkpt lat="45.63792" lon="6.58713">
        <ele>1635.34</ele>
        <time>2012-06-16T08:32:57Z</time>
      </trkpt>
      <trkpt lat="45.6379" lon="6.58716">
        <ele>1635.82</ele>
        <time>2012-06-16T08:33:01Z</time>
      </trkpt>
      <trkpt lat="45.63783" lon="6.58725">
        <ele>1637.74</ele>
        <time>2012-06-16T08:33:16Z</time>
      </trkpt>
      <trkpt lat="45.63778" lon="6.58735">
        <ele>1640.15</ele>
        <time>2012-06-16T08:33:30Z</time>
      </trkpt>
      <trkpt lat="45.63774" lon="6.5875">
        <ele>1642.07</ele>
        <time>2012-06-16T08:33:44Z</time>
      </trkpt>
      <trkpt lat="45.63772" lon="6.58764">
        <ele>1644.47</ele>
        <time>2012-06-16T08:33:58Z</time>
      </trkpt>
      <trkpt lat="45.63773" lon="6.58768">
        <ele>1645.43</ele>
        <time>2012-06-16T08:34:06Z</time>
      </trkpt>
      <trkpt lat="45.63786" lon="6.58761">
        <ele>1646.88</ele>
        <time>2012-06-16T08:34:22Z</time>
      </trkpt>
      <trkpt lat="45.63786" lon="6.58761">
        <ele>1647.84</ele>
        <time>2012-06-16T08:34:39Z</time>
      </trkpt>
      <trkpt lat="45.63786" lon="6.58761">
        <ele>1647.84</ele>
        <time>2012-06-16T08:34:40Z</time>
      </trkpt>
      <trkpt lat="45.63797" lon="6.58761">
        <ele>1648.8</ele>
        <time>2012-06-16T08:34:51Z</time>
      </trkpt>
      <trkpt lat="45.638" lon="6.58762">
        <ele>1649.28</ele>
        <time>2012-06-16T08:34:53Z</time>
      </trkpt>
      <trkpt lat="45.63802" lon="6.58766">
        <ele>1649.28</ele>
        <time>2012-06-16T08:34:56Z</time>
      </trkpt>
      <trkpt lat="45.63791" lon="6.58786">
        <ele>1650.24</ele>
        <time>2012-06-16T08:35:11Z</time>
      </trkpt>
      <trkpt lat="45.63788" lon="6.58793">
        <ele>1650.24</ele>
        <time>2012-06-16T08:35:15Z</time>
      </trkpt>
      <trkpt lat="45.63786" lon="6.58798">
        <ele>1650.72</ele>
        <time>2012-06-16T08:35:18Z</time>
      </trkpt>
      <trkpt lat="45.63781" lon="6.58804">
        <ele>1650.72</ele>
        <time>2012-06-16T08:35:23Z</time>
      </trkpt>
      <trkpt lat="45.63769" lon="6.58808">
        <ele>1651.2</ele>
        <time>2012-06-16T08:35:32Z</time>
      </trkpt>
      <trkpt lat="45.63756" lon="6.58805">
        <ele>1651.68</ele>
        <time>2012-06-16T08:35:43Z</time>
      </trkpt>
      <trkpt lat="45.63739" lon="6.58798">
        <ele>1653.12</ele>
        <time>2012-06-16T08:35:58Z</time>
      </trkpt>
      <trkpt lat="45.63718" lon="6.58788">
        <ele>1656.01</ele>
        <time>2012-06-16T08:36:17Z</time>
      </trkpt>
      <trkpt lat="45.63716" lon="6.58788">
        <ele>1656.01</ele>
        <time>2012-06-16T08:36:19Z</time>
      </trkpt>
      <trkpt lat="45.6371" lon="6.58787">
        <ele>1656.97</ele>
        <time>2012-06-16T08:36:25Z</time>
      </trkpt>
      <trkpt lat="45.63686" lon="6.58796">
        <ele>1659.37</ele>
        <time>2012-06-16T08:36:43Z</time>
      </trkpt>
      <trkpt lat="45.63666" lon="6.58801">
        <ele>1660.81</ele>
        <time>2012-06-16T08:36:59Z</time>
      </trkpt>
      <trkpt lat="45.63643" lon="6.58812">
        <ele>1663.22</ele>
        <time>2012-06-16T08:37:16Z</time>
      </trkpt>
      <trkpt lat="45.63625" lon="6.58824">
        <ele>1664.66</ele>
        <time>2012-06-16T08:37:30Z</time>
      </trkpt>
      <trkpt lat="45.63601" lon="6.5884">
        <ele>1667.54</ele>
        <time>2012-06-16T08:37:49Z</time>
      </trkpt>
      <trkpt lat="45.63594" lon="6.58847">
        <ele>1668.99</ele>
        <time>2012-06-16T08:37:56Z</time>
      </trkpt>
      <trkpt lat="45.63587" lon="6.58853">
        <ele>1669.47</ele>
        <time>2012-06-16T08:38:02Z</time>
      </trkpt>
      <trkpt lat="45.63576" lon="6.58857">
        <ele>1670.43</ele>
        <time>2012-06-16T08:38:10Z</time>
      </trkpt>
      <trkpt lat="45.63574" lon="6.58861">
        <ele>1670.91</ele>
        <time>2012-06-16T08:38:13Z</time>
      </trkpt>
      <trkpt lat="45.63573" lon="6.58872">
        <ele>1671.87</ele>
        <time>2012-06-16T08:38:22Z</time>
      </trkpt>
      <trkpt lat="45.6358" lon="6.58877">
        <ele>1673.31</ele>
        <time>2012-06-16T08:38:29Z</time>
      </trkpt>
      <trkpt lat="45.63591" lon="6.58877">
        <ele>1674.27</ele>
        <time>2012-06-16T08:38:39Z</time>
      </trkpt>
      <trkpt lat="45.63596" lon="6.58874">
        <ele>1674.75</ele>
        <time>2012-06-16T08:38:44Z</time>
      </trkpt>
      <trkpt lat="45.63612" lon="6.58871">
        <ele>1677.16</ele>
        <time>2012-06-16T08:38:59Z</time>
      </trkpt>
      <trkpt lat="45.6363" lon="6.5887">
        <ele>1678.6</ele>
        <time>2012-06-16T08:39:14Z</time>
      </trkpt>
      <trkpt lat="45.63658" lon="6.58876">
        <ele>1680.52</ele>
        <time>2012-06-16T08:39:35Z</time>
      </trkpt>
      <trkpt lat="45.6366" lon="6.58876">
        <ele>1680.52</ele>
        <time>2012-06-16T08:39:36Z</time>
      </trkpt>
      <trkpt lat="45.63658" lon="6.58879">
        <ele>1681.96</ele>
        <time>2012-06-16T08:39:44Z</time>
      </trkpt>
      <trkpt lat="45.63657" lon="6.58879">
        <ele>1681.96</ele>
        <time>2012-06-16T08:39:59Z</time>
      </trkpt>
      <trkpt lat="45.63657" lon="6.58879">
        <ele>1681.96</ele>
        <time>2012-06-16T08:40:23Z</time>
      </trkpt>
      <trkpt lat="45.63658" lon="6.58876">
        <ele>1682.44</ele>
        <time>2012-06-16T08:40:48Z</time>
      </trkpt>
      <trkpt lat="45.63669" lon="6.5888">
        <ele>1682.44</ele>
        <time>2012-06-16T08:40:58Z</time>
      </trkpt>
      <trkpt lat="45.63681" lon="6.58884">
        <ele>1683.41</ele>
        <time>2012-06-16T08:41:09Z</time>
      </trkpt>
      <trkpt lat="45.63697" lon="6.58892">
        <ele>1684.37</ele>
        <time>2012-06-16T08:41:22Z</time>
      </trkpt>
      <trkpt lat="45.63699" lon="6.58894">
        <ele>1684.85</ele>
        <time>2012-06-16T08:41:24Z</time>
      </trkpt>
      <trkpt lat="45.63704" lon="6.589">
        <ele>1685.33</ele>
        <time>2012-06-16T08:41:29Z</time>
      </trkpt>
      <trkpt lat="45.63701" lon="6.58916">
        <ele>1686.77</ele>
        <time>2012-06-16T08:41:38Z</time>
      </trkpt>
      <trkpt lat="45.63684" lon="6.58918">
        <ele>1688.69</ele>
        <time>2012-06-16T08:41:51Z</time>
      </trkpt>
      <trkpt lat="45.63673" lon="6.5892">
        <ele>1689.17</ele>
        <time>2012-06-16T08:42:00Z</time>
      </trkpt>
      <trkpt lat="45.63667" lon="6.58923">
        <ele>1690.14</ele>
        <time>2012-06-16T08:42:05Z</time>
      </trkpt>
      <trkpt lat="45.63659" lon="6.58927">
        <ele>1690.62</ele>
        <time>2012-06-16T08:42:11Z</time>
      </trkpt>
      <trkpt lat="45.63638" lon="6.58939">
        <ele>1692.54</ele>
        <time>2012-06-16T08:42:27Z</time>
      </trkpt>
      <trkpt lat="45.63615" lon="6.58948">
        <ele>1694.94</ele>
        <time>2012-06-16T08:42:44Z</time>
      </trkpt>
      <trkpt lat="45.63598" lon="6.58974">
        <ele>1697.34</ele>
        <time>2012-06-16T08:43:02Z</time>
      </trkpt>
      <trkpt lat="45.63583" lon="6.58997">
        <ele>1699.75</ele>
        <time>2012-06-16T08:43:18Z</time>
      </trkpt>
      <trkpt lat="45.63562" lon="6.59018">
        <ele>1702.15</ele>
        <time>2012-06-16T08:43:36Z</time>
      </trkpt>
      <trkpt lat="45.63541" lon="6.59035">
        <ele>1704.55</ele>
        <time>2012-06-16T08:43:54Z</time>
      </trkpt>
      <trkpt lat="45.6352" lon="6.59049">
        <ele>1706.48</ele>
        <time>2012-06-16T08:44:10Z</time>
      </trkpt>
      <trkpt lat="45.63498" lon="6.59068">
        <ele>1708.4</ele>
        <time>2012-06-16T08:44:28Z</time>
      </trkpt>
      <trkpt lat="45.63473" lon="6.59095">
        <ele>1710.32</ele>
        <time>2012-06-16T08:44:48Z</time>
      </trkpt>
      <trkpt lat="45.63451" lon="6.591">
        <ele>1712.73</ele>
        <time>2012-06-16T08:45:04Z</time>
      </trkpt>
      <trkpt lat="45.63431" lon="6.59104">
        <ele>1715.13</ele>
        <time>2012-06-16T08:45:19Z</time>
      </trkpt>
      <trkpt lat="45.63408" lon="6.59117">
        <ele>1717.53</ele>
        <time>2012-06-16T08:45:36Z</time>
      </trkpt>
      <trkpt lat="45.63388" lon="6.59131">
        <ele>1720.42</ele>
        <time>2012-06-16T08:45:52Z</time>
      </trkpt>
      <trkpt lat="45.63374" lon="6.59144">
        <ele>1721.86</ele>
        <time>2012-06-16T08:46:05Z</time>
      </trkpt>
      <trkpt lat="45.63364" lon="6.59152">
        <ele>1722.82</ele>
        <time>2012-06-16T08:46:14Z</time>
      </trkpt>
      <trkpt lat="45.63342" lon="6.59167">
        <ele>1725.22</ele>
        <time>2012-06-16T08:46:31Z</time>
      </trkpt>
      <trkpt lat="45.63334" lon="6.59171">
        <ele>1725.7</ele>
        <time>2012-06-16T08:46:37Z</time>
      </trkpt>
      <trkpt lat="45.63324" lon="6.59175">
        <ele>1727.15</ele>
        <time>2012-06-16T08:46:45Z</time>
      </trkpt>
      <trkpt lat="45.63319" lon="6.59176">
        <ele>1728.11</ele>
        <time>2012-06-16T08:46:49Z</time>
      </trkpt>
      <trkpt lat="45.63314" lon="6.59179">
        <ele>1728.59</ele>
        <time>2012-06-16T08:46:53Z</time>
      </trkpt>
      <trkpt lat="45.63308" lon="6.5918">
        <ele>1729.07</ele>
        <time>2012-06-16T08:46:58Z</time>
      </trkpt>
      <trkpt lat="45.633" lon="6.59184">
        <ele>1730.03</ele>
        <time>2012-06-16T08:47:05Z</time>
      </trkpt>
      <trkpt lat="45.63296" lon="6.59186">
        <ele>1730.99</ele>
        <time>2012-06-16T08:47:08Z</time>
      </trkpt>
      <trkpt lat="45.63291" lon="6.59198">
        <ele>1731.95</ele>
        <time>2012-06-16T08:47:16Z</time>
      </trkpt>
      <trkpt lat="45.63296" lon="6.5921">
        <ele>1733.39</ele>
        <time>2012-06-16T08:47:25Z</time>
      </trkpt>
      <trkpt lat="45.63318" lon="6.59215">
        <ele>1735.8</ele>
        <time>2012-06-16T08:47:41Z</time>
      </trkpt>
      <trkpt lat="45.63341" lon="6.59216">
        <ele>1737.24</ele>
        <time>2012-06-16T08:47:56Z</time>
      </trkpt>
      <trkpt lat="45.63363" lon="6.59217">
        <ele>1739.16</ele>
        <time>2012-06-16T08:48:10Z</time>
      </trkpt>
      <trkpt lat="45.63388" lon="6.59213">
        <ele>1741.57</ele>
        <time>2012-06-16T08:48:27Z</time>
      </trkpt>
      <trkpt lat="45.63411" lon="6.59208">
        <ele>1743.49</ele>
        <time>2012-06-16T08:48:43Z</time>
      </trkpt>
      <trkpt lat="45.63433" lon="6.5921">
        <ele>1745.89</ele>
        <time>2012-06-16T08:48:59Z</time>
      </trkpt>
      <trkpt lat="45.63438" lon="6.59212">
        <ele>1746.37</ele>
        <time>2012-06-16T08:49:03Z</time>
      </trkpt>
      <trkpt lat="45.63456" lon="6.59216">
        <ele>1748.78</ele>
        <time>2012-06-16T08:49:17Z</time>
      </trkpt>
      <trkpt lat="45.63465" lon="6.59215">
        <ele>1749.26</ele>
        <time>2012-06-16T08:49:23Z</time>
      </trkpt>
      <trkpt lat="45.63487" lon="6.59204">
        <ele>1751.66</ele>
        <time>2012-06-16T08:49:39Z</time>
      </trkpt>
      <trkpt lat="45.63511" lon="6.59215">
        <ele>1754.06</ele>
        <time>2012-06-16T08:49:58Z</time>
      </trkpt>
      <trkpt lat="45.6353" lon="6.59222">
        <ele>1756.47</ele>
        <time>2012-06-16T08:50:12Z</time>
      </trkpt>
      <trkpt lat="45.63531" lon="6.59223">
        <ele>1756.47</ele>
        <time>2012-06-16T08:50:13Z</time>
      </trkpt>
      <trkpt lat="45.63538" lon="6.59225">
        <ele>1756.95</ele>
        <time>2012-06-16T08:50:18Z</time>
      </trkpt>
      <trkpt lat="45.63562" lon="6.59232">
        <ele>1758.39</ele>
        <time>2012-06-16T08:50:34Z</time>
      </trkpt>
      <trkpt lat="45.63576" lon="6.59241">
        <ele>1759.83</ele>
        <time>2012-06-16T08:50:45Z</time>
      </trkpt>
      <trkpt lat="45.63578" lon="6.59244">
        <ele>1759.83</ele>
        <time>2012-06-16T08:50:47Z</time>
      </trkpt>
      <trkpt lat="45.63576" lon="6.59252">
        <ele>1760.31</ele>
        <time>2012-06-16T08:50:51Z</time>
      </trkpt>
      <trkpt lat="45.63574" lon="6.59255">
        <ele>1760.79</ele>
        <time>2012-06-16T08:50:53Z</time>
      </trkpt>
      <trkpt lat="45.63567" lon="6.59258">
        <ele>1761.27</ele>
        <time>2012-06-16T08:50:58Z</time>
      </trkpt>
      <trkpt lat="45.63549" lon="6.59255">
        <ele>1763.2</ele>
        <time>2012-06-16T08:51:11Z</time>
      </trkpt>
      <trkpt lat="45.63543" lon="6.59254">
        <ele>1763.68</ele>
        <time>2012-06-16T08:51:15Z</time>
      </trkpt>
      <trkpt lat="45.63516" lon="6.59259">
        <ele>1767.04</ele>
        <time>2012-06-16T08:51:34Z</time>
      </trkpt>
      <trkpt lat="45.63491" lon="6.59281">
        <ele>1768.96</ele>
        <time>2012-06-16T08:51:53Z</time>
      </trkpt>
      <trkpt lat="45.63464" lon="6.5929">
        <ele>1772.81</ele>
        <time>2012-06-16T08:52:12Z</time>
      </trkpt>
      <trkpt lat="45.63439" lon="6.59294">
        <ele>1774.73</ele>
        <time>2012-06-16T08:52:30Z</time>
      </trkpt>
      <trkpt lat="45.63414" lon="6.59302">
        <ele>1777.61</ele>
        <time>2012-06-16T08:52:48Z</time>
      </trkpt>
      <trkpt lat="45.63409" lon="6.59304">
        <ele>1778.1</ele>
        <time>2012-06-16T08:52:52Z</time>
      </trkpt>
      <trkpt lat="45.63384" lon="6.59304">
        <ele>1780.98</ele>
        <time>2012-06-16T08:53:09Z</time>
      </trkpt>
      <trkpt lat="45.63356" lon="6.59306">
        <ele>1783.86</ele>
        <time>2012-06-16T08:53:28Z</time>
      </trkpt>
      <trkpt lat="45.63339" lon="6.59314">
        <ele>1785.79</ele>
        <time>2012-06-16T08:53:40Z</time>
      </trkpt>
      <trkpt lat="45.63328" lon="6.59323">
        <ele>1786.75</ele>
        <time>2012-06-16T08:53:49Z</time>
      </trkpt>
      <trkpt lat="45.6331" lon="6.5935">
        <ele>1789.15</ele>
        <time>2012-06-16T08:54:06Z</time>
      </trkpt>
      <trkpt lat="45.6331" lon="6.59352">
        <ele>1790.11</ele>
        <time>2012-06-16T08:54:18Z</time>
      </trkpt>
      <trkpt lat="45.6331" lon="6.59351">
        <ele>1790.59</ele>
        <time>2012-06-16T08:54:47Z</time>
      </trkpt>
      <trkpt lat="45.6331" lon="6.59353">
        <ele>1790.59</ele>
        <time>2012-06-16T08:55:26Z</time>
      </trkpt>
      <trkpt lat="45.6331" lon="6.59354">
        <ele>1790.59</ele>
        <time>2012-06-16T08:55:46Z</time>
      </trkpt>
      <trkpt lat="45.63304" lon="6.59366">
        <ele>1790.59</ele>
        <time>2012-06-16T08:55:54Z</time>
      </trkpt>
      <trkpt lat="45.63295" lon="6.59382">
        <ele>1791.55</ele>
        <time>2012-06-16T08:56:04Z</time>
      </trkpt>
      <trkpt lat="45.6328" lon="6.5941">
        <ele>1793.96</ele>
        <time>2012-06-16T08:56:22Z</time>
      </trkpt>
      <trkpt lat="45.63263" lon="6.59441">
        <ele>1796.84</ele>
        <time>2012-06-16T08:56:42Z</time>
      </trkpt>
      <trkpt lat="45.63255" lon="6.59461">
        <ele>1798.76</ele>
        <time>2012-06-16T08:56:55Z</time>
      </trkpt>
      <trkpt lat="45.63254" lon="6.59467">
        <ele>1799.24</ele>
        <time>2012-06-16T08:56:58Z</time>
      </trkpt>
      <trkpt lat="45.63258" lon="6.59475">
        <ele>1799.73</ele>
        <time>2012-06-16T08:57:02Z</time>
      </trkpt>
      <trkpt lat="45.63265" lon="6.59477">
        <ele>1800.69</ele>
        <time>2012-06-16T08:57:07Z</time>
      </trkpt>
      <trkpt lat="45.63287" lon="6.5945">
        <ele>1802.13</ele>
        <time>2012-06-16T08:57:26Z</time>
      </trkpt>
      <trkpt lat="45.63306" lon="6.5943">
        <ele>1804.05</ele>
        <time>2012-06-16T08:57:42Z</time>
      </trkpt>
      <trkpt lat="45.63306" lon="6.59443">
        <ele>1805.01</ele>
        <time>2012-06-16T08:57:49Z</time>
      </trkpt>
      <trkpt lat="45.63304" lon="6.59447">
        <ele>1805.01</ele>
        <time>2012-06-16T08:57:51Z</time>
      </trkpt>
      <trkpt lat="45.633" lon="6.59452">
        <ele>1805.49</ele>
        <time>2012-06-16T08:57:55Z</time>
      </trkpt>
      <trkpt lat="45.63284" lon="6.59484">
        <ele>1808.38</ele>
        <time>2012-06-16T08:58:15Z</time>
      </trkpt>
      <trkpt lat="45.63275" lon="6.59511">
        <ele>1809.82</ele>
        <time>2012-06-16T08:58:30Z</time>
      </trkpt>
      <trkpt lat="45.63257" lon="6.59536">
        <ele>1812.22</ele>
        <time>2012-06-16T08:58:47Z</time>
      </trkpt>
      <trkpt lat="45.63254" lon="6.5954">
        <ele>1812.22</ele>
        <time>2012-06-16T08:58:50Z</time>
      </trkpt>
      <trkpt lat="45.63235" lon="6.59572">
        <ele>1815.11</ele>
        <time>2012-06-16T08:59:10Z</time>
      </trkpt>
      <trkpt lat="45.63225" lon="6.59611">
        <ele>1817.03</ele>
        <time>2012-06-16T08:59:29Z</time>
      </trkpt>
      <trkpt lat="45.63201" lon="6.5963">
        <ele>1818.95</ele>
        <time>2012-06-16T08:59:46Z</time>
      </trkpt>
      <trkpt lat="45.63198" lon="6.59632">
        <ele>1819.43</ele>
        <time>2012-06-16T08:59:48Z</time>
      </trkpt>
      <trkpt lat="45.63195" lon="6.59654">
        <ele>1821.35</ele>
        <time>2012-06-16T09:00:02Z</time>
      </trkpt>
      <trkpt lat="45.63195" lon="6.59654">
        <ele>1822.32</ele>
        <time>2012-06-16T09:00:28Z</time>
      </trkpt>
      <trkpt lat="45.63195" lon="6.59659">
        <ele>1822.32</ele>
        <time>2012-06-16T09:00:50Z</time>
      </trkpt>
      <trkpt lat="45.63194" lon="6.59663">
        <ele>1822.32</ele>
        <time>2012-06-16T09:00:52Z</time>
      </trkpt>
      <trkpt lat="45.63194" lon="6.59665">
        <ele>1822.32</ele>
        <time>2012-06-16T09:01:07Z</time>
      </trkpt>
      <trkpt lat="45.63195" lon="6.59665">
        <ele>1822.32</ele>
        <time>2012-06-16T09:01:37Z</time>
      </trkpt>
      <trkpt lat="45.63196" lon="6.59667">
        <ele>1822.8</ele>
        <time>2012-06-16T09:02:04Z</time>
      </trkpt>
      <trkpt lat="45.63196" lon="6.59667">
        <ele>1822.8</ele>
        <time>2012-06-16T09:02:36Z</time>
      </trkpt>
      <trkpt lat="45.63195" lon="6.59667">
        <ele>1822.8</ele>
        <time>2012-06-16T09:02:43Z</time>
      </trkpt>
      <trkpt lat="45.63199" lon="6.59659">
        <ele>1822.8</ele>
        <time>2012-06-16T09:02:48Z</time>
      </trkpt>
      <trkpt lat="45.63215" lon="6.59643">
        <ele>1822.8</ele>
        <time>2012-06-16T09:03:02Z</time>
      </trkpt>
      <trkpt lat="45.63218" lon="6.59641">
        <ele>1822.8</ele>
        <time>2012-06-16T09:03:04Z</time>
      </trkpt>
      <trkpt lat="45.63222" lon="6.59637">
        <ele>1823.28</ele>
        <time>2012-06-16T09:03:08Z</time>
      </trkpt>
      <trkpt lat="45.63226" lon="6.59635">
        <ele>1823.76</ele>
        <time>2012-06-16T09:03:12Z</time>
      </trkpt>
      <trkpt lat="45.63242" lon="6.59619">
        <ele>1825.68</ele>
        <time>2012-06-16T09:03:28Z</time>
      </trkpt>
      <trkpt lat="45.63257" lon="6.59605">
        <ele>1827.6</ele>
        <time>2012-06-16T09:03:43Z</time>
      </trkpt>
      <trkpt lat="45.6326" lon="6.59603">
        <ele>1827.12</ele>
        <time>2012-06-16T09:03:45Z</time>
      </trkpt>
      <trkpt lat="45.63274" lon="6.59593">
        <ele>1829.53</ele>
        <time>2012-06-16T09:04:04Z</time>
      </trkpt>
      <trkpt lat="45.63274" lon="6.59594">
        <ele>1830.01</ele>
        <time>2012-06-16T09:04:41Z</time>
      </trkpt>
      <trkpt lat="45.63274" lon="6.59594">
        <ele>1830.49</ele>
        <time>2012-06-16T09:05:11Z</time>
      </trkpt>
      <trkpt lat="45.63274" lon="6.59594">
        <ele>1830.49</ele>
        <time>2012-06-16T09:05:21Z</time>
      </trkpt>
      <trkpt lat="45.63287" lon="6.59586">
        <ele>1830.97</ele>
        <time>2012-06-16T09:05:32Z</time>
      </trkpt>
      <trkpt lat="45.63291" lon="6.59583">
        <ele>1830.97</ele>
        <time>2012-06-16T09:05:35Z</time>
      </trkpt>
      <trkpt lat="45.63313" lon="6.59568">
        <ele>1833.37</ele>
        <time>2012-06-16T09:05:53Z</time>
      </trkpt>
      <trkpt lat="45.63334" lon="6.59557">
        <ele>1834.33</ele>
        <time>2012-06-16T09:06:08Z</time>
      </trkpt>
      <trkpt lat="45.63339" lon="6.59553">
        <ele>1834.81</ele>
        <time>2012-06-16T09:06:12Z</time>
      </trkpt>
      <trkpt lat="45.63363" lon="6.59534">
        <ele>1836.26</ele>
        <time>2012-06-16T09:06:29Z</time>
      </trkpt>
      <trkpt lat="45.63384" lon="6.59518">
        <ele>1838.66</ele>
        <time>2012-06-16T09:06:45Z</time>
      </trkpt>
      <trkpt lat="45.63388" lon="6.59513">
        <ele>1839.14</ele>
        <time>2012-06-16T09:06:49Z</time>
      </trkpt>
      <trkpt lat="45.63393" lon="6.59508">
        <ele>1839.62</ele>
        <time>2012-06-16T09:06:54Z</time>
      </trkpt>
      <trkpt lat="45.63413" lon="6.59493">
        <ele>1842.02</ele>
        <time>2012-06-16T09:07:10Z</time>
      </trkpt>
      <trkpt lat="45.63437" lon="6.59487">
        <ele>1844.43</ele>
        <time>2012-06-16T09:07:26Z</time>
      </trkpt>
      <trkpt lat="45.63453" lon="6.59485">
        <ele>1845.39</ele>
        <time>2012-06-16T09:07:39Z</time>
      </trkpt>
      <trkpt lat="45.63461" lon="6.59484">
        <ele>1845.39</ele>
        <time>2012-06-16T09:07:45Z</time>
      </trkpt>
      <trkpt lat="45.63466" lon="6.59482">
        <ele>1845.87</ele>
        <time>2012-06-16T09:07:49Z</time>
      </trkpt>
      <trkpt lat="45.63486" lon="6.59478">
        <ele>1847.79</ele>
        <time>2012-06-16T09:08:05Z</time>
      </trkpt>
      <trkpt lat="45.63487" lon="6.59478">
        <ele>1848.27</ele>
        <time>2012-06-16T09:08:06Z</time>
      </trkpt>
      <trkpt lat="45.63493" lon="6.5948">
        <ele>1848.27</ele>
        <time>2012-06-16T09:08:11Z</time>
      </trkpt>
      <trkpt lat="45.63498" lon="6.59484">
        <ele>1848.75</ele>
        <time>2012-06-16T09:08:16Z</time>
      </trkpt>
      <trkpt lat="45.63502" lon="6.59492">
        <ele>1849.71</ele>
        <time>2012-06-16T09:08:22Z</time>
      </trkpt>
      <trkpt lat="45.63497" lon="6.59511">
        <ele>1850.68</ele>
        <time>2012-06-16T09:08:35Z</time>
      </trkpt>
      <trkpt lat="45.63479" lon="6.59517">
        <ele>1852.6</ele>
        <time>2012-06-16T09:08:49Z</time>
      </trkpt>
      <trkpt lat="45.63458" lon="6.59532">
        <ele>1854.52</ele>
        <time>2012-06-16T09:09:06Z</time>
      </trkpt>
      <trkpt lat="45.6344" lon="6.59543">
        <ele>1856.44</ele>
        <time>2012-06-16T09:09:21Z</time>
      </trkpt>
      <trkpt lat="45.63432" lon="6.5955">
        <ele>1857.4</ele>
        <time>2012-06-16T09:09:28Z</time>
      </trkpt>
      <trkpt lat="45.63411" lon="6.59574">
        <ele>1860.29</ele>
        <time>2012-06-16T09:09:47Z</time>
      </trkpt>
      <trkpt lat="45.63391" lon="6.59593">
        <ele>1862.21</ele>
        <time>2012-06-16T09:10:04Z</time>
      </trkpt>
      <trkpt lat="45.63389" lon="6.59594">
        <ele>1862.69</ele>
        <time>2012-06-16T09:10:05Z</time>
      </trkpt>
      <trkpt lat="45.63384" lon="6.59602">
        <ele>1863.17</ele>
        <time>2012-06-16T09:10:11Z</time>
      </trkpt>
      <trkpt lat="45.63372" lon="6.59634">
        <ele>1865.58</ele>
        <time>2012-06-16T09:10:29Z</time>
      </trkpt>
      <trkpt lat="45.63365" lon="6.59651">
        <ele>1867.02</ele>
        <time>2012-06-16T09:10:39Z</time>
      </trkpt>
      <trkpt lat="45.63364" lon="6.59654">
        <ele>1867.02</ele>
        <time>2012-06-16T09:10:41Z</time>
      </trkpt>
      <trkpt lat="45.63357" lon="6.59681">
        <ele>1869.42</ele>
        <time>2012-06-16T09:10:57Z</time>
      </trkpt>
      <trkpt lat="45.63349" lon="6.59707">
        <ele>1870.86</ele>
        <time>2012-06-16T09:11:12Z</time>
      </trkpt>
      <trkpt lat="45.63351" lon="6.59731">
        <ele>1872.79</ele>
        <time>2012-06-16T09:11:27Z</time>
      </trkpt>
      <trkpt lat="45.63366" lon="6.59713">
        <ele>1874.23</ele>
        <time>2012-06-16T09:11:42Z</time>
      </trkpt>
      <trkpt lat="45.63379" lon="6.59686">
        <ele>1875.67</ele>
        <time>2012-06-16T09:11:58Z</time>
      </trkpt>
      <trkpt lat="45.63405" lon="6.59668">
        <ele>1878.07</ele>
        <time>2012-06-16T09:12:17Z</time>
      </trkpt>
      <trkpt lat="45.63429" lon="6.59655">
        <ele>1880.48</ele>
        <time>2012-06-16T09:12:34Z</time>
      </trkpt>
      <trkpt lat="45.63453" lon="6.59647">
        <ele>1882.4</ele>
        <time>2012-06-16T09:12:51Z</time>
      </trkpt>
      <trkpt lat="45.63475" lon="6.59647">
        <ele>1884.8</ele>
        <time>2012-06-16T09:13:06Z</time>
      </trkpt>
      <trkpt lat="45.63497" lon="6.59652">
        <ele>1886.24</ele>
        <time>2012-06-16T09:13:21Z</time>
      </trkpt>
      <trkpt lat="45.63516" lon="6.59657">
        <ele>1888.17</ele>
        <time>2012-06-16T09:13:34Z</time>
      </trkpt>
      <trkpt lat="45.63526" lon="6.59654">
        <ele>1889.13</ele>
        <time>2012-06-16T09:13:41Z</time>
      </trkpt>
      <trkpt lat="45.63548" lon="6.59634">
        <ele>1891.53</ele>
        <time>2012-06-16T09:13:58Z</time>
      </trkpt>
      <trkpt lat="45.63567" lon="6.5962">
        <ele>1893.93</ele>
        <time>2012-06-16T09:14:12Z</time>
      </trkpt>
      <trkpt lat="45.63601" lon="6.59607">
        <ele>1896.34</ele>
        <time>2012-06-16T09:14:34Z</time>
      </trkpt>
      <trkpt lat="45.63623" lon="6.5961">
        <ele>1898.26</ele>
        <time>2012-06-16T09:14:49Z</time>
      </trkpt>
      <trkpt lat="45.6363" lon="6.59614">
        <ele>1898.74</ele>
        <time>2012-06-16T09:14:55Z</time>
      </trkpt>
      <trkpt lat="45.63634" lon="6.59617">
        <ele>1899.22</ele>
        <time>2012-06-16T09:14:59Z</time>
      </trkpt>
      <trkpt lat="45.63637" lon="6.59622">
        <ele>1899.7</ele>
        <time>2012-06-16T09:15:03Z</time>
      </trkpt>
      <trkpt lat="45.63657" lon="6.59641">
        <ele>1901.63</ele>
        <time>2012-06-16T09:15:20Z</time>
      </trkpt>
      <trkpt lat="45.63685" lon="6.59647">
        <ele>1903.55</ele>
        <time>2012-06-16T09:15:40Z</time>
      </trkpt>
      <trkpt lat="45.63707" lon="6.59656">
        <ele>1905.47</ele>
        <time>2012-06-16T09:15:56Z</time>
      </trkpt>
      <trkpt lat="45.63732" lon="6.59659">
        <ele>1907.39</ele>
        <time>2012-06-16T09:16:13Z</time>
      </trkpt>
      <trkpt lat="45.63755" lon="6.59658">
        <ele>1908.83</ele>
        <time>2012-06-16T09:16:30Z</time>
      </trkpt>
      <trkpt lat="45.63762" lon="6.59662">
        <ele>1909.8</ele>
        <time>2012-06-16T09:16:35Z</time>
      </trkpt>
      <trkpt lat="45.63761" lon="6.59674">
        <ele>1910.76</ele>
        <time>2012-06-16T09:16:42Z</time>
      </trkpt>
      <trkpt lat="45.63733" lon="6.59688">
        <ele>1913.16</ele>
        <time>2012-06-16T09:17:02Z</time>
      </trkpt>
      <trkpt lat="45.63709" lon="6.59696">
        <ele>1915.08</ele>
        <time>2012-06-16T09:17:19Z</time>
      </trkpt>
      <trkpt lat="45.6369" lon="6.59691">
        <ele>1917.01</ele>
        <time>2012-06-16T09:17:33Z</time>
      </trkpt>
      <trkpt lat="45.63685" lon="6.5969">
        <ele>1917.49</ele>
        <time>2012-06-16T09:17:37Z</time>
      </trkpt>
      <trkpt lat="45.63658" lon="6.59702">
        <ele>1919.89</ele>
        <time>2012-06-16T09:17:56Z</time>
      </trkpt>
      <trkpt lat="45.63627" lon="6.59716">
        <ele>1921.81</ele>
        <time>2012-06-16T09:18:17Z</time>
      </trkpt>
      <trkpt lat="45.63604" lon="6.59724">
        <ele>1924.22</ele>
        <time>2012-06-16T09:18:33Z</time>
      </trkpt>
      <trkpt lat="45.6359" lon="6.59724">
        <ele>1925.18</ele>
        <time>2012-06-16T09:18:44Z</time>
      </trkpt>
      <trkpt lat="45.63581" lon="6.59728">
        <ele>1926.14</ele>
        <time>2012-06-16T09:18:51Z</time>
      </trkpt>
      <trkpt lat="45.63573" lon="6.59739">
        <ele>1928.06</ele>
        <time>2012-06-16T09:19:00Z</time>
      </trkpt>
      <trkpt lat="45.63574" lon="6.59752">
        <ele>1929.5</ele>
        <time>2012-06-16T09:19:07Z</time>
      </trkpt>
      <trkpt lat="45.63592" lon="6.59768">
        <ele>1930.95</ele>
        <time>2012-06-16T09:19:22Z</time>
      </trkpt>
      <trkpt lat="45.63615" lon="6.59776">
        <ele>1931.43</ele>
        <time>2012-06-16T09:19:38Z</time>
      </trkpt>
      <trkpt lat="45.63616" lon="6.59777">
        <ele>1931.43</ele>
        <time>2012-06-16T09:19:39Z</time>
      </trkpt>
      <trkpt lat="45.63623" lon="6.59777">
        <ele>1931.91</ele>
        <time>2012-06-16T09:19:44Z</time>
      </trkpt>
      <trkpt lat="45.63644" lon="6.59766">
        <ele>1933.83</ele>
        <time>2012-06-16T09:20:00Z</time>
      </trkpt>
      <trkpt lat="45.63666" lon="6.59766">
        <ele>1935.27</ele>
        <time>2012-06-16T09:20:16Z</time>
      </trkpt>
      <trkpt lat="45.63684" lon="6.59772">
        <ele>1937.67</ele>
        <time>2012-06-16T09:20:32Z</time>
      </trkpt>
      <trkpt lat="45.63686" lon="6.59773">
        <ele>1937.67</ele>
        <time>2012-06-16T09:20:34Z</time>
      </trkpt>
      <trkpt lat="45.63694" lon="6.598">
        <ele>1939.6</ele>
        <time>2012-06-16T09:20:51Z</time>
      </trkpt>
      <trkpt lat="45.63708" lon="6.59823">
        <ele>1942</ele>
        <time>2012-06-16T09:21:08Z</time>
      </trkpt>
      <trkpt lat="45.63729" lon="6.59834">
        <ele>1944.4</ele>
        <time>2012-06-16T09:21:24Z</time>
      </trkpt>
      <trkpt lat="45.63754" lon="6.59838">
        <ele>1946.81</ele>
        <time>2012-06-16T09:21:41Z</time>
      </trkpt>
      <trkpt lat="45.63773" lon="6.59859">
        <ele>1948.73</ele>
        <time>2012-06-16T09:21:58Z</time>
      </trkpt>
      <trkpt lat="45.63793" lon="6.59879">
        <ele>1951.61</ele>
        <time>2012-06-16T09:22:17Z</time>
      </trkpt>
      <trkpt lat="45.63817" lon="6.59891">
        <ele>1953.54</ele>
        <time>2012-06-16T09:22:36Z</time>
      </trkpt>
      <trkpt lat="45.63829" lon="6.59912">
        <ele>1955.46</ele>
        <time>2012-06-16T09:22:53Z</time>
      </trkpt>
      <trkpt lat="45.63812" lon="6.59922">
        <ele>1956.9</ele>
        <time>2012-06-16T09:23:07Z</time>
      </trkpt>
      <trkpt lat="45.63793" lon="6.59927">
        <ele>1959.3</ele>
        <time>2012-06-16T09:23:22Z</time>
      </trkpt>
      <trkpt lat="45.6377" lon="6.59931">
        <ele>1960.75</ele>
        <time>2012-06-16T09:23:39Z</time>
      </trkpt>
      <trkpt lat="45.63749" lon="6.59932">
        <ele>1962.67</ele>
        <time>2012-06-16T09:23:55Z</time>
      </trkpt>
      <trkpt lat="45.63726" lon="6.59936">
        <ele>1965.07</ele>
        <time>2012-06-16T09:24:13Z</time>
      </trkpt>
      <trkpt lat="45.63703" lon="6.59935">
        <ele>1966.99</ele>
        <time>2012-06-16T09:24:31Z</time>
      </trkpt>
      <trkpt lat="45.63681" lon="6.59934">
        <ele>1969.88</ele>
        <time>2012-06-16T09:24:48Z</time>
      </trkpt>
      <trkpt lat="45.63661" lon="6.59948">
        <ele>1972.28</ele>
        <time>2012-06-16T09:25:04Z</time>
      </trkpt>
      <trkpt lat="45.63645" lon="6.59965">
        <ele>1974.2</ele>
        <time>2012-06-16T09:25:19Z</time>
      </trkpt>
      <trkpt lat="45.6363" lon="6.59981">
        <ele>1975.65</ele>
        <time>2012-06-16T09:25:33Z</time>
      </trkpt>
      <trkpt lat="45.63612" lon="6.59997">
        <ele>1978.05</ele>
        <time>2012-06-16T09:25:49Z</time>
      </trkpt>
      <trkpt lat="45.63594" lon="6.60018">
        <ele>1980.45</ele>
        <time>2012-06-16T09:26:06Z</time>
      </trkpt>
      <trkpt lat="45.63589" lon="6.60026">
        <ele>1981.9</ele>
        <time>2012-06-16T09:26:14Z</time>
      </trkpt>
      <trkpt lat="45.63584" lon="6.60032">
        <ele>1982.38</ele>
        <time>2012-06-16T09:26:19Z</time>
      </trkpt>
      <trkpt lat="45.63572" lon="6.60054">
        <ele>1984.3</ele>
        <time>2012-06-16T09:26:34Z</time>
      </trkpt>
      <trkpt lat="45.63568" lon="6.6006">
        <ele>1984.78</ele>
        <time>2012-06-16T09:26:38Z</time>
      </trkpt>
      <trkpt lat="45.63565" lon="6.60072">
        <ele>1986.22</ele>
        <time>2012-06-16T09:26:45Z</time>
      </trkpt>
      <trkpt lat="45.63568" lon="6.60105">
        <ele>1988.14</ele>
        <time>2012-06-16T09:27:01Z</time>
      </trkpt>
      <trkpt lat="45.63565" lon="6.60135">
        <ele>1989.59</ele>
        <time>2012-06-16T09:27:16Z</time>
      </trkpt>
      <trkpt lat="45.63551" lon="6.60163">
        <ele>1991.99</ele>
        <time>2012-06-16T09:27:33Z</time>
      </trkpt>
      <trkpt lat="45.63545" lon="6.60171">
        <ele>1993.91</ele>
        <time>2012-06-16T09:27:46Z</time>
      </trkpt>
      <trkpt lat="45.63545" lon="6.60173">
        <ele>1993.43</ele>
        <time>2012-06-16T09:27:49Z</time>
      </trkpt>
      <trkpt lat="45.63545" lon="6.60176">
        <ele>1994.39</ele>
        <time>2012-06-16T09:28:05Z</time>
      </trkpt>
      <trkpt lat="45.63547" lon="6.60177">
        <ele>1994.39</ele>
        <time>2012-06-16T09:28:25Z</time>
      </trkpt>
      <trkpt lat="45.6355" lon="6.60178">
        <ele>1994.39</ele>
        <time>2012-06-16T09:29:05Z</time>
      </trkpt>
      <trkpt lat="45.63552" lon="6.60178">
        <ele>1994.87</ele>
        <time>2012-06-16T09:29:34Z</time>
      </trkpt>
      <trkpt lat="45.63553" lon="6.60177">
        <ele>1994.87</ele>
        <time>2012-06-16T09:29:57Z</time>
      </trkpt>
      <trkpt lat="45.63549" lon="6.60178">
        <ele>1994.87</ele>
        <time>2012-06-16T09:30:06Z</time>
      </trkpt>
      <trkpt lat="45.63536" lon="6.60188">
        <ele>1995.83</ele>
        <time>2012-06-16T09:30:24Z</time>
      </trkpt>
      <trkpt lat="45.63534" lon="6.60191">
        <ele>1995.83</ele>
        <time>2012-06-16T09:30:39Z</time>
      </trkpt>
      <trkpt lat="45.63523" lon="6.60205">
        <ele>1997.28</ele>
        <time>2012-06-16T09:30:54Z</time>
      </trkpt>
      <trkpt lat="45.63519" lon="6.60212">
        <ele>1997.76</ele>
        <time>2012-06-16T09:31:00Z</time>
      </trkpt>
      <trkpt lat="45.63515" lon="6.60221">
        <ele>1998.24</ele>
        <time>2012-06-16T09:31:08Z</time>
      </trkpt>
      <trkpt lat="45.63512" lon="6.60227">
        <ele>1998.72</ele>
        <time>2012-06-16T09:31:13Z</time>
      </trkpt>
      <trkpt lat="45.63509" lon="6.60235">
        <ele>1999.2</ele>
        <time>2012-06-16T09:31:19Z</time>
      </trkpt>
      <trkpt lat="45.63506" lon="6.60248">
        <ele>2000.16</ele>
        <time>2012-06-16T09:31:28Z</time>
      </trkpt>
      <trkpt lat="45.635" lon="6.60278">
        <ele>2002.08</ele>
        <time>2012-06-16T09:31:48Z</time>
      </trkpt>
      <trkpt lat="45.635" lon="6.60281">
        <ele>2002.08</ele>
        <time>2012-06-16T09:31:50Z</time>
      </trkpt>
      <trkpt lat="45.635" lon="6.60294">
        <ele>2003.52</ele>
        <time>2012-06-16T09:31:58Z</time>
      </trkpt>
      <trkpt lat="45.63501" lon="6.60301">
        <ele>2004.01</ele>
        <time>2012-06-16T09:32:02Z</time>
      </trkpt>
      <trkpt lat="45.63501" lon="6.60317">
        <ele>2004.49</ele>
        <time>2012-06-16T09:32:12Z</time>
      </trkpt>
      <trkpt lat="45.63502" lon="6.6032">
        <ele>2004.97</ele>
        <time>2012-06-16T09:32:14Z</time>
      </trkpt>
      <trkpt lat="45.63501" lon="6.6033">
        <ele>2005.45</ele>
        <time>2012-06-16T09:32:20Z</time>
      </trkpt>
      <trkpt lat="45.63501" lon="6.60333">
        <ele>2005.45</ele>
        <time>2012-06-16T09:32:22Z</time>
      </trkpt>
      <trkpt lat="45.63501" lon="6.60339">
        <ele>2005.93</ele>
        <time>2012-06-16T09:32:26Z</time>
      </trkpt>
      <trkpt lat="45.63505" lon="6.60363">
        <ele>2007.85</ele>
        <time>2012-06-16T09:32:43Z</time>
      </trkpt>
      <trkpt lat="45.6351" lon="6.60366">
        <ele>2008.33</ele>
        <time>2012-06-16T09:32:47Z</time>
      </trkpt>
      <trkpt lat="45.63519" lon="6.60352">
        <ele>2009.77</ele>
        <time>2012-06-16T09:32:58Z</time>
      </trkpt>
      <trkpt lat="45.63526" lon="6.60335">
        <ele>2010.73</ele>
        <time>2012-06-16T09:33:10Z</time>
      </trkpt>
      <trkpt lat="45.6354" lon="6.60341">
        <ele>2012.18</ele>
        <time>2012-06-16T09:33:24Z</time>
      </trkpt>
      <trkpt lat="45.63546" lon="6.6035">
        <ele>2013.62</ele>
        <time>2012-06-16T09:33:32Z</time>
      </trkpt>
      <trkpt lat="45.63555" lon="6.60364">
        <ele>2014.58</ele>
        <time>2012-06-16T09:33:43Z</time>
      </trkpt>
      <trkpt lat="45.63561" lon="6.60372">
        <ele>2015.54</ele>
        <time>2012-06-16T09:33:55Z</time>
      </trkpt>
      <trkpt lat="45.6356" lon="6.60372">
        <ele>2016.02</ele>
        <time>2012-06-16T09:34:12Z</time>
      </trkpt>
      <trkpt lat="45.63561" lon="6.60373">
        <ele>2016.02</ele>
        <time>2012-06-16T09:34:44Z</time>
      </trkpt>
      <trkpt lat="45.63564" lon="6.60376">
        <ele>2016.5</ele>
        <time>2012-06-16T09:35:00Z</time>
      </trkpt>
      <trkpt lat="45.63564" lon="6.60376">
        <ele>2016.98</ele>
        <time>2012-06-16T09:35:28Z</time>
      </trkpt>
      <trkpt lat="45.63568" lon="6.60378">
        <ele>2016.98</ele>
        <time>2012-06-16T09:35:54Z</time>
      </trkpt>
      <trkpt lat="45.63573" lon="6.60381">
        <ele>2016.98</ele>
        <time>2012-06-16T09:35:59Z</time>
      </trkpt>
      <trkpt lat="45.63589" lon="6.60386">
        <ele>2017.94</ele>
        <time>2012-06-16T09:36:17Z</time>
      </trkpt>
      <trkpt lat="45.6359" lon="6.60386">
        <ele>2018.43</ele>
        <time>2012-06-16T09:36:44Z</time>
      </trkpt>
      <trkpt lat="45.6359" lon="6.60386">
        <ele>2018.43</ele>
        <time>2012-06-16T09:36:52Z</time>
      </trkpt>
      <trkpt lat="45.63591" lon="6.60386">
        <ele>2018.91</ele>
        <time>2012-06-16T09:36:56Z</time>
      </trkpt>
      <trkpt lat="45.63603" lon="6.60382">
        <ele>2019.39</ele>
        <time>2012-06-16T09:37:11Z</time>
      </trkpt>
      <trkpt lat="45.63611" lon="6.60376">
        <ele>2020.35</ele>
        <time>2012-06-16T09:37:24Z</time>
      </trkpt>
      <trkpt lat="45.6362" lon="6.60371">
        <ele>2020.83</ele>
        <time>2012-06-16T09:37:32Z</time>
      </trkpt>
      <trkpt lat="45.63631" lon="6.60363">
        <ele>2021.79</ele>
        <time>2012-06-16T09:37:43Z</time>
      </trkpt>
      <trkpt lat="45.63635" lon="6.60358">
        <ele>2021.79</ele>
        <time>2012-06-16T09:37:47Z</time>
      </trkpt>
      <trkpt lat="45.63641" lon="6.60349">
        <ele>2022.75</ele>
        <time>2012-06-16T09:37:54Z</time>
      </trkpt>
      <trkpt lat="45.63653" lon="6.60328">
        <ele>2023.71</ele>
        <time>2012-06-16T09:38:09Z</time>
      </trkpt>
      <trkpt lat="45.63666" lon="6.60303">
        <ele>2025.64</ele>
        <time>2012-06-16T09:38:26Z</time>
      </trkpt>
      <trkpt lat="45.63672" lon="6.60274">
        <ele>2026.6</ele>
        <time>2012-06-16T09:38:42Z</time>
      </trkpt>
      <trkpt lat="45.63677" lon="6.60251">
        <ele>2027.56</ele>
        <time>2012-06-16T09:38:56Z</time>
      </trkpt>
      <trkpt lat="45.6368" lon="6.6024">
        <ele>2029</ele>
        <time>2012-06-16T09:39:04Z</time>
      </trkpt>
      <trkpt lat="45.63683" lon="6.60231">
        <ele>2029.48</ele>
        <time>2012-06-16T09:39:10Z</time>
      </trkpt>
      <trkpt lat="45.63689" lon="6.60207">
        <ele>2030.92</ele>
        <time>2012-06-16T09:39:25Z</time>
      </trkpt>
      <trkpt lat="45.63689" lon="6.60205">
        <ele>2030.92</ele>
        <time>2012-06-16T09:39:26Z</time>
      </trkpt>
      <trkpt lat="45.63696" lon="6.60185">
        <ele>2031.88</ele>
        <time>2012-06-16T09:39:39Z</time>
      </trkpt>
      <trkpt lat="45.63697" lon="6.60184">
        <ele>2031.88</ele>
        <time>2012-06-16T09:39:40Z</time>
      </trkpt>
      <trkpt lat="45.63711" lon="6.60176">
        <ele>2033.81</ele>
        <time>2012-06-16T09:39:53Z</time>
      </trkpt>
      <trkpt lat="45.63721" lon="6.60181">
        <ele>2034.77</ele>
        <time>2012-06-16T09:40:03Z</time>
      </trkpt>
      <trkpt lat="45.63727" lon="6.60191">
        <ele>2035.73</ele>
        <time>2012-06-16T09:40:12Z</time>
      </trkpt>
      <trkpt lat="45.63732" lon="6.60221">
        <ele>2037.17</ele>
        <time>2012-06-16T09:40:31Z</time>
      </trkpt>
      <trkpt lat="45.63738" lon="6.60251">
        <ele>2039.09</ele>
        <time>2012-06-16T09:40:49Z</time>
      </trkpt>
      <trkpt lat="45.63743" lon="6.60272">
        <ele>2040.05</ele>
        <time>2012-06-16T09:41:01Z</time>
      </trkpt>
      <trkpt lat="45.63744" lon="6.6028">
        <ele>2040.54</ele>
        <time>2012-06-16T09:41:05Z</time>
      </trkpt>
      <trkpt lat="45.63746" lon="6.60311">
        <ele>2041.98</ele>
        <time>2012-06-16T09:41:21Z</time>
      </trkpt>
      <trkpt lat="45.63747" lon="6.60321">
        <ele>2042.94</ele>
        <time>2012-06-16T09:41:34Z</time>
      </trkpt>
      <trkpt lat="45.6375" lon="6.60321">
        <ele>2042.94</ele>
        <time>2012-06-16T09:42:05Z</time>
      </trkpt>
      <trkpt lat="45.6375" lon="6.6032">
        <ele>2043.42</ele>
        <time>2012-06-16T09:42:23Z</time>
      </trkpt>
      <trkpt lat="45.6375" lon="6.60323">
        <ele>2043.42</ele>
        <time>2012-06-16T09:42:26Z</time>
      </trkpt>
      <trkpt lat="45.63749" lon="6.60334">
        <ele>2043.9</ele>
        <time>2012-06-16T09:42:33Z</time>
      </trkpt>
      <trkpt lat="45.63748" lon="6.60341">
        <ele>2044.38</ele>
        <time>2012-06-16T09:42:36Z</time>
      </trkpt>
      <trkpt lat="45.63747" lon="6.6037">
        <ele>2045.82</ele>
        <time>2012-06-16T09:42:52Z</time>
      </trkpt>
      <trkpt lat="45.63746" lon="6.60377">
        <ele>2046.3</ele>
        <time>2012-06-16T09:42:56Z</time>
      </trkpt>
      <trkpt lat="45.63744" lon="6.60384">
        <ele>2046.78</ele>
        <time>2012-06-16T09:43:01Z</time>
      </trkpt>
      <trkpt lat="45.63741" lon="6.60396">
        <ele>2047.26</ele>
        <time>2012-06-16T09:43:08Z</time>
      </trkpt>
      <trkpt lat="45.63737" lon="6.60408">
        <ele>2047.75</ele>
        <time>2012-06-16T09:43:15Z</time>
      </trkpt>
      <trkpt lat="45.63737" lon="6.60412">
        <ele>2047.75</ele>
        <time>2012-06-16T09:43:17Z</time>
      </trkpt>
      <trkpt lat="45.63735" lon="6.60421">
        <ele>2048.23</ele>
        <time>2012-06-16T09:43:22Z</time>
      </trkpt>
      <trkpt lat="45.63733" lon="6.60457">
        <ele>2050.63</ele>
        <time>2012-06-16T09:43:43Z</time>
      </trkpt>
      <trkpt lat="45.63733" lon="6.60459">
        <ele>2050.63</ele>
        <time>2012-06-16T09:43:44Z</time>
      </trkpt>
      <trkpt lat="45.63732" lon="6.60466">
        <ele>2051.11</ele>
        <time>2012-06-16T09:43:49Z</time>
      </trkpt>
      <trkpt lat="45.63733" lon="6.60497">
        <ele>2052.55</ele>
        <time>2012-06-16T09:44:07Z</time>
      </trkpt>
      <trkpt lat="45.63731" lon="6.60528">
        <ele>2054.47</ele>
        <time>2012-06-16T09:44:23Z</time>
      </trkpt>
      <trkpt lat="45.63729" lon="6.60556">
        <ele>2056.4</ele>
        <time>2012-06-16T09:44:38Z</time>
      </trkpt>
      <trkpt lat="45.63723" lon="6.60589">
        <ele>2058.32</ele>
        <time>2012-06-16T09:44:54Z</time>
      </trkpt>
      <trkpt lat="45.63709" lon="6.60621">
        <ele>2060.24</ele>
        <time>2012-06-16T09:45:13Z</time>
      </trkpt>
      <trkpt lat="45.63691" lon="6.60644">
        <ele>2061.68</ele>
        <time>2012-06-16T09:45:29Z</time>
      </trkpt>
      <trkpt lat="45.63673" lon="6.6066">
        <ele>2063.13</ele>
        <time>2012-06-16T09:45:43Z</time>
      </trkpt>
      <trkpt lat="45.63658" lon="6.6067">
        <ele>2064.09</ele>
        <time>2012-06-16T09:45:55Z</time>
      </trkpt>
      <trkpt lat="45.63635" lon="6.60671">
        <ele>2065.53</ele>
        <time>2012-06-16T09:46:14Z</time>
      </trkpt>
      <trkpt lat="45.63606" lon="6.60677">
        <ele>2067.45</ele>
        <time>2012-06-16T09:46:34Z</time>
      </trkpt>
      <trkpt lat="45.63588" lon="6.60684">
        <ele>2068.41</ele>
        <time>2012-06-16T09:46:48Z</time>
      </trkpt>
      <trkpt lat="45.63565" lon="6.60694">
        <ele>2069.86</ele>
        <time>2012-06-16T09:47:05Z</time>
      </trkpt>
      <trkpt lat="45.63543" lon="6.60706">
        <ele>2071.78</ele>
        <time>2012-06-16T09:47:22Z</time>
      </trkpt>
      <trkpt lat="45.6352" lon="6.60713">
        <ele>2073.22</ele>
        <time>2012-06-16T09:47:38Z</time>
      </trkpt>
      <trkpt lat="45.63498" lon="6.60707">
        <ele>2075.14</ele>
        <time>2012-06-16T09:47:54Z</time>
      </trkpt>
      <trkpt lat="45.63475" lon="6.60705">
        <ele>2076.59</ele>
        <time>2012-06-16T09:48:11Z</time>
      </trkpt>
      <trkpt lat="45.63452" lon="6.60714">
        <ele>2078.99</ele>
        <time>2012-06-16T09:48:27Z</time>
      </trkpt>
      <trkpt lat="45.6343" lon="6.60732">
        <ele>2080.43</ele>
        <time>2012-06-16T09:48:44Z</time>
      </trkpt>
      <trkpt lat="45.63429" lon="6.60733">
        <ele>2080.43</ele>
        <time>2012-06-16T09:48:45Z</time>
      </trkpt>
      <trkpt lat="45.63425" lon="6.60739">
        <ele>2080.91</ele>
        <time>2012-06-16T09:48:49Z</time>
      </trkpt>
      <trkpt lat="45.63419" lon="6.60766">
        <ele>2082.83</ele>
        <time>2012-06-16T09:49:04Z</time>
      </trkpt>
      <trkpt lat="45.63437" lon="6.60774">
        <ele>2084.28</ele>
        <time>2012-06-16T09:49:19Z</time>
      </trkpt>
      <trkpt lat="45.63461" lon="6.60762">
        <ele>2086.68</ele>
        <time>2012-06-16T09:49:36Z</time>
      </trkpt>
      <trkpt lat="45.63464" lon="6.60762">
        <ele>2087.16</ele>
        <time>2012-06-16T09:49:38Z</time>
      </trkpt>
      <trkpt lat="45.63488" lon="6.60782">
        <ele>2088.6</ele>
        <time>2012-06-16T09:49:56Z</time>
      </trkpt>
      <trkpt lat="45.63515" lon="6.60788">
        <ele>2090.52</ele>
        <time>2012-06-16T09:50:13Z</time>
      </trkpt>
      <trkpt lat="45.63539" lon="6.60805">
        <ele>2092.45</ele>
        <time>2012-06-16T09:50:31Z</time>
      </trkpt>
      <trkpt lat="45.63554" lon="6.60829">
        <ele>2094.85</ele>
        <time>2012-06-16T09:50:47Z</time>
      </trkpt>
      <trkpt lat="45.63569" lon="6.60864">
        <ele>2097.25</ele>
        <time>2012-06-16T09:51:06Z</time>
      </trkpt>
      <trkpt lat="45.63584" lon="6.60892">
        <ele>2098.7</ele>
        <time>2012-06-16T09:51:23Z</time>
      </trkpt>
      <trkpt lat="45.6361" lon="6.60895">
        <ele>2100.62</ele>
        <time>2012-06-16T09:51:40Z</time>
      </trkpt>
      <trkpt lat="45.63634" lon="6.60882">
        <ele>2102.06</ele>
        <time>2012-06-16T09:51:56Z</time>
      </trkpt>
      <trkpt lat="45.6364" lon="6.60879">
        <ele>2103.02</ele>
        <time>2012-06-16T09:52:00Z</time>
      </trkpt>
      <trkpt lat="45.63661" lon="6.60863">
        <ele>2103.98</ele>
        <time>2012-06-16T09:52:15Z</time>
      </trkpt>
      <trkpt lat="45.63686" lon="6.60839">
        <ele>2106.39</ele>
        <time>2012-06-16T09:52:35Z</time>
      </trkpt>
      <trkpt lat="45.63703" lon="6.60828">
        <ele>2107.83</ele>
        <time>2012-06-16T09:52:51Z</time>
      </trkpt>
      <trkpt lat="45.63719" lon="6.60817">
        <ele>2109.75</ele>
        <time>2012-06-16T09:53:06Z</time>
      </trkpt>
      <trkpt lat="45.63733" lon="6.60807">
        <ele>2110.71</ele>
        <time>2012-06-16T09:53:20Z</time>
      </trkpt>
      <trkpt lat="45.63737" lon="6.60804">
        <ele>2111.19</ele>
        <time>2012-06-16T09:53:24Z</time>
      </trkpt>
      <trkpt lat="45.63754" lon="6.60789">
        <ele>2113.12</ele>
        <time>2012-06-16T09:53:40Z</time>
      </trkpt>
      <trkpt lat="45.63775" lon="6.60772">
        <ele>2114.56</ele>
        <time>2012-06-16T09:53:57Z</time>
      </trkpt>
      <trkpt lat="45.63793" lon="6.60756">
        <ele>2116.48</ele>
        <time>2012-06-16T09:54:12Z</time>
      </trkpt>
      <trkpt lat="45.6382" lon="6.60747">
        <ele>2117.92</ele>
        <time>2012-06-16T09:54:31Z</time>
      </trkpt>
      <trkpt lat="45.63832" lon="6.60746">
        <ele>2118.88</ele>
        <time>2012-06-16T09:54:44Z</time>
      </trkpt>
      <trkpt lat="45.63833" lon="6.60746">
        <ele>2118.88</ele>
        <time>2012-06-16T09:54:45Z</time>
      </trkpt>
      <trkpt lat="45.63835" lon="6.60747">
        <ele>2118.88</ele>
        <time>2012-06-16T09:54:47Z</time>
      </trkpt>
      <trkpt lat="45.63851" lon="6.60746">
        <ele>2120.32</ele>
        <time>2012-06-16T09:54:59Z</time>
      </trkpt>
      <trkpt lat="45.6386" lon="6.60745">
        <ele>2120.81</ele>
        <time>2012-06-16T09:55:06Z</time>
      </trkpt>
      <trkpt lat="45.63868" lon="6.60739">
        <ele>2121.29</ele>
        <time>2012-06-16T09:55:13Z</time>
      </trkpt>
      <trkpt lat="45.63876" lon="6.60726">
        <ele>2121.77</ele>
        <time>2012-06-16T09:55:23Z</time>
      </trkpt>
      <trkpt lat="45.63884" lon="6.60731">
        <ele>2122.25</ele>
        <time>2012-06-16T09:55:29Z</time>
      </trkpt>
      <trkpt lat="45.63885" lon="6.60739">
        <ele>2123.21</ele>
        <time>2012-06-16T09:55:33Z</time>
      </trkpt>
      <trkpt lat="45.63881" lon="6.60753">
        <ele>2124.65</ele>
        <time>2012-06-16T09:55:42Z</time>
      </trkpt>
      <trkpt lat="45.63874" lon="6.60767">
        <ele>2126.09</ele>
        <time>2012-06-16T09:55:53Z</time>
      </trkpt>
      <trkpt lat="45.63865" lon="6.60778">
        <ele>2128.5</ele>
        <time>2012-06-16T09:56:06Z</time>
      </trkpt>
      <trkpt lat="45.63852" lon="6.60789">
        <ele>2130.9</ele>
        <time>2012-06-16T09:56:21Z</time>
      </trkpt>
      <trkpt lat="45.63848" lon="6.60793">
        <ele>2131.38</ele>
        <time>2012-06-16T09:56:26Z</time>
      </trkpt>
      <trkpt lat="45.63844" lon="6.608">
        <ele>2132.34</ele>
        <time>2012-06-16T09:56:33Z</time>
      </trkpt>
      <trkpt lat="45.63835" lon="6.60813">
        <ele>2133.3</ele>
        <time>2012-06-16T09:56:45Z</time>
      </trkpt>
      <trkpt lat="45.6383" lon="6.6082">
        <ele>2133.78</ele>
        <time>2012-06-16T09:56:50Z</time>
      </trkpt>
      <trkpt lat="45.63805" lon="6.60842">
        <ele>2136.19</ele>
        <time>2012-06-16T09:57:10Z</time>
      </trkpt>
      <trkpt lat="45.63784" lon="6.60858">
        <ele>2138.59</ele>
        <time>2012-06-16T09:57:25Z</time>
      </trkpt>
      <trkpt lat="45.63779" lon="6.6089">
        <ele>2140.51</ele>
        <time>2012-06-16T09:57:42Z</time>
      </trkpt>
      <trkpt lat="45.63766" lon="6.60917">
        <ele>2142.92</ele>
        <time>2012-06-16T09:58:01Z</time>
      </trkpt>
      <trkpt lat="45.63754" lon="6.60941">
        <ele>2144.84</ele>
        <time>2012-06-16T09:58:17Z</time>
      </trkpt>
      <trkpt lat="45.63737" lon="6.6096">
        <ele>2146.76</ele>
        <time>2012-06-16T09:58:33Z</time>
      </trkpt>
      <trkpt lat="45.63731" lon="6.60964">
        <ele>2148.2</ele>
        <time>2012-06-16T09:58:47Z</time>
      </trkpt>
      <trkpt lat="45.63732" lon="6.60966">
        <ele>2148.68</ele>
        <time>2012-06-16T09:58:56Z</time>
      </trkpt>
      <trkpt lat="45.63733" lon="6.60966">
        <ele>2149.16</ele>
        <time>2012-06-16T09:59:20Z</time>
      </trkpt>
      <trkpt lat="45.63734" lon="6.60965">
        <ele>2149.16</ele>
        <time>2012-06-16T09:59:49Z</time>
      </trkpt>
      <trkpt lat="45.63734" lon="6.60965">
        <ele>2149.16</ele>
        <time>2012-06-16T10:00:17Z</time>
      </trkpt>
      <trkpt lat="45.63734" lon="6.60966">
        <ele>2149.65</ele>
        <time>2012-06-16T10:00:50Z</time>
      </trkpt>
      <trkpt lat="45.63734" lon="6.60966">
        <ele>2149.65</ele>
        <time>2012-06-16T10:01:21Z</time>
      </trkpt>
      <trkpt lat="45.63734" lon="6.60966">
        <ele>2150.13</ele>
        <time>2012-06-16T10:01:51Z</time>
      </trkpt>
      <trkpt lat="45.63733" lon="6.60967">
        <ele>2150.13</ele>
        <time>2012-06-16T10:02:19Z</time>
      </trkpt>
      <trkpt lat="45.63733" lon="6.60969">
        <ele>2150.13</ele>
        <time>2012-06-16T10:02:53Z</time>
      </trkpt>
      <trkpt lat="45.63732" lon="6.60969">
        <ele>2150.61</ele>
        <time>2012-06-16T10:03:28Z</time>
      </trkpt>
      <trkpt lat="45.63732" lon="6.60967">
        <ele>2150.61</ele>
        <time>2012-06-16T10:04:02Z</time>
      </trkpt>
      <trkpt lat="45.63734" lon="6.60967">
        <ele>2150.61</ele>
        <time>2012-06-16T10:04:38Z</time>
      </trkpt>
      <trkpt lat="45.63734" lon="6.60967">
        <ele>2151.09</ele>
        <time>2012-06-16T10:05:09Z</time>
      </trkpt>
      <trkpt lat="45.63735" lon="6.60967">
        <ele>2151.09</ele>
        <time>2012-06-16T10:05:30Z</time>
      </trkpt>
      <trkpt lat="45.63737" lon="6.60966">
        <ele>2151.09</ele>
        <time>2012-06-16T10:05:32Z</time>
      </trkpt>
      <trkpt lat="45.63746" lon="6.60964">
        <ele>2151.09</ele>
        <time>2012-06-16T10:05:40Z</time>
      </trkpt>
      <trkpt lat="45.63753" lon="6.60963">
        <ele>2151.09</ele>
        <time>2012-06-16T10:05:45Z</time>
      </trkpt>
      <trkpt lat="45.63769" lon="6.60959">
        <ele>2153.01</ele>
        <time>2012-06-16T10:06:01Z</time>
      </trkpt>
      <trkpt lat="45.63776" lon="6.60957">
        <ele>2153.49</ele>
        <time>2012-06-16T10:06:07Z</time>
      </trkpt>
      <trkpt lat="45.63792" lon="6.60952">
        <ele>2155.41</ele>
        <time>2012-06-16T10:06:24Z</time>
      </trkpt>
      <trkpt lat="45.63808" lon="6.60951">
        <ele>2157.34</ele>
        <time>2012-06-16T10:06:39Z</time>
      </trkpt>
      <trkpt lat="45.63824" lon="6.60953">
        <ele>2158.78</ele>
        <time>2012-06-16T10:06:56Z</time>
      </trkpt>
      <trkpt lat="45.63823" lon="6.60951">
        <ele>2159.26</ele>
        <time>2012-06-16T10:07:11Z</time>
      </trkpt>
      <trkpt lat="45.63823" lon="6.60952">
        <ele>2159.74</ele>
        <time>2012-06-16T10:07:30Z</time>
      </trkpt>
      <trkpt lat="45.63823" lon="6.60952">
        <ele>2159.74</ele>
        <time>2012-06-16T10:07:45Z</time>
      </trkpt>
      <trkpt lat="45.63823" lon="6.60953">
        <ele>2159.74</ele>
        <time>2012-06-16T10:08:08Z</time>
      </trkpt>
      <trkpt lat="45.63826" lon="6.60953">
        <ele>2160.22</ele>
        <time>2012-06-16T10:08:25Z</time>
      </trkpt>
      <trkpt lat="45.63839" lon="6.60955">
        <ele>2160.7</ele>
        <time>2012-06-16T10:08:38Z</time>
      </trkpt>
      <trkpt lat="45.63857" lon="6.60953">
        <ele>2162.62</ele>
        <time>2012-06-16T10:08:53Z</time>
      </trkpt>
      <trkpt lat="45.6386" lon="6.60952">
        <ele>2162.62</ele>
        <time>2012-06-16T10:08:56Z</time>
      </trkpt>
      <trkpt lat="45.63863" lon="6.60951">
        <ele>2163.1</ele>
        <time>2012-06-16T10:08:59Z</time>
      </trkpt>
      <trkpt lat="45.63879" lon="6.60944">
        <ele>2165.99</ele>
        <time>2012-06-16T10:09:15Z</time>
      </trkpt>
      <trkpt lat="45.63897" lon="6.60943">
        <ele>2167.43</ele>
        <time>2012-06-16T10:09:31Z</time>
      </trkpt>
      <trkpt lat="45.63912" lon="6.60934">
        <ele>2169.35</ele>
        <time>2012-06-16T10:09:47Z</time>
      </trkpt>
      <trkpt lat="45.63913" lon="6.60934">
        <ele>2169.35</ele>
        <time>2012-06-16T10:09:48Z</time>
      </trkpt>
      <trkpt lat="45.63929" lon="6.60926">
        <ele>2171.76</ele>
        <time>2012-06-16T10:10:03Z</time>
      </trkpt>
      <trkpt lat="45.63939" lon="6.60928">
        <ele>2173.2</ele>
        <time>2012-06-16T10:10:12Z</time>
      </trkpt>
      <trkpt lat="45.63939" lon="6.60934">
        <ele>2173.2</ele>
        <time>2012-06-16T10:10:17Z</time>
      </trkpt>
      <trkpt lat="45.63935" lon="6.60939">
        <ele>2174.16</ele>
        <time>2012-06-16T10:10:22Z</time>
      </trkpt>
      <trkpt lat="45.63934" lon="6.60943">
        <ele>2174.64</ele>
        <time>2012-06-16T10:10:25Z</time>
      </trkpt>
      <trkpt lat="45.63938" lon="6.60955">
        <ele>2176.08</ele>
        <time>2012-06-16T10:10:39Z</time>
      </trkpt>
      <trkpt lat="45.63941" lon="6.60972">
        <ele>2177.52</ele>
        <time>2012-06-16T10:10:55Z</time>
      </trkpt>
      <trkpt lat="45.63946" lon="6.60982">
        <ele>2179.45</ele>
        <time>2012-06-16T10:11:09Z</time>
      </trkpt>
      <trkpt lat="45.63946" lon="6.60982">
        <ele>2180.41</ele>
        <time>2012-06-16T10:11:39Z</time>
      </trkpt>
      <trkpt lat="45.63947" lon="6.60983">
        <ele>2180.41</ele>
        <time>2012-06-16T10:12:02Z</time>
      </trkpt>
      <trkpt lat="45.63949" lon="6.60987">
        <ele>2181.85</ele>
        <time>2012-06-16T10:12:13Z</time>
      </trkpt>
      <trkpt lat="45.6395" lon="6.60989">
        <ele>2182.81</ele>
        <time>2012-06-16T10:12:25Z</time>
      </trkpt>
      <trkpt lat="45.63953" lon="6.60992">
        <ele>2183.29</ele>
        <time>2012-06-16T10:12:37Z</time>
      </trkpt>
      <trkpt lat="45.63962" lon="6.60997">
        <ele>2184.25</ele>
        <time>2012-06-16T10:12:51Z</time>
      </trkpt>
      <trkpt lat="45.63969" lon="6.61002">
        <ele>2186.66</ele>
        <time>2012-06-16T10:13:07Z</time>
      </trkpt>
      <trkpt lat="45.63977" lon="6.61008">
        <ele>2188.1</ele>
        <time>2012-06-16T10:13:21Z</time>
      </trkpt>
      <trkpt lat="45.63986" lon="6.61015">
        <ele>2190.5</ele>
        <time>2012-06-16T10:13:35Z</time>
      </trkpt>
      <trkpt lat="45.63989" lon="6.61018">
        <ele>2191.46</ele>
        <time>2012-06-16T10:13:44Z</time>
      </trkpt>
      <trkpt lat="45.63993" lon="6.61021">
        <ele>2193.39</ele>
        <time>2012-06-16T10:13:59Z</time>
      </trkpt>
      <trkpt lat="45.63996" lon="6.61024">
        <ele>2194.83</ele>
        <time>2012-06-16T10:14:17Z</time>
      </trkpt>
      <trkpt lat="45.63999" lon="6.61026">
        <ele>2195.79</ele>
        <time>2012-06-16T10:14:33Z</time>
      </trkpt>
      <trkpt lat="45.64005" lon="6.61032">
        <ele>2196.75</ele>
        <time>2012-06-16T10:14:44Z</time>
      </trkpt>
      <trkpt lat="45.64018" lon="6.61042">
        <ele>2199.15</ele>
        <time>2012-06-16T10:15:02Z</time>
      </trkpt>
      <trkpt lat="45.64029" lon="6.61049">
        <ele>2201.56</ele>
        <time>2012-06-16T10:15:18Z</time>
      </trkpt>
      <trkpt lat="45.64036" lon="6.61054">
        <ele>2203.48</ele>
        <time>2012-06-16T10:15:29Z</time>
      </trkpt>
      <trkpt lat="45.64042" lon="6.61059">
        <ele>2205.88</ele>
        <time>2012-06-16T10:15:48Z</time>
      </trkpt>
      <trkpt lat="45.64044" lon="6.61059">
        <ele>2206.84</ele>
        <time>2012-06-16T10:15:59Z</time>
      </trkpt>
      <trkpt lat="45.64046" lon="6.6106">
        <ele>2207.81</ele>
        <time>2012-06-16T10:16:17Z</time>
      </trkpt>
      <trkpt lat="45.64054" lon="6.61066">
        <ele>2208.77</ele>
        <time>2012-06-16T10:16:30Z</time>
      </trkpt>
      <trkpt lat="45.64065" lon="6.61073">
        <ele>2211.65</ele>
        <time>2012-06-16T10:16:45Z</time>
      </trkpt>
      <trkpt lat="45.64074" lon="6.61078">
        <ele>2213.57</ele>
        <time>2012-06-16T10:16:57Z</time>
      </trkpt>
      <trkpt lat="45.64077" lon="6.61079">
        <ele>2214.05</ele>
        <time>2012-06-16T10:17:01Z</time>
      </trkpt>
      <trkpt lat="45.64089" lon="6.61086">
        <ele>2216.94</ele>
        <time>2012-06-16T10:17:15Z</time>
      </trkpt>
      <trkpt lat="45.64092" lon="6.61089">
        <ele>2218.86</ele>
        <time>2012-06-16T10:17:26Z</time>
      </trkpt>
      <trkpt lat="45.64094" lon="6.6109">
        <ele>2219.82</ele>
        <time>2012-06-16T10:17:52Z</time>
      </trkpt>
      <trkpt lat="45.64094" lon="6.61091">
        <ele>2219.82</ele>
        <time>2012-06-16T10:18:24Z</time>
      </trkpt>
      <trkpt lat="45.64094" lon="6.61091">
        <ele>2219.82</ele>
        <time>2012-06-16T10:18:50Z</time>
      </trkpt>
      <trkpt lat="45.64095" lon="6.61091">
        <ele>2219.82</ele>
        <time>2012-06-16T10:19:21Z</time>
      </trkpt>
      <trkpt lat="45.64095" lon="6.61092">
        <ele>2219.82</ele>
        <time>2012-06-16T10:19:52Z</time>
      </trkpt>
      <trkpt lat="45.64101" lon="6.61095">
        <ele>2220.78</ele>
        <time>2012-06-16T10:20:15Z</time>
      </trkpt>
      <trkpt lat="45.6411" lon="6.61098">
        <ele>2222.71</ele>
        <time>2012-06-16T10:20:30Z</time>
      </trkpt>
      <trkpt lat="45.6412" lon="6.611">
        <ele>2225.11</ele>
        <time>2012-06-16T10:20:48Z</time>
      </trkpt>
      <trkpt lat="45.64123" lon="6.611">
        <ele>2225.59</ele>
        <time>2012-06-16T10:20:52Z</time>
      </trkpt>
      <trkpt lat="45.64134" lon="6.611">
        <ele>2227.51</ele>
        <time>2012-06-16T10:21:03Z</time>
      </trkpt>
      <trkpt lat="45.64139" lon="6.611">
        <ele>2229.43</ele>
        <time>2012-06-16T10:21:15Z</time>
      </trkpt>
      <trkpt lat="45.64144" lon="6.611">
        <ele>2229.92</ele>
        <time>2012-06-16T10:21:23Z</time>
      </trkpt>
      <trkpt lat="45.64149" lon="6.61101">
        <ele>2230.4</ele>
        <time>2012-06-16T10:21:27Z</time>
      </trkpt>
      <trkpt lat="45.64161" lon="6.61095">
        <ele>2231.36</ele>
        <time>2012-06-16T10:21:40Z</time>
      </trkpt>
      <trkpt lat="45.64162" lon="6.61093">
        <ele>2231.84</ele>
        <time>2012-06-16T10:21:42Z</time>
      </trkpt>
      <trkpt lat="45.64167" lon="6.6109">
        <ele>2232.8</ele>
        <time>2012-06-16T10:21:48Z</time>
      </trkpt>
      <trkpt lat="45.64176" lon="6.61079">
        <ele>2233.28</ele>
        <time>2012-06-16T10:22:01Z</time>
      </trkpt>
      <trkpt lat="45.64189" lon="6.61058">
        <ele>2235.2</ele>
        <time>2012-06-16T10:22:19Z</time>
      </trkpt>
      <trkpt lat="45.64202" lon="6.61052">
        <ele>2237.13</ele>
        <time>2012-06-16T10:22:33Z</time>
      </trkpt>
      <trkpt lat="45.64212" lon="6.61047">
        <ele>2238.57</ele>
        <time>2012-06-16T10:22:45Z</time>
      </trkpt>
      <trkpt lat="45.64224" lon="6.61045">
        <ele>2240.97</ele>
        <time>2012-06-16T10:23:01Z</time>
      </trkpt>
      <trkpt lat="45.64228" lon="6.61039">
        <ele>2241.93</ele>
        <time>2012-06-16T10:23:12Z</time>
      </trkpt>
      <trkpt lat="45.64231" lon="6.61037">
        <ele>2243.37</ele>
        <time>2012-06-16T10:23:25Z</time>
      </trkpt>
      <trkpt lat="45.64231" lon="6.61037">
        <ele>2243.37</ele>
        <time>2012-06-16T10:23:29Z</time>
      </trkpt>
      <trkpt lat="45.64238" lon="6.61034">
        <ele>2243.85</ele>
        <time>2012-06-16T10:23:42Z</time>
      </trkpt>
      <trkpt lat="45.64239" lon="6.61035">
        <ele>2244.33</ele>
        <time>2012-06-16T10:24:07Z</time>
      </trkpt>
      <trkpt lat="45.64239" lon="6.61035">
        <ele>2244.33</ele>
        <time>2012-06-16T10:24:12Z</time>
      </trkpt>
      <trkpt lat="45.64245" lon="6.61029">
        <ele>2245.78</ele>
        <time>2012-06-16T10:24:21Z</time>
      </trkpt>
      <trkpt lat="45.64249" lon="6.61028">
        <ele>2245.78</ele>
        <time>2012-06-16T10:24:25Z</time>
      </trkpt>
      <trkpt lat="45.64259" lon="6.61025">
        <ele>2247.7</ele>
        <time>2012-06-16T10:24:39Z</time>
      </trkpt>
      <trkpt lat="45.64258" lon="6.61023">
        <ele>2248.66</ele>
        <time>2012-06-16T10:25:07Z</time>
      </trkpt>
      <trkpt lat="45.64257" lon="6.61023">
        <ele>2249.62</ele>
        <time>2012-06-16T10:25:33Z</time>
      </trkpt>
      <trkpt lat="45.64257" lon="6.61023">
        <ele>2249.62</ele>
        <time>2012-06-16T10:25:50Z</time>
      </trkpt>
      <trkpt lat="45.64273" lon="6.61013">
        <ele>2250.1</ele>
        <time>2012-06-16T10:26:05Z</time>
      </trkpt>
      <trkpt lat="45.64275" lon="6.61011">
        <ele>2250.58</ele>
        <time>2012-06-16T10:26:07Z</time>
      </trkpt>
      <trkpt lat="45.64276" lon="6.61002">
        <ele>2251.06</ele>
        <time>2012-06-16T10:26:20Z</time>
      </trkpt>
      <trkpt lat="45.64276" lon="6.61">
        <ele>2251.06</ele>
        <time>2012-06-16T10:26:29Z</time>
      </trkpt>
      <trkpt lat="45.64276" lon="6.60998">
        <ele>2251.06</ele>
        <time>2012-06-16T10:26:48Z</time>
      </trkpt>
      <trkpt lat="45.64276" lon="6.60999">
        <ele>2250.1</ele>
        <time>2012-06-16T10:27:22Z</time>
      </trkpt>
      <trkpt lat="45.64277" lon="6.61">
        <ele>2250.1</ele>
        <time>2012-06-16T10:27:33Z</time>
      </trkpt>
      <trkpt lat="45.64278" lon="6.61002">
        <ele>2250.1</ele>
        <time>2012-06-16T10:27:44Z</time>
      </trkpt>
      <trkpt lat="45.64281" lon="6.61005">
        <ele>2251.06</ele>
        <time>2012-06-16T10:27:49Z</time>
      </trkpt>
      <trkpt lat="45.64285" lon="6.61001">
        <ele>2251.54</ele>
        <time>2012-06-16T10:27:53Z</time>
      </trkpt>
      <trkpt lat="45.64289" lon="6.60998">
        <ele>2252.03</ele>
        <time>2012-06-16T10:27:58Z</time>
      </trkpt>
      <trkpt lat="45.64298" lon="6.60989">
        <ele>2253.95</ele>
        <time>2012-06-16T10:28:13Z</time>
      </trkpt>
      <trkpt lat="45.64299" lon="6.60989">
        <ele>2254.43</ele>
        <time>2012-06-16T10:28:27Z</time>
      </trkpt>
      <trkpt lat="45.64299" lon="6.60989">
        <ele>2254.91</ele>
        <time>2012-06-16T10:28:49Z</time>
      </trkpt>
      <trkpt lat="45.64311" lon="6.60978">
        <ele>2256.35</ele>
        <time>2012-06-16T10:29:04Z</time>
      </trkpt>
      <trkpt lat="45.64324" lon="6.60962">
        <ele>2259.24</ele>
        <time>2012-06-16T10:29:20Z</time>
      </trkpt>
      <trkpt lat="45.6433" lon="6.60956">
        <ele>2260.68</ele>
        <time>2012-06-16T10:29:35Z</time>
      </trkpt>
      <trkpt lat="45.64336" lon="6.60952">
        <ele>2261.64</ele>
        <time>2012-06-16T10:29:44Z</time>
      </trkpt>
      <trkpt lat="45.64346" lon="6.60944">
        <ele>2263.08</ele>
        <time>2012-06-16T10:29:53Z</time>
      </trkpt>
      <trkpt lat="45.64349" lon="6.60935">
        <ele>2264.04</ele>
        <time>2012-06-16T10:30:01Z</time>
      </trkpt>
      <trkpt lat="45.64352" lon="6.6091">
        <ele>2266.45</ele>
        <time>2012-06-16T10:30:17Z</time>
      </trkpt>
      <trkpt lat="45.64357" lon="6.60893">
        <ele>2267.89</ele>
        <time>2012-06-16T10:30:29Z</time>
      </trkpt>
      <trkpt lat="45.64359" lon="6.60892">
        <ele>2269.33</ele>
        <time>2012-06-16T10:30:38Z</time>
      </trkpt>
      <trkpt lat="45.64358" lon="6.60892">
        <ele>2269.81</ele>
        <time>2012-06-16T10:31:04Z</time>
      </trkpt>
      <trkpt lat="45.64358" lon="6.60892">
        <ele>2269.81</ele>
        <time>2012-06-16T10:31:23Z</time>
      </trkpt>
      <trkpt lat="45.64359" lon="6.60887">
        <ele>2270.29</ele>
        <time>2012-06-16T10:31:39Z</time>
      </trkpt>
      <trkpt lat="45.64364" lon="6.60872">
        <ele>2271.25</ele>
        <time>2012-06-16T10:31:56Z</time>
      </trkpt>
      <trkpt lat="45.64369" lon="6.60866">
        <ele>2271.73</ele>
        <time>2012-06-16T10:32:11Z</time>
      </trkpt>
      <trkpt lat="45.64371" lon="6.60865">
        <ele>2272.21</ele>
        <time>2012-06-16T10:32:15Z</time>
      </trkpt>
      <trkpt lat="45.64375" lon="6.60859">
        <ele>2272.21</ele>
        <time>2012-06-16T10:32:19Z</time>
      </trkpt>
      <trkpt lat="45.64391" lon="6.60846">
        <ele>2274.14</ele>
        <time>2012-06-16T10:32:33Z</time>
      </trkpt>
      <trkpt lat="45.644" lon="6.60838">
        <ele>2275.1</ele>
        <time>2012-06-16T10:32:42Z</time>
      </trkpt>
      <trkpt lat="45.64402" lon="6.60836">
        <ele>2275.1</ele>
        <time>2012-06-16T10:32:44Z</time>
      </trkpt>
      <trkpt lat="45.64424" lon="6.60819">
        <ele>2277.02</ele>
        <time>2012-06-16T10:33:03Z</time>
      </trkpt>
      <trkpt lat="45.64444" lon="6.60808">
        <ele>2278.94</ele>
        <time>2012-06-16T10:33:20Z</time>
      </trkpt>
      <trkpt lat="45.64449" lon="6.60805">
        <ele>2280.38</ele>
        <time>2012-06-16T10:33:36Z</time>
      </trkpt>
      <trkpt lat="45.64451" lon="6.60805">
        <ele>2280.38</ele>
        <time>2012-06-16T10:33:46Z</time>
      </trkpt>
      <trkpt lat="45.64452" lon="6.60805">
        <ele>2280.87</ele>
        <time>2012-06-16T10:34:00Z</time>
      </trkpt>
      <trkpt lat="45.64451" lon="6.60805">
        <ele>2280.87</ele>
        <time>2012-06-16T10:34:12Z</time>
      </trkpt>
      <trkpt lat="45.64455" lon="6.60802">
        <ele>2280.87</ele>
        <time>2012-06-16T10:34:16Z</time>
      </trkpt>
      <trkpt lat="45.64458" lon="6.608">
        <ele>2280.87</ele>
        <time>2012-06-16T10:34:19Z</time>
      </trkpt>
      <trkpt lat="45.64462" lon="6.60797">
        <ele>2281.35</ele>
        <time>2012-06-16T10:34:31Z</time>
      </trkpt>
      <trkpt lat="45.64464" lon="6.60796">
        <ele>2282.31</ele>
        <time>2012-06-16T10:34:58Z</time>
      </trkpt>
      <trkpt lat="45.64464" lon="6.60796">
        <ele>2282.31</ele>
        <time>2012-06-16T10:35:05Z</time>
      </trkpt>
      <trkpt lat="45.64478" lon="6.60788">
        <ele>2283.27</ele>
        <time>2012-06-16T10:35:23Z</time>
      </trkpt>
      <trkpt lat="45.64479" lon="6.6079">
        <ele>2284.23</ele>
        <time>2012-06-16T10:35:42Z</time>
      </trkpt>
      <trkpt lat="45.64481" lon="6.60789">
        <ele>2284.71</ele>
        <time>2012-06-16T10:35:55Z</time>
      </trkpt>
      <trkpt lat="45.64494" lon="6.60782">
        <ele>2285.19</ele>
        <time>2012-06-16T10:36:10Z</time>
      </trkpt>
      <trkpt lat="45.64496" lon="6.6078">
        <ele>2285.67</ele>
        <time>2012-06-16T10:36:15Z</time>
      </trkpt>
      <trkpt lat="45.645" lon="6.60776">
        <ele>2285.67</ele>
        <time>2012-06-16T10:36:19Z</time>
      </trkpt>
      <trkpt lat="45.64506" lon="6.60769">
        <ele>2286.15</ele>
        <time>2012-06-16T10:36:25Z</time>
      </trkpt>
      <trkpt lat="45.64512" lon="6.60763">
        <ele>2287.11</ele>
        <time>2012-06-16T10:36:31Z</time>
      </trkpt>
      <trkpt lat="45.64516" lon="6.6076">
        <ele>2287.59</ele>
        <time>2012-06-16T10:36:34Z</time>
      </trkpt>
      <trkpt lat="45.64532" lon="6.60732">
        <ele>2289.04</ele>
        <time>2012-06-16T10:36:53Z</time>
      </trkpt>
      <trkpt lat="45.64536" lon="6.60729">
        <ele>2289.04</ele>
        <time>2012-06-16T10:36:56Z</time>
      </trkpt>
      <trkpt lat="45.64537" lon="6.60725">
        <ele>2289.52</ele>
        <time>2012-06-16T10:36:58Z</time>
      </trkpt>
      <trkpt lat="45.64542" lon="6.60718">
        <ele>2290.96</ele>
        <time>2012-06-16T10:37:10Z</time>
      </trkpt>
      <trkpt lat="45.64542" lon="6.60718">
        <ele>2291.44</ele>
        <time>2012-06-16T10:37:18Z</time>
      </trkpt>
      <trkpt lat="45.64546" lon="6.60711">
        <ele>2291.44</ele>
        <time>2012-06-16T10:37:23Z</time>
      </trkpt>
      <trkpt lat="45.64551" lon="6.60701">
        <ele>2292.4</ele>
        <time>2012-06-16T10:37:36Z</time>
      </trkpt>
      <trkpt lat="45.64566" lon="6.60677">
        <ele>2292.88</ele>
        <time>2012-06-16T10:37:52Z</time>
      </trkpt>
      <trkpt lat="45.64572" lon="6.60676">
        <ele>2292.88</ele>
        <time>2012-06-16T10:38:05Z</time>
      </trkpt>
      <trkpt lat="45.64571" lon="6.60676">
        <ele>2292.88</ele>
        <time>2012-06-16T10:38:31Z</time>
      </trkpt>
      <trkpt lat="45.64571" lon="6.60676">
        <ele>2293.36</ele>
        <time>2012-06-16T10:38:59Z</time>
      </trkpt>
      <trkpt lat="45.64569" lon="6.60675">
        <ele>2293.36</ele>
        <time>2012-06-16T10:39:28Z</time>
      </trkpt>
      <trkpt lat="45.64569" lon="6.60676">
        <ele>2293.36</ele>
        <time>2012-06-16T10:39:48Z</time>
      </trkpt>
      <trkpt lat="45.6457" lon="6.60676">
        <ele>2293.36</ele>
        <time>2012-06-16T10:40:18Z</time>
      </trkpt>
      <trkpt lat="45.64569" lon="6.60676">
        <ele>2293.84</ele>
        <time>2012-06-16T10:41:02Z</time>
      </trkpt>
      <trkpt lat="45.64569" lon="6.60676">
        <ele>2293.84</ele>
        <time>2012-06-16T10:41:28Z</time>
      </trkpt>
      <trkpt lat="45.6457" lon="6.60676">
        <ele>2293.84</ele>
        <time>2012-06-16T10:41:54Z</time>
      </trkpt>
      <trkpt lat="45.64569" lon="6.60675">
        <ele>2293.84</ele>
        <time>2012-06-16T10:42:27Z</time>
      </trkpt>
      <trkpt lat="45.6457" lon="6.60675">
        <ele>2293.84</ele>
        <time>2012-06-16T10:42:54Z</time>
      </trkpt>
      <trkpt lat="45.6457" lon="6.60674">
        <ele>2293.84</ele>
        <time>2012-06-16T10:43:23Z</time>
      </trkpt>
      <trkpt lat="45.6457" lon="6.60675">
        <ele>2294.8</ele>
        <time>2012-06-16T10:43:55Z</time>
      </trkpt>
      <trkpt lat="45.64571" lon="6.60675">
        <ele>2294.8</ele>
        <time>2012-06-16T10:44:03Z</time>
      </trkpt>
      <trkpt lat="45.64571" lon="6.60669">
        <ele>2294.8</ele>
        <time>2012-06-16T10:44:08Z</time>
      </trkpt>
      <trkpt lat="45.64567" lon="6.60669">
        <ele>2294.8</ele>
        <time>2012-06-16T10:44:12Z</time>
      </trkpt>
      <trkpt lat="45.64564" lon="6.60669">
        <ele>2294.8</ele>
        <time>2012-06-16T10:44:15Z</time>
      </trkpt>
      <trkpt lat="45.64569" lon="6.60661">
        <ele>2294.8</ele>
        <time>2012-06-16T10:44:21Z</time>
      </trkpt>
      <trkpt lat="45.64578" lon="6.60634">
        <ele>2295.28</ele>
        <time>2012-06-16T10:44:37Z</time>
      </trkpt>
      <trkpt lat="45.64588" lon="6.60612">
        <ele>2297.21</ele>
        <time>2012-06-16T10:44:52Z</time>
      </trkpt>
      <trkpt lat="45.64597" lon="6.60596">
        <ele>2299.13</ele>
        <time>2012-06-16T10:45:06Z</time>
      </trkpt>
      <trkpt lat="45.64597" lon="6.60594">
        <ele>2300.57</ele>
        <time>2012-06-16T10:45:22Z</time>
      </trkpt>
      <trkpt lat="45.64597" lon="6.60594">
        <ele>2302.01</ele>
        <time>2012-06-16T10:45:45Z</time>
      </trkpt>
      <trkpt lat="45.64597" lon="6.60593">
        <ele>2301.05</ele>
        <time>2012-06-16T10:46:04Z</time>
      </trkpt>
      <trkpt lat="45.64597" lon="6.60594">
        <ele>2301.05</ele>
        <time>2012-06-16T10:46:25Z</time>
      </trkpt>
      <trkpt lat="45.64598" lon="6.60594">
        <ele>2301.05</ele>
        <time>2012-06-16T10:46:58Z</time>
      </trkpt>
      <trkpt lat="45.64599" lon="6.60594">
        <ele>2301.05</ele>
        <time>2012-06-16T10:47:23Z</time>
      </trkpt>
      <trkpt lat="45.64599" lon="6.60594">
        <ele>2301.53</ele>
        <time>2012-06-16T10:47:58Z</time>
      </trkpt>
      <trkpt lat="45.64599" lon="6.60593">
        <ele>2301.53</ele>
        <time>2012-06-16T10:48:22Z</time>
      </trkpt>
      <trkpt lat="45.64599" lon="6.60592">
        <ele>2301.53</ele>
        <time>2012-06-16T10:48:56Z</time>
      </trkpt>
      <trkpt lat="45.646" lon="6.60591">
        <ele>2301.53</ele>
        <time>2012-06-16T10:49:11Z</time>
      </trkpt>
      <trkpt lat="45.646" lon="6.6058">
        <ele>2301.53</ele>
        <time>2012-06-16T10:49:23Z</time>
      </trkpt>
      <trkpt lat="45.646" lon="6.6058">
        <ele>2300.09</ele>
        <time>2012-06-16T10:49:34Z</time>
      </trkpt>
      <trkpt lat="45.64602" lon="6.60573">
        <ele>2298.65</ele>
        <time>2012-06-16T10:49:47Z</time>
      </trkpt>
      <trkpt lat="45.64604" lon="6.60569">
        <ele>2295.28</ele>
        <time>2012-06-16T10:49:56Z</time>
      </trkpt>
      <trkpt lat="45.64606" lon="6.60567">
        <ele>2292.4</ele>
        <time>2012-06-16T10:50:00Z</time>
      </trkpt>
      <trkpt lat="45.64606" lon="6.60566">
        <ele>2291.44</ele>
        <time>2012-06-16T10:50:02Z</time>
      </trkpt>
      <trkpt lat="45.64606" lon="6.60566">
        <ele>2292.4</ele>
        <time>2012-06-16T10:50:14Z</time>
      </trkpt>
      <trkpt lat="45.64606" lon="6.60563">
        <ele>2292.88</ele>
        <time>2012-06-16T10:50:27Z</time>
      </trkpt>
      <trkpt lat="45.64608" lon="6.60562">
        <ele>2292.88</ele>
        <time>2012-06-16T10:50:29Z</time>
      </trkpt>
      <trkpt lat="45.64611" lon="6.60555">
        <ele>2291.44</ele>
        <time>2012-06-16T10:50:35Z</time>
      </trkpt>
      <trkpt lat="45.64616" lon="6.60545">
        <ele>2289.04</ele>
        <time>2012-06-16T10:50:47Z</time>
      </trkpt>
      <trkpt lat="45.64618" lon="6.60539">
        <ele>2289.52</ele>
        <time>2012-06-16T10:50:49Z</time>
      </trkpt>
      <trkpt lat="45.64624" lon="6.60521">
        <ele>2285.19</ele>
        <time>2012-06-16T10:50:54Z</time>
      </trkpt>
      <trkpt lat="45.64627" lon="6.60509">
        <ele>2288.56</ele>
        <time>2012-06-16T10:51:03Z</time>
      </trkpt>
      <trkpt lat="45.64629" lon="6.60503">
        <ele>2291.44</ele>
        <time>2012-06-16T10:51:07Z</time>
      </trkpt>
      <trkpt lat="45.64635" lon="6.60493">
        <ele>2292.4</ele>
        <time>2012-06-16T10:51:14Z</time>
      </trkpt>
      <trkpt lat="45.64637" lon="6.60488">
        <ele>2292.4</ele>
        <time>2012-06-16T10:51:19Z</time>
      </trkpt>
      <trkpt lat="45.64641" lon="6.60484">
        <ele>2292.88</ele>
        <time>2012-06-16T10:51:32Z</time>
      </trkpt>
      <trkpt lat="45.64644" lon="6.60483">
        <ele>2293.36</ele>
        <time>2012-06-16T10:51:48Z</time>
      </trkpt>
      <trkpt lat="45.64645" lon="6.60482">
        <ele>2293.36</ele>
        <time>2012-06-16T10:52:10Z</time>
      </trkpt>
      <trkpt lat="45.64644" lon="6.6048">
        <ele>2294.32</ele>
        <time>2012-06-16T10:52:31Z</time>
      </trkpt>
      <trkpt lat="45.64647" lon="6.60483">
        <ele>2294.8</ele>
        <time>2012-06-16T10:52:45Z</time>
      </trkpt>
      <trkpt lat="45.64649" lon="6.60484">
        <ele>2295.77</ele>
        <time>2012-06-16T10:53:12Z</time>
      </trkpt>
      <trkpt lat="45.64649" lon="6.60485">
        <ele>2295.77</ele>
        <time>2012-06-16T10:53:35Z</time>
      </trkpt>
      <trkpt lat="45.64651" lon="6.60486">
        <ele>2295.77</ele>
        <time>2012-06-16T10:54:00Z</time>
      </trkpt>
      <trkpt lat="45.64651" lon="6.60485">
        <ele>2295.77</ele>
        <time>2012-06-16T10:54:32Z</time>
      </trkpt>
      <trkpt lat="45.64651" lon="6.60483">
        <ele>2295.77</ele>
        <time>2012-06-16T10:54:48Z</time>
      </trkpt>
      <trkpt lat="45.64653" lon="6.60481">
        <ele>2294.32</ele>
        <time>2012-06-16T10:55:18Z</time>
      </trkpt>
      <trkpt lat="45.64661" lon="6.60476">
        <ele>2294.32</ele>
        <time>2012-06-16T10:55:23Z</time>
      </trkpt>
      <trkpt lat="45.64677" lon="6.60463">
        <ele>2291.44</ele>
        <time>2012-06-16T10:55:28Z</time>
      </trkpt>
      <trkpt lat="45.64681" lon="6.60461">
        <ele>2290</ele>
        <time>2012-06-16T10:55:29Z</time>
      </trkpt>
      <trkpt lat="45.64698" lon="6.60454">
        <ele>2283.75</ele>
        <time>2012-06-16T10:55:33Z</time>
      </trkpt>
      <trkpt lat="45.64715" lon="6.6045">
        <ele>2278.94</ele>
        <time>2012-06-16T10:55:36Z</time>
      </trkpt>
      <trkpt lat="45.64738" lon="6.60442">
        <ele>2280.38</ele>
        <time>2012-06-16T10:55:45Z</time>
      </trkpt>
      <trkpt lat="45.64739" lon="6.60442">
        <ele>2283.27</ele>
        <time>2012-06-16T10:55:48Z</time>
      </trkpt>
      <trkpt lat="45.64738" lon="6.60441">
        <ele>2280.38</ele>
        <time>2012-06-16T10:56:01Z</time>
      </trkpt>
      <trkpt lat="45.64738" lon="6.60442">
        <ele>2281.35</ele>
        <time>2012-06-16T10:56:19Z</time>
      </trkpt>
      <trkpt lat="45.64745" lon="6.60437">
        <ele>2281.83</ele>
        <time>2012-06-16T10:56:29Z</time>
      </trkpt>
      <trkpt lat="45.64749" lon="6.60433">
        <ele>2282.31</ele>
        <time>2012-06-16T10:56:44Z</time>
      </trkpt>
      <trkpt lat="45.64749" lon="6.60434">
        <ele>2282.79</ele>
        <time>2012-06-16T10:57:16Z</time>
      </trkpt>
      <trkpt lat="45.64749" lon="6.60435">
        <ele>2282.79</ele>
        <time>2012-06-16T10:57:50Z</time>
      </trkpt>
      <trkpt lat="45.64749" lon="6.60435">
        <ele>2282.79</ele>
        <time>2012-06-16T10:57:53Z</time>
      </trkpt>
      <trkpt lat="45.64772" lon="6.60425">
        <ele>2282.79</ele>
        <time>2012-06-16T10:58:12Z</time>
      </trkpt>
      <trkpt lat="45.64778" lon="6.60419">
        <ele>2282.79</ele>
        <time>2012-06-16T10:58:25Z</time>
      </trkpt>
      <trkpt lat="45.64781" lon="6.60414">
        <ele>2281.35</ele>
        <time>2012-06-16T10:58:30Z</time>
      </trkpt>
      <trkpt lat="45.6479" lon="6.60398">
        <ele>2278.94</ele>
        <time>2012-06-16T10:58:43Z</time>
      </trkpt>
      <trkpt lat="45.64796" lon="6.6039">
        <ele>2277.98</ele>
        <time>2012-06-16T10:58:59Z</time>
      </trkpt>
      <trkpt lat="45.64812" lon="6.60369">
        <ele>2277.02</ele>
        <time>2012-06-16T10:59:17Z</time>
      </trkpt>
      <trkpt lat="45.64817" lon="6.60361">
        <ele>2276.54</ele>
        <time>2012-06-16T10:59:26Z</time>
      </trkpt>
      <trkpt lat="45.6482" lon="6.60357">
        <ele>2275.1</ele>
        <time>2012-06-16T10:59:44Z</time>
      </trkpt>
      <trkpt lat="45.6482" lon="6.60357">
        <ele>2275.1</ele>
        <time>2012-06-16T10:59:50Z</time>
      </trkpt>
      <trkpt lat="45.64825" lon="6.6035">
        <ele>2275.1</ele>
        <time>2012-06-16T11:00:00Z</time>
      </trkpt>
      <trkpt lat="45.64827" lon="6.60349">
        <ele>2275.1</ele>
        <time>2012-06-16T11:00:06Z</time>
      </trkpt>
      <trkpt lat="45.64837" lon="6.60338">
        <ele>2273.17</ele>
        <time>2012-06-16T11:00:20Z</time>
      </trkpt>
      <trkpt lat="45.64837" lon="6.60337">
        <ele>2272.21</ele>
        <time>2012-06-16T11:00:50Z</time>
      </trkpt>
      <trkpt lat="45.64837" lon="6.60337">
        <ele>2271.73</ele>
        <time>2012-06-16T11:01:10Z</time>
      </trkpt>
      <trkpt lat="45.64838" lon="6.60337">
        <ele>2271.25</ele>
        <time>2012-06-16T11:01:42Z</time>
      </trkpt>
      <trkpt lat="45.64837" lon="6.60336">
        <ele>2271.73</ele>
        <time>2012-06-16T11:02:28Z</time>
      </trkpt>
      <trkpt lat="45.64838" lon="6.60336">
        <ele>2271.73</ele>
        <time>2012-06-16T11:03:14Z</time>
      </trkpt>
      <trkpt lat="45.64842" lon="6.60329">
        <ele>2271.25</ele>
        <time>2012-06-16T11:03:26Z</time>
      </trkpt>
      <trkpt lat="45.64846" lon="6.60325">
        <ele>2269.81</ele>
        <time>2012-06-16T11:03:30Z</time>
      </trkpt>
      <trkpt lat="45.64847" lon="6.6032">
        <ele>2266.45</ele>
        <time>2012-06-16T11:03:35Z</time>
      </trkpt>
      <trkpt lat="45.64847" lon="6.6032">
        <ele>2264.52</ele>
        <time>2012-06-16T11:03:37Z</time>
      </trkpt>
      <trkpt lat="45.64847" lon="6.60319">
        <ele>2260.68</ele>
        <time>2012-06-16T11:03:43Z</time>
      </trkpt>
      <trkpt lat="45.64848" lon="6.60314">
        <ele>2261.16</ele>
        <time>2012-06-16T11:03:53Z</time>
      </trkpt>
      <trkpt lat="45.64848" lon="6.60305">
        <ele>2257.31</ele>
        <time>2012-06-16T11:04:03Z</time>
      </trkpt>
      <trkpt lat="45.64848" lon="6.60301">
        <ele>2253.95</ele>
        <time>2012-06-16T11:04:06Z</time>
      </trkpt>
      <trkpt lat="45.6485" lon="6.60298">
        <ele>2250.58</ele>
        <time>2012-06-16T11:04:10Z</time>
      </trkpt>
      <trkpt lat="45.64851" lon="6.60296">
        <ele>2249.62</ele>
        <time>2012-06-16T11:04:12Z</time>
      </trkpt>
      <trkpt lat="45.64852" lon="6.60294">
        <ele>2250.1</ele>
        <time>2012-06-16T11:04:26Z</time>
      </trkpt>
      <trkpt lat="45.64857" lon="6.60283">
        <ele>2248.66</ele>
        <time>2012-06-16T11:04:43Z</time>
      </trkpt>
      <trkpt lat="45.64861" lon="6.60278">
        <ele>2247.22</ele>
        <time>2012-06-16T11:04:50Z</time>
      </trkpt>
      <trkpt lat="45.64863" lon="6.60275">
        <ele>2245.78</ele>
        <time>2012-06-16T11:05:07Z</time>
      </trkpt>
      <trkpt lat="45.64864" lon="6.60275">
        <ele>2245.3</ele>
        <time>2012-06-16T11:05:34Z</time>
      </trkpt>
      <trkpt lat="45.64864" lon="6.60275">
        <ele>2245.3</ele>
        <time>2012-06-16T11:06:00Z</time>
      </trkpt>
      <trkpt lat="45.64868" lon="6.60267">
        <ele>2243.85</ele>
        <time>2012-06-16T11:06:11Z</time>
      </trkpt>
      <trkpt lat="45.64868" lon="6.60266">
        <ele>2242.89</ele>
        <time>2012-06-16T11:06:18Z</time>
      </trkpt>
      <trkpt lat="45.6487" lon="6.60263">
        <ele>2241.93</ele>
        <time>2012-06-16T11:06:20Z</time>
      </trkpt>
      <trkpt lat="45.64874" lon="6.60253">
        <ele>2238.57</ele>
        <time>2012-06-16T11:06:32Z</time>
      </trkpt>
      <trkpt lat="45.64874" lon="6.60253">
        <ele>2235.68</ele>
        <time>2012-06-16T11:06:37Z</time>
      </trkpt>
      <trkpt lat="45.64876" lon="6.60245">
        <ele>2233.76</ele>
        <time>2012-06-16T11:06:50Z</time>
      </trkpt>
      <trkpt lat="45.64876" lon="6.6024">
        <ele>2231.36</ele>
        <time>2012-06-16T11:07:03Z</time>
      </trkpt>
      <trkpt lat="45.64876" lon="6.60233">
        <ele>2229.43</ele>
        <time>2012-06-16T11:07:26Z</time>
      </trkpt>
      <trkpt lat="45.64876" lon="6.60232">
        <ele>2229.43</ele>
        <time>2012-06-16T11:07:52Z</time>
      </trkpt>
      <trkpt lat="45.64876" lon="6.60231">
        <ele>2229.43</ele>
        <time>2012-06-16T11:08:18Z</time>
      </trkpt>
      <trkpt lat="45.64877" lon="6.60224">
        <ele>2227.51</ele>
        <time>2012-06-16T11:08:29Z</time>
      </trkpt>
      <trkpt lat="45.64876" lon="6.60218">
        <ele>2222.71</ele>
        <time>2012-06-16T11:08:34Z</time>
      </trkpt>
      <trkpt lat="45.64877" lon="6.60218">
        <ele>2222.22</ele>
        <time>2012-06-16T11:08:35Z</time>
      </trkpt>
      <trkpt lat="45.64877" lon="6.60215">
        <ele>2219.82</ele>
        <time>2012-06-16T11:08:38Z</time>
      </trkpt>
      <trkpt lat="45.6488" lon="6.60202">
        <ele>2218.86</ele>
        <time>2012-06-16T11:08:49Z</time>
      </trkpt>
      <trkpt lat="45.64882" lon="6.602">
        <ele>2217.42</ele>
        <time>2012-06-16T11:09:01Z</time>
      </trkpt>
      <trkpt lat="45.64884" lon="6.60198">
        <ele>2215.98</ele>
        <time>2012-06-16T11:09:16Z</time>
      </trkpt>
      <trkpt lat="45.64889" lon="6.60193">
        <ele>2215.5</ele>
        <time>2012-06-16T11:09:21Z</time>
      </trkpt>
      <trkpt lat="45.64896" lon="6.60183">
        <ele>2214.05</ele>
        <time>2012-06-16T11:09:29Z</time>
      </trkpt>
      <trkpt lat="45.64899" lon="6.60176">
        <ele>2212.13</ele>
        <time>2012-06-16T11:09:34Z</time>
      </trkpt>
      <trkpt lat="45.64901" lon="6.6017">
        <ele>2208.77</ele>
        <time>2012-06-16T11:09:38Z</time>
      </trkpt>
      <trkpt lat="45.64902" lon="6.60168">
        <ele>2206.84</ele>
        <time>2012-06-16T11:09:40Z</time>
      </trkpt>
      <trkpt lat="45.64905" lon="6.60161">
        <ele>2206.36</ele>
        <time>2012-06-16T11:09:55Z</time>
      </trkpt>
      <trkpt lat="45.64905" lon="6.60155">
        <ele>2203</ele>
        <time>2012-06-16T11:10:05Z</time>
      </trkpt>
      <trkpt lat="45.64907" lon="6.6015">
        <ele>2200.59</ele>
        <time>2012-06-16T11:10:14Z</time>
      </trkpt>
      <trkpt lat="45.64911" lon="6.60146">
        <ele>2199.63</ele>
        <time>2012-06-16T11:10:26Z</time>
      </trkpt>
      <trkpt lat="45.6491" lon="6.60145">
        <ele>2198.19</ele>
        <time>2012-06-16T11:10:58Z</time>
      </trkpt>
      <trkpt lat="45.6491" lon="6.60145">
        <ele>2198.19</ele>
        <time>2012-06-16T11:10:59Z</time>
      </trkpt>
      <trkpt lat="45.64909" lon="6.60144">
        <ele>2197.71</ele>
        <time>2012-06-16T11:11:14Z</time>
      </trkpt>
      <trkpt lat="45.64909" lon="6.60143">
        <ele>2197.23</ele>
        <time>2012-06-16T11:11:56Z</time>
      </trkpt>
      <trkpt lat="45.64909" lon="6.60143">
        <ele>2197.23</ele>
        <time>2012-06-16T11:11:58Z</time>
      </trkpt>
      <trkpt lat="45.64912" lon="6.60138">
        <ele>2197.23</ele>
        <time>2012-06-16T11:12:04Z</time>
      </trkpt>
      <trkpt lat="45.64918" lon="6.60127">
        <ele>2194.83</ele>
        <time>2012-06-16T11:12:16Z</time>
      </trkpt>
      <trkpt lat="45.64929" lon="6.60108">
        <ele>2190.98</ele>
        <time>2012-06-16T11:12:24Z</time>
      </trkpt>
      <trkpt lat="45.64933" lon="6.60096">
        <ele>2188.1</ele>
        <time>2012-06-16T11:12:27Z</time>
      </trkpt>
      <trkpt lat="45.64938" lon="6.60089">
        <ele>2185.69</ele>
        <time>2012-06-16T11:12:29Z</time>
      </trkpt>
      <trkpt lat="45.64946" lon="6.60074">
        <ele>2185.21</ele>
        <time>2012-06-16T11:12:38Z</time>
      </trkpt>
      <trkpt lat="45.64947" lon="6.60071">
        <ele>2188.1</ele>
        <time>2012-06-16T11:12:43Z</time>
      </trkpt>
      <trkpt lat="45.64948" lon="6.6007">
        <ele>2188.58</ele>
        <time>2012-06-16T11:12:46Z</time>
      </trkpt>
      <trkpt lat="45.64956" lon="6.60054">
        <ele>2186.66</ele>
        <time>2012-06-16T11:12:52Z</time>
      </trkpt>
      <trkpt lat="45.64959" lon="6.60034">
        <ele>2184.73</ele>
        <time>2012-06-16T11:12:56Z</time>
      </trkpt>
      <trkpt lat="45.64963" lon="6.60008">
        <ele>2180.41</ele>
        <time>2012-06-16T11:13:01Z</time>
      </trkpt>
      <trkpt lat="45.64964" lon="6.60003">
        <ele>2179.93</ele>
        <time>2012-06-16T11:13:02Z</time>
      </trkpt>
      <trkpt lat="45.64984" lon="6.59959">
        <ele>2179.45</ele>
        <time>2012-06-16T11:13:12Z</time>
      </trkpt>
      <trkpt lat="45.65012" lon="6.59906">
        <ele>2180.89</ele>
        <time>2012-06-16T11:13:27Z</time>
      </trkpt>
      <trkpt lat="45.65018" lon="6.59891">
        <ele>2180.89</ele>
        <time>2012-06-16T11:13:31Z</time>
      </trkpt>
      <trkpt lat="45.6502" lon="6.59881">
        <ele>2180.89</ele>
        <time>2012-06-16T11:13:33Z</time>
      </trkpt>
      <trkpt lat="45.65032" lon="6.59843">
        <ele>2179.45</ele>
        <time>2012-06-16T11:13:39Z</time>
      </trkpt>
      <trkpt lat="45.65041" lon="6.59824">
        <ele>2176.56</ele>
        <time>2012-06-16T11:13:43Z</time>
      </trkpt>
      <trkpt lat="45.65043" lon="6.59819">
        <ele>2175.6</ele>
        <time>2012-06-16T11:13:44Z</time>
      </trkpt>
      <trkpt lat="45.6506" lon="6.59801">
        <ele>2171.27</ele>
        <time>2012-06-16T11:13:48Z</time>
      </trkpt>
      <trkpt lat="45.65071" lon="6.59794">
        <ele>2169.35</ele>
        <time>2012-06-16T11:13:50Z</time>
      </trkpt>
      <trkpt lat="45.65095" lon="6.59774">
        <ele>2165.51</ele>
        <time>2012-06-16T11:13:55Z</time>
      </trkpt>
      <trkpt lat="45.65105" lon="6.59765">
        <ele>2168.39</ele>
        <time>2012-06-16T11:14:00Z</time>
      </trkpt>
      <trkpt lat="45.65106" lon="6.59764">
        <ele>2171.76</ele>
        <time>2012-06-16T11:14:02Z</time>
      </trkpt>
      <trkpt lat="45.65107" lon="6.59763">
        <ele>2175.12</ele>
        <time>2012-06-16T11:14:05Z</time>
      </trkpt>
      <trkpt lat="45.65107" lon="6.59763">
        <ele>2175.6</ele>
        <time>2012-06-16T11:14:07Z</time>
      </trkpt>
      <trkpt lat="45.65105" lon="6.59763">
        <ele>2172.24</ele>
        <time>2012-06-16T11:14:13Z</time>
      </trkpt>
      <trkpt lat="45.65105" lon="6.59762">
        <ele>2170.31</ele>
        <time>2012-06-16T11:14:16Z</time>
      </trkpt>
      <trkpt lat="45.65113" lon="6.59758">
        <ele>2170.31</ele>
        <time>2012-06-16T11:14:28Z</time>
      </trkpt>
      <trkpt lat="45.65115" lon="6.59756">
        <ele>2171.76</ele>
        <time>2012-06-16T11:14:31Z</time>
      </trkpt>
      <trkpt lat="45.65125" lon="6.59752">
        <ele>2175.12</ele>
        <time>2012-06-16T11:14:41Z</time>
      </trkpt>
      <trkpt lat="45.65131" lon="6.59747">
        <ele>2179.45</ele>
        <time>2012-06-16T11:14:47Z</time>
      </trkpt>
      <trkpt lat="45.65145" lon="6.59733">
        <ele>2179.45</ele>
        <time>2012-06-16T11:15:02Z</time>
      </trkpt>
      <trkpt lat="45.65165" lon="6.5973">
        <ele>2179.45</ele>
        <time>2012-06-16T11:15:18Z</time>
      </trkpt>
      <trkpt lat="45.65187" lon="6.59718">
        <ele>2179.45</ele>
        <time>2012-06-16T11:15:36Z</time>
      </trkpt>
      <trkpt lat="45.65191" lon="6.59715">
        <ele>2179.45</ele>
        <time>2012-06-16T11:15:40Z</time>
      </trkpt>
      <trkpt lat="45.65203" lon="6.59701">
        <ele>2178</ele>
        <time>2012-06-16T11:15:56Z</time>
      </trkpt>
      <trkpt lat="45.65208" lon="6.59707">
        <ele>2178</ele>
        <time>2012-06-16T11:16:10Z</time>
      </trkpt>
      <trkpt lat="45.65211" lon="6.5971">
        <ele>2175.6</ele>
        <time>2012-06-16T11:16:22Z</time>
      </trkpt>
      <trkpt lat="45.65212" lon="6.5971">
        <ele>2175.12</ele>
        <time>2012-06-16T11:16:36Z</time>
      </trkpt>
      <trkpt lat="45.65204" lon="6.59699">
        <ele>2175.12</ele>
        <time>2012-06-16T11:16:47Z</time>
      </trkpt>
      <trkpt lat="45.65205" lon="6.59696">
        <ele>2175.12</ele>
        <time>2012-06-16T11:16:49Z</time>
      </trkpt>
      <trkpt lat="45.65214" lon="6.59678">
        <ele>2179.45</ele>
        <time>2012-06-16T11:17:01Z</time>
      </trkpt>
      <trkpt lat="45.6523" lon="6.5966">
        <ele>2180.41</ele>
        <time>2012-06-16T11:17:18Z</time>
      </trkpt>
      <trkpt lat="45.65231" lon="6.5966">
        <ele>2180.41</ele>
        <time>2012-06-16T11:17:19Z</time>
      </trkpt>
      <trkpt lat="45.65236" lon="6.59656">
        <ele>2180.41</ele>
        <time>2012-06-16T11:17:24Z</time>
      </trkpt>
      <trkpt lat="45.65255" lon="6.59651">
        <ele>2181.37</ele>
        <time>2012-06-16T11:17:40Z</time>
      </trkpt>
      <trkpt lat="45.65264" lon="6.59653">
        <ele>2181.85</ele>
        <time>2012-06-16T11:17:55Z</time>
      </trkpt>
      <trkpt lat="45.65264" lon="6.59653">
        <ele>2181.85</ele>
        <time>2012-06-16T11:18:13Z</time>
      </trkpt>
      <trkpt lat="45.65264" lon="6.59653">
        <ele>2181.37</ele>
        <time>2012-06-16T11:18:29Z</time>
      </trkpt>
      <trkpt lat="45.65268" lon="6.59651">
        <ele>2181.37</ele>
        <time>2012-06-16T11:18:44Z</time>
      </trkpt>
      <trkpt lat="45.65272" lon="6.59648">
        <ele>2180.41</ele>
        <time>2012-06-16T11:19:03Z</time>
      </trkpt>
      <trkpt lat="45.65274" lon="6.59647">
        <ele>2180.41</ele>
        <time>2012-06-16T11:19:04Z</time>
      </trkpt>
      <trkpt lat="45.6528" lon="6.59633">
        <ele>2176.08</ele>
        <time>2012-06-16T11:19:11Z</time>
      </trkpt>
      <trkpt lat="45.65282" lon="6.59627">
        <ele>2171.76</ele>
        <time>2012-06-16T11:19:14Z</time>
      </trkpt>
      <trkpt lat="45.65283" lon="6.59625">
        <ele>2170.31</ele>
        <time>2012-06-16T11:19:15Z</time>
      </trkpt>
      <trkpt lat="45.65286" lon="6.59617">
        <ele>2166.47</ele>
        <time>2012-06-16T11:19:19Z</time>
      </trkpt>
      <trkpt lat="45.65299" lon="6.59596">
        <ele>2166.47</ele>
        <time>2012-06-16T11:19:32Z</time>
      </trkpt>
      <trkpt lat="45.65301" lon="6.59593">
        <ele>2166.47</ele>
        <time>2012-06-16T11:19:40Z</time>
      </trkpt>
      <trkpt lat="45.65301" lon="6.59596">
        <ele>2165.99</ele>
        <time>2012-06-16T11:19:44Z</time>
      </trkpt>
      <trkpt lat="45.65302" lon="6.59595">
        <ele>2165.99</ele>
        <time>2012-06-16T11:19:46Z</time>
      </trkpt>
      <trkpt lat="45.65313" lon="6.59582">
        <ele>2163.1</ele>
        <time>2012-06-16T11:19:56Z</time>
      </trkpt>
      <trkpt lat="45.65327" lon="6.59578">
        <ele>2160.22</ele>
        <time>2012-06-16T11:20:00Z</time>
      </trkpt>
      <trkpt lat="45.65333" lon="6.59582">
        <ele>2156.86</ele>
        <time>2012-06-16T11:20:03Z</time>
      </trkpt>
      <trkpt lat="45.65335" lon="6.59581">
        <ele>2154.45</ele>
        <time>2012-06-16T11:20:13Z</time>
      </trkpt>
      <trkpt lat="45.65336" lon="6.59582">
        <ele>2156.37</ele>
        <time>2012-06-16T11:20:46Z</time>
      </trkpt>
      <trkpt lat="45.65336" lon="6.59582">
        <ele>2156.86</ele>
        <time>2012-06-16T11:21:14Z</time>
      </trkpt>
      <trkpt lat="45.65336" lon="6.59582">
        <ele>2156.86</ele>
        <time>2012-06-16T11:21:43Z</time>
      </trkpt>
      <trkpt lat="45.65336" lon="6.59582">
        <ele>2156.37</ele>
        <time>2012-06-16T11:22:03Z</time>
      </trkpt>
      <trkpt lat="45.65335" lon="6.59587">
        <ele>2156.37</ele>
        <time>2012-06-16T11:22:06Z</time>
      </trkpt>
      <trkpt lat="45.65342" lon="6.596">
        <ele>2153.49</ele>
        <time>2012-06-16T11:22:20Z</time>
      </trkpt>
      <trkpt lat="45.65342" lon="6.59599">
        <ele>2149.65</ele>
        <time>2012-06-16T11:22:24Z</time>
      </trkpt>
      <trkpt lat="45.65343" lon="6.59598">
        <ele>2150.13</ele>
        <time>2012-06-16T11:22:42Z</time>
      </trkpt>
      <trkpt lat="45.65343" lon="6.59599">
        <ele>2150.13</ele>
        <time>2012-06-16T11:23:01Z</time>
      </trkpt>
      <trkpt lat="45.65344" lon="6.59599">
        <ele>2150.13</ele>
        <time>2012-06-16T11:23:32Z</time>
      </trkpt>
      <trkpt lat="45.65344" lon="6.59598">
        <ele>2150.61</ele>
        <time>2012-06-16T11:24:00Z</time>
      </trkpt>
      <trkpt lat="45.65345" lon="6.59598">
        <ele>2150.61</ele>
        <time>2012-06-16T11:24:32Z</time>
      </trkpt>
      <trkpt lat="45.65344" lon="6.59598">
        <ele>2151.09</ele>
        <time>2012-06-16T11:25:04Z</time>
      </trkpt>
      <trkpt lat="45.65344" lon="6.59598">
        <ele>2151.09</ele>
        <time>2012-06-16T11:25:31Z</time>
      </trkpt>
      <trkpt lat="45.65344" lon="6.59597">
        <ele>2151.09</ele>
        <time>2012-06-16T11:25:58Z</time>
      </trkpt>
      <trkpt lat="45.65344" lon="6.59598">
        <ele>2151.09</ele>
        <time>2012-06-16T11:26:28Z</time>
      </trkpt>
      <trkpt lat="45.65345" lon="6.59599">
        <ele>2150.61</ele>
        <time>2012-06-16T11:27:07Z</time>
      </trkpt>
      <trkpt lat="45.65344" lon="6.59598">
        <ele>2149.65</ele>
        <time>2012-06-16T11:27:54Z</time>
      </trkpt>
      <trkpt lat="45.65345" lon="6.59597">
        <ele>2149.65</ele>
        <time>2012-06-16T11:28:32Z</time>
      </trkpt>
      <trkpt lat="45.65345" lon="6.59596">
        <ele>2149.65</ele>
        <time>2012-06-16T11:28:57Z</time>
      </trkpt>
      <trkpt lat="45.65351" lon="6.59588">
        <ele>2149.65</ele>
        <time>2012-06-16T11:29:05Z</time>
      </trkpt>
      <trkpt lat="45.65351" lon="6.59588">
        <ele>2149.65</ele>
        <time>2012-06-16T11:29:18Z</time>
      </trkpt>
      <trkpt lat="45.6535" lon="6.59586">
        <ele>2149.65</ele>
        <time>2012-06-16T11:29:39Z</time>
      </trkpt>
      <trkpt lat="45.6535" lon="6.59585">
        <ele>2149.65</ele>
        <time>2012-06-16T11:30:24Z</time>
      </trkpt>
      <trkpt lat="45.6535" lon="6.59584">
        <ele>2149.65</ele>
        <time>2012-06-16T11:31:12Z</time>
      </trkpt>
      <trkpt lat="45.65349" lon="6.59583">
        <ele>2149.65</ele>
        <time>2012-06-16T11:31:41Z</time>
      </trkpt>
      <trkpt lat="45.65349" lon="6.59584">
        <ele>2149.65</ele>
        <time>2012-06-16T11:32:16Z</time>
      </trkpt>
      <trkpt lat="45.6535" lon="6.59584">
        <ele>2149.65</ele>
        <time>2012-06-16T11:33:00Z</time>
      </trkpt>
      <trkpt lat="45.65349" lon="6.59583">
        <ele>2149.65</ele>
        <time>2012-06-16T11:33:44Z</time>
      </trkpt>
      <trkpt lat="45.6535" lon="6.59584">
        <ele>2149.16</ele>
        <time>2012-06-16T11:34:32Z</time>
      </trkpt>
      <trkpt lat="45.65349" lon="6.59584">
        <ele>2149.16</ele>
        <time>2012-06-16T11:35:13Z</time>
      </trkpt>
      <trkpt lat="45.65349" lon="6.59584">
        <ele>2149.16</ele>
        <time>2012-06-16T11:35:52Z</time>
      </trkpt>
      <trkpt lat="45.65349" lon="6.59584">
        <ele>2149.16</ele>
        <time>2012-06-16T11:36:42Z</time>
      </trkpt>
      <trkpt lat="45.65348" lon="6.59584">
        <ele>2149.16</ele>
        <time>2012-06-16T11:37:11Z</time>
      </trkpt>
      <trkpt lat="45.65349" lon="6.59584">
        <ele>2149.16</ele>
        <time>2012-06-16T11:37:46Z</time>
      </trkpt>
      <trkpt lat="45.65349" lon="6.59584">
        <ele>2149.16</ele>
        <time>2012-06-16T11:38:18Z</time>
      </trkpt>
      <trkpt lat="45.65349" lon="6.59584">
        <ele>2149.16</ele>
        <time>2012-06-16T11:38:46Z</time>
      </trkpt>
      <trkpt lat="45.65349" lon="6.59584">
        <ele>2150.13</ele>
        <time>2012-06-16T11:39:04Z</time>
      </trkpt>
      <trkpt lat="45.65349" lon="6.59584">
        <ele>2150.61</ele>
        <time>2012-06-16T11:39:38Z</time>
      </trkpt>
      <trkpt lat="45.65349" lon="6.59584">
        <ele>2150.61</ele>
        <time>2012-06-16T11:40:09Z</time>
      </trkpt>
      <trkpt lat="45.6535" lon="6.59585">
        <ele>2149.65</ele>
        <time>2012-06-16T11:40:46Z</time>
      </trkpt>
      <trkpt lat="45.6535" lon="6.59586">
        <ele>2149.65</ele>
        <time>2012-06-16T11:41:29Z</time>
      </trkpt>
      <trkpt lat="45.6535" lon="6.59585">
        <ele>2149.65</ele>
        <time>2012-06-16T11:41:59Z</time>
      </trkpt>
      <trkpt lat="45.6535" lon="6.59585">
        <ele>2149.65</ele>
        <time>2012-06-16T11:42:40Z</time>
      </trkpt>
      <trkpt lat="45.6535" lon="6.59586">
        <ele>2149.65</ele>
        <time>2012-06-16T11:43:27Z</time>
      </trkpt>
      <trkpt lat="45.6535" lon="6.59586">
        <ele>2149.65</ele>
        <time>2012-06-16T11:44:11Z</time>
      </trkpt>
      <trkpt lat="45.65349" lon="6.59585">
        <ele>2149.65</ele>
        <time>2012-06-16T11:44:47Z</time>
      </trkpt>
      <trkpt lat="45.65349" lon="6.59586">
        <ele>2149.65</ele>
        <time>2012-06-16T11:45:20Z</time>
      </trkpt>
      <trkpt lat="45.65349" lon="6.59585">
        <ele>2149.65</ele>
        <time>2012-06-16T11:46:04Z</time>
      </trkpt>
      <trkpt lat="45.65349" lon="6.59586">
        <ele>2149.16</ele>
        <time>2012-06-16T11:46:57Z</time>
      </trkpt>
      <trkpt lat="45.65349" lon="6.59585">
        <ele>2149.16</ele>
        <time>2012-06-16T11:48:05Z</time>
      </trkpt>
      <trkpt lat="45.6535" lon="6.59586">
        <ele>2149.16</ele>
        <time>2012-06-16T11:48:35Z</time>
      </trkpt>
      <trkpt lat="45.65351" lon="6.59588">
        <ele>2148.2</ele>
        <time>2012-06-16T11:49:15Z</time>
      </trkpt>
      <trkpt lat="45.6535" lon="6.59588">
        <ele>2148.2</ele>
        <time>2012-06-16T11:49:49Z</time>
      </trkpt>
      <trkpt lat="45.6535" lon="6.59588">
        <ele>2147.72</ele>
        <time>2012-06-16T11:50:14Z</time>
      </trkpt>
      <trkpt lat="45.65349" lon="6.59587">
        <ele>2147.72</ele>
        <time>2012-06-16T11:50:41Z</time>
      </trkpt>
      <trkpt lat="45.65349" lon="6.59587">
        <ele>2147.24</ele>
        <time>2012-06-16T11:51:12Z</time>
      </trkpt>
      <trkpt lat="45.6535" lon="6.59588">
        <ele>2146.76</ele>
        <time>2012-06-16T11:51:37Z</time>
      </trkpt>
      <trkpt lat="45.6535" lon="6.59588">
        <ele>2146.28</ele>
        <time>2012-06-16T11:52:12Z</time>
      </trkpt>
      <trkpt lat="45.65349" lon="6.59587">
        <ele>2145.8</ele>
        <time>2012-06-16T11:52:44Z</time>
      </trkpt>
      <trkpt lat="45.65349" lon="6.59587">
        <ele>2145.8</ele>
        <time>2012-06-16T11:53:14Z</time>
      </trkpt>
      <trkpt lat="45.65349" lon="6.59588">
        <ele>2145.32</ele>
        <time>2012-06-16T11:53:43Z</time>
      </trkpt>
      <trkpt lat="45.65348" lon="6.59588">
        <ele>2144.84</ele>
        <time>2012-06-16T11:54:17Z</time>
      </trkpt>
      <trkpt lat="45.65348" lon="6.59588">
        <ele>2144.84</ele>
        <time>2012-06-16T11:54:50Z</time>
      </trkpt>
      <trkpt lat="45.65348" lon="6.59589">
        <ele>2144.36</ele>
        <time>2012-06-16T11:55:27Z</time>
      </trkpt>
      <trkpt lat="45.65349" lon="6.59589">
        <ele>2143.88</ele>
        <time>2012-06-16T11:55:51Z</time>
      </trkpt>
      <trkpt lat="45.65349" lon="6.59589">
        <ele>2143.88</ele>
        <time>2012-06-16T11:56:18Z</time>
      </trkpt>
      <trkpt lat="45.65349" lon="6.5959">
        <ele>2143.4</ele>
        <time>2012-06-16T11:56:50Z</time>
      </trkpt>
      <trkpt lat="45.65348" lon="6.5959">
        <ele>2142.92</ele>
        <time>2012-06-16T11:57:16Z</time>
      </trkpt>
      <trkpt lat="45.65349" lon="6.59588">
        <ele>2143.88</ele>
        <time>2012-06-16T11:57:40Z</time>
      </trkpt>
      <trkpt lat="45.65349" lon="6.59588">
        <ele>2143.4</ele>
        <time>2012-06-16T11:58:00Z</time>
      </trkpt>
      <trkpt lat="45.65348" lon="6.59589">
        <ele>2142.92</ele>
        <time>2012-06-16T11:58:32Z</time>
      </trkpt>
      <trkpt lat="45.65348" lon="6.59589">
        <ele>2142.92</ele>
        <time>2012-06-16T11:58:52Z</time>
      </trkpt>
      <trkpt lat="45.65348" lon="6.59589">
        <ele>2142.44</ele>
        <time>2012-06-16T11:59:17Z</time>
      </trkpt>
      <trkpt lat="45.65348" lon="6.5959">
        <ele>2142.44</ele>
        <time>2012-06-16T11:59:47Z</time>
      </trkpt>
      <trkpt lat="45.65347" lon="6.59588">
        <ele>2142.44</ele>
        <time>2012-06-16T12:00:11Z</time>
      </trkpt>
      <trkpt lat="45.65347" lon="6.59589">
        <ele>2141.95</ele>
        <time>2012-06-16T12:00:35Z</time>
      </trkpt>
      <trkpt lat="45.65348" lon="6.59588">
        <ele>2141.95</ele>
        <time>2012-06-16T12:01:04Z</time>
      </trkpt>
      <trkpt lat="45.65348" lon="6.59587">
        <ele>2141.47</ele>
        <time>2012-06-16T12:01:29Z</time>
      </trkpt>
      <trkpt lat="45.65349" lon="6.59588">
        <ele>2141.47</ele>
        <time>2012-06-16T12:01:50Z</time>
      </trkpt>
      <trkpt lat="45.6535" lon="6.59588">
        <ele>2140.51</ele>
        <time>2012-06-16T12:02:21Z</time>
      </trkpt>
      <trkpt lat="45.6535" lon="6.59586">
        <ele>2140.03</ele>
        <time>2012-06-16T12:02:56Z</time>
      </trkpt>
      <trkpt lat="45.65349" lon="6.59587">
        <ele>2139.55</ele>
        <time>2012-06-16T12:03:24Z</time>
      </trkpt>
      <trkpt lat="45.65349" lon="6.59587">
        <ele>2139.55</ele>
        <time>2012-06-16T12:03:58Z</time>
      </trkpt>
      <trkpt lat="45.6535" lon="6.59587">
        <ele>2139.55</ele>
        <time>2012-06-16T12:04:34Z</time>
      </trkpt>
      <trkpt lat="45.65349" lon="6.59587">
        <ele>2138.59</ele>
        <time>2012-06-16T12:05:12Z</time>
      </trkpt>
      <trkpt lat="45.65349" lon="6.59587">
        <ele>2138.59</ele>
        <time>2012-06-16T12:05:50Z</time>
      </trkpt>
      <trkpt lat="45.65349" lon="6.59587">
        <ele>2138.59</ele>
        <time>2012-06-16T12:06:13Z</time>
      </trkpt>
      <trkpt lat="45.6535" lon="6.59589">
        <ele>2139.07</ele>
        <time>2012-06-16T12:06:59Z</time>
      </trkpt>
      <trkpt lat="45.6535" lon="6.59589">
        <ele>2139.07</ele>
        <time>2012-06-16T12:07:45Z</time>
      </trkpt>
      <trkpt lat="45.65351" lon="6.59588">
        <ele>2140.03</ele>
        <time>2012-06-16T12:08:39Z</time>
      </trkpt>
      <trkpt lat="45.65351" lon="6.59587">
        <ele>2140.51</ele>
        <time>2012-06-16T12:09:09Z</time>
      </trkpt>
      <trkpt lat="45.65351" lon="6.59585">
        <ele>2140.51</ele>
        <time>2012-06-16T12:09:43Z</time>
      </trkpt>
      <trkpt lat="45.65352" lon="6.59585">
        <ele>2140.51</ele>
        <time>2012-06-16T12:10:15Z</time>
      </trkpt>
      <trkpt lat="45.65352" lon="6.59585">
        <ele>2140.51</ele>
        <time>2012-06-16T12:10:48Z</time>
      </trkpt>
      <trkpt lat="45.65352" lon="6.59584">
        <ele>2140.99</ele>
        <time>2012-06-16T12:11:24Z</time>
      </trkpt>
      <trkpt lat="45.65353" lon="6.59583">
        <ele>2141.47</ele>
        <time>2012-06-16T12:11:57Z</time>
      </trkpt>
      <trkpt lat="45.65353" lon="6.59583">
        <ele>2141.47</ele>
        <time>2012-06-16T12:12:25Z</time>
      </trkpt>
      <trkpt lat="45.65352" lon="6.59583">
        <ele>2141.47</ele>
        <time>2012-06-16T12:13:10Z</time>
      </trkpt>
      <trkpt lat="45.65353" lon="6.59583">
        <ele>2140.99</ele>
        <time>2012-06-16T12:14:07Z</time>
      </trkpt>
      <trkpt lat="45.65352" lon="6.59583">
        <ele>2140.51</ele>
        <time>2012-06-16T12:14:58Z</time>
      </trkpt>
      <trkpt lat="45.65352" lon="6.59583">
        <ele>2140.99</ele>
        <time>2012-06-16T12:15:45Z</time>
      </trkpt>
      <trkpt lat="45.65352" lon="6.59584">
        <ele>2140.99</ele>
        <time>2012-06-16T12:16:38Z</time>
      </trkpt>
      <trkpt lat="45.65352" lon="6.59585">
        <ele>2140.99</ele>
        <time>2012-06-16T12:17:35Z</time>
      </trkpt>
      <trkpt lat="45.65351" lon="6.59585">
        <ele>2141.95</ele>
        <time>2012-06-16T12:18:44Z</time>
      </trkpt>
      <trkpt lat="45.65351" lon="6.59585">
        <ele>2142.44</ele>
        <time>2012-06-16T12:19:43Z</time>
      </trkpt>
      <trkpt lat="45.6535" lon="6.59585">
        <ele>2142.92</ele>
        <time>2012-06-16T12:20:34Z</time>
      </trkpt>
      <trkpt lat="45.65351" lon="6.59586">
        <ele>2142.92</ele>
        <time>2012-06-16T12:21:10Z</time>
      </trkpt>
      <trkpt lat="45.65351" lon="6.59586">
        <ele>2141.95</ele>
        <time>2012-06-16T12:21:42Z</time>
      </trkpt>
      <trkpt lat="45.65351" lon="6.59587">
        <ele>2142.44</ele>
        <time>2012-06-16T12:22:09Z</time>
      </trkpt>
      <trkpt lat="45.6535" lon="6.59585">
        <ele>2142.44</ele>
        <time>2012-06-16T12:22:36Z</time>
      </trkpt>
      <trkpt lat="45.65351" lon="6.59585">
        <ele>2142.44</ele>
        <time>2012-06-16T12:23:00Z</time>
      </trkpt>
      <trkpt lat="45.65351" lon="6.59584">
        <ele>2142.44</ele>
        <time>2012-06-16T12:23:28Z</time>
      </trkpt>
      <trkpt lat="45.65351" lon="6.59585">
        <ele>2142.44</ele>
        <time>2012-06-16T12:23:57Z</time>
      </trkpt>
      <trkpt lat="45.65351" lon="6.59584">
        <ele>2142.92</ele>
        <time>2012-06-16T12:24:24Z</time>
      </trkpt>
      <trkpt lat="45.65351" lon="6.59584">
        <ele>2142.92</ele>
        <time>2012-06-16T12:24:53Z</time>
      </trkpt>
      <trkpt lat="45.65351" lon="6.59584">
        <ele>2142.92</ele>
        <time>2012-06-16T12:25:27Z</time>
      </trkpt>
      <trkpt lat="45.65351" lon="6.59584">
        <ele>2142.92</ele>
        <time>2012-06-16T12:25:51Z</time>
      </trkpt>
      <trkpt lat="45.65351" lon="6.59583">
        <ele>2142.92</ele>
        <time>2012-06-16T12:26:21Z</time>
      </trkpt>
      <trkpt lat="45.65351" lon="6.59583">
        <ele>2143.4</ele>
        <time>2012-06-16T12:26:53Z</time>
      </trkpt>
      <trkpt lat="45.65351" lon="6.59582">
        <ele>2143.4</ele>
        <time>2012-06-16T12:27:24Z</time>
      </trkpt>
      <trkpt lat="45.65351" lon="6.59584">
        <ele>2143.4</ele>
        <time>2012-06-16T12:28:09Z</time>
      </trkpt>
      <trkpt lat="45.65351" lon="6.59586">
        <ele>2143.4</ele>
        <time>2012-06-16T12:29:05Z</time>
      </trkpt>
      <trkpt lat="45.65351" lon="6.59587">
        <ele>2143.4</ele>
        <time>2012-06-16T12:30:01Z</time>
      </trkpt>
      <trkpt lat="45.65351" lon="6.59587">
        <ele>2142.92</ele>
        <time>2012-06-16T12:31:05Z</time>
      </trkpt>
      <trkpt lat="45.65351" lon="6.59588">
        <ele>2142.92</ele>
        <time>2012-06-16T12:31:51Z</time>
      </trkpt>
      <trkpt lat="45.65351" lon="6.59588">
        <ele>2142.92</ele>
        <time>2012-06-16T12:32:29Z</time>
      </trkpt>
      <trkpt lat="45.65351" lon="6.59588">
        <ele>2142.92</ele>
        <time>2012-06-16T12:33:06Z</time>
      </trkpt>
      <trkpt lat="45.65352" lon="6.59589">
        <ele>2144.36</ele>
        <time>2012-06-16T12:33:40Z</time>
      </trkpt>
      <trkpt lat="45.6535" lon="6.59587">
        <ele>2144.36</ele>
        <time>2012-06-16T12:34:17Z</time>
      </trkpt>
      <trkpt lat="45.65351" lon="6.59586">
        <ele>2144.36</ele>
        <time>2012-06-16T12:34:44Z</time>
      </trkpt>
      <trkpt lat="45.6535" lon="6.59585">
        <ele>2144.36</ele>
        <time>2012-06-16T12:35:15Z</time>
      </trkpt>
      <trkpt lat="45.6535" lon="6.59586">
        <ele>2144.84</ele>
        <time>2012-06-16T12:35:46Z</time>
      </trkpt>
      <trkpt lat="45.65351" lon="6.59587">
        <ele>2144.84</ele>
        <time>2012-06-16T12:36:19Z</time>
      </trkpt>
      <trkpt lat="45.6535" lon="6.59587">
        <ele>2144.84</ele>
        <time>2012-06-16T12:36:47Z</time>
      </trkpt>
      <trkpt lat="45.6535" lon="6.59587">
        <ele>2144.84</ele>
        <time>2012-06-16T12:37:16Z</time>
      </trkpt>
      <trkpt lat="45.65351" lon="6.59586">
        <ele>2144.84</ele>
        <time>2012-06-16T12:37:51Z</time>
      </trkpt>
      <trkpt lat="45.65351" lon="6.59586">
        <ele>2144.84</ele>
        <time>2012-06-16T12:38:18Z</time>
      </trkpt>
      <trkpt lat="45.65351" lon="6.59587">
        <ele>2145.32</ele>
        <time>2012-06-16T12:38:50Z</time>
      </trkpt>
      <trkpt lat="45.65351" lon="6.59587">
        <ele>2145.32</ele>
        <time>2012-06-16T12:39:44Z</time>
      </trkpt>
      <trkpt lat="45.6535" lon="6.59586">
        <ele>2145.32</ele>
        <time>2012-06-16T12:40:28Z</time>
      </trkpt>
      <trkpt lat="45.65351" lon="6.59587">
        <ele>2146.28</ele>
        <time>2012-06-16T12:41:31Z</time>
      </trkpt>
      <trkpt lat="45.65351" lon="6.59587">
        <ele>2145.32</ele>
        <time>2012-06-16T12:42:10Z</time>
      </trkpt>
      <trkpt lat="45.65351" lon="6.59587">
        <ele>2145.32</ele>
        <time>2012-06-16T12:42:43Z</time>
      </trkpt>
      <trkpt lat="45.65351" lon="6.59586">
        <ele>2145.32</ele>
        <time>2012-06-16T12:43:14Z</time>
      </trkpt>
      <trkpt lat="45.65351" lon="6.59586">
        <ele>2145.32</ele>
        <time>2012-06-16T12:43:43Z</time>
      </trkpt>
      <trkpt lat="45.65351" lon="6.59586">
        <ele>2145.32</ele>
        <time>2012-06-16T12:44:15Z</time>
      </trkpt>
      <trkpt lat="45.65351" lon="6.59587">
        <ele>2145.32</ele>
        <time>2012-06-16T12:44:42Z</time>
      </trkpt>
      <trkpt lat="45.6535" lon="6.59585">
        <ele>2145.32</ele>
        <time>2012-06-16T12:45:11Z</time>
      </trkpt>
      <trkpt lat="45.6535" lon="6.59586">
        <ele>2145.32</ele>
        <time>2012-06-16T12:45:43Z</time>
      </trkpt>
      <trkpt lat="45.65351" lon="6.59585">
        <ele>2145.32</ele>
        <time>2012-06-16T12:46:12Z</time>
      </trkpt>
      <trkpt lat="45.65351" lon="6.59585">
        <ele>2145.32</ele>
        <time>2012-06-16T12:46:55Z</time>
      </trkpt>
      <trkpt lat="45.65351" lon="6.59585">
        <ele>2145.8</ele>
        <time>2012-06-16T12:47:44Z</time>
      </trkpt>
      <trkpt lat="45.65351" lon="6.59587">
        <ele>2145.8</ele>
        <time>2012-06-16T12:48:20Z</time>
      </trkpt>
      <trkpt lat="45.65352" lon="6.59586">
        <ele>2145.8</ele>
        <time>2012-06-16T12:48:50Z</time>
      </trkpt>
      <trkpt lat="45.65351" lon="6.59586">
        <ele>2146.76</ele>
        <time>2012-06-16T12:49:28Z</time>
      </trkpt>
      <trkpt lat="45.65351" lon="6.59587">
        <ele>2147.24</ele>
        <time>2012-06-16T12:50:16Z</time>
      </trkpt>
      <trkpt lat="45.65351" lon="6.59587">
        <ele>2147.24</ele>
        <time>2012-06-16T12:51:05Z</time>
      </trkpt>
      <trkpt lat="45.65351" lon="6.59587">
        <ele>2147.24</ele>
        <time>2012-06-16T12:51:47Z</time>
      </trkpt>
      <trkpt lat="45.65351" lon="6.59587">
        <ele>2146.28</ele>
        <time>2012-06-16T12:52:42Z</time>
      </trkpt>
      <trkpt lat="45.65351" lon="6.59588">
        <ele>2146.28</ele>
        <time>2012-06-16T12:53:35Z</time>
      </trkpt>
      <trkpt lat="45.6535" lon="6.59587">
        <ele>2146.28</ele>
        <time>2012-06-16T12:54:04Z</time>
      </trkpt>
      <trkpt lat="45.65351" lon="6.59588">
        <ele>2146.28</ele>
        <time>2012-06-16T12:54:35Z</time>
      </trkpt>
      <trkpt lat="45.6535" lon="6.59587">
        <ele>2145.8</ele>
        <time>2012-06-16T12:55:34Z</time>
      </trkpt>
      <trkpt lat="45.6535" lon="6.59588">
        <ele>2145.8</ele>
        <time>2012-06-16T12:56:35Z</time>
      </trkpt>
      <trkpt lat="45.65351" lon="6.59588">
        <ele>2146.76</ele>
        <time>2012-06-16T12:57:18Z</time>
      </trkpt>
      <trkpt lat="45.65351" lon="6.59587">
        <ele>2146.76</ele>
        <time>2012-06-16T12:57:53Z</time>
      </trkpt>
      <trkpt lat="45.65351" lon="6.59586">
        <ele>2146.76</ele>
        <time>2012-06-16T12:58:24Z</time>
      </trkpt>
      <trkpt lat="45.65351" lon="6.59586">
        <ele>2146.76</ele>
        <time>2012-06-16T12:58:54Z</time>
      </trkpt>
      <trkpt lat="45.65351" lon="6.59586">
        <ele>2145.32</ele>
        <time>2012-06-16T12:58:59Z</time>
      </trkpt>
      <trkpt lat="45.65351" lon="6.59586">
        <ele>2145.32</ele>
        <time>2012-06-16T12:59:37Z</time>
      </trkpt>
      <trkpt lat="45.6535" lon="6.59586">
        <ele>2145.32</ele>
        <time>2012-06-16T13:00:36Z</time>
      </trkpt>
      <trkpt lat="45.6535" lon="6.59586">
        <ele>2145.32</ele>
        <time>2012-06-16T13:01:21Z</time>
      </trkpt>
      <trkpt lat="45.65351" lon="6.59586">
        <ele>2145.32</ele>
        <time>2012-06-16T13:02:23Z</time>
      </trkpt>
      <trkpt lat="45.6535" lon="6.59586">
        <ele>2145.32</ele>
        <time>2012-06-16T13:03:23Z</time>
      </trkpt>
      <trkpt lat="45.6535" lon="6.59587">
        <ele>2145.32</ele>
        <time>2012-06-16T13:04:18Z</time>
      </trkpt>
      <trkpt lat="45.65351" lon="6.59586">
        <ele>2145.32</ele>
        <time>2012-06-16T13:05:27Z</time>
      </trkpt>
      <trkpt lat="45.65351" lon="6.59588">
        <ele>2145.32</ele>
        <time>2012-06-16T13:06:18Z</time>
      </trkpt>
      <trkpt lat="45.65351" lon="6.5959">
        <ele>2145.32</ele>
        <time>2012-06-16T13:07:05Z</time>
      </trkpt>
      <trkpt lat="45.65351" lon="6.59589">
        <ele>2145.32</ele>
        <time>2012-06-16T13:07:46Z</time>
      </trkpt>
      <trkpt lat="45.65351" lon="6.59589">
        <ele>2145.32</ele>
        <time>2012-06-16T13:08:40Z</time>
      </trkpt>
      <trkpt lat="45.65351" lon="6.59588">
        <ele>2145.32</ele>
        <time>2012-06-16T13:09:25Z</time>
      </trkpt>
      <trkpt lat="45.65351" lon="6.59587">
        <ele>2145.32</ele>
        <time>2012-06-16T13:10:04Z</time>
      </trkpt>
      <trkpt lat="45.65351" lon="6.59586">
        <ele>2145.32</ele>
        <time>2012-06-16T13:10:46Z</time>
      </trkpt>
      <trkpt lat="45.65351" lon="6.59586">
        <ele>2145.8</ele>
        <time>2012-06-16T13:11:37Z</time>
      </trkpt>
      <trkpt lat="45.65351" lon="6.59583">
        <ele>2145.8</ele>
        <time>2012-06-16T13:12:39Z</time>
      </trkpt>
      <trkpt lat="45.65351" lon="6.59583">
        <ele>2145.8</ele>
        <time>2012-06-16T13:13:26Z</time>
      </trkpt>
      <trkpt lat="45.65351" lon="6.59584">
        <ele>2145.8</ele>
        <time>2012-06-16T13:14:04Z</time>
      </trkpt>
      <trkpt lat="45.65351" lon="6.59584">
        <ele>2145.8</ele>
        <time>2012-06-16T13:14:34Z</time>
      </trkpt>
      <trkpt lat="45.65351" lon="6.59584">
        <ele>2145.8</ele>
        <time>2012-06-16T13:15:08Z</time>
      </trkpt>
      <trkpt lat="45.65351" lon="6.59583">
        <ele>2146.28</ele>
        <time>2012-06-16T13:15:54Z</time>
      </trkpt>
      <trkpt lat="45.65351" lon="6.59583">
        <ele>2146.28</ele>
        <time>2012-06-16T13:16:33Z</time>
      </trkpt>
      <trkpt lat="45.65351" lon="6.59584">
        <ele>2146.28</ele>
        <time>2012-06-16T13:17:00Z</time>
      </trkpt>
      <trkpt lat="45.65351" lon="6.59584">
        <ele>2146.28</ele>
        <time>2012-06-16T13:17:24Z</time>
      </trkpt>
      <trkpt lat="45.65351" lon="6.59584">
        <ele>2146.28</ele>
        <time>2012-06-16T13:17:55Z</time>
      </trkpt>
      <trkpt lat="45.65351" lon="6.59583">
        <ele>2146.28</ele>
        <time>2012-06-16T13:18:19Z</time>
      </trkpt>
      <trkpt lat="45.65351" lon="6.59583">
        <ele>2146.28</ele>
        <time>2012-06-16T13:18:52Z</time>
      </trkpt>
      <trkpt lat="45.65351" lon="6.59584">
        <ele>2146.28</ele>
        <time>2012-06-16T13:19:31Z</time>
      </trkpt>
      <trkpt lat="45.65351" lon="6.59584">
        <ele>2147.72</ele>
        <time>2012-06-16T13:20:01Z</time>
      </trkpt>
      <trkpt lat="45.65351" lon="6.59584">
        <ele>2147.72</ele>
        <time>2012-06-16T13:20:44Z</time>
      </trkpt>
      <trkpt lat="45.65351" lon="6.59584">
        <ele>2147.72</ele>
        <time>2012-06-16T13:21:23Z</time>
      </trkpt>
      <trkpt lat="45.65351" lon="6.59585">
        <ele>2147.72</ele>
        <time>2012-06-16T13:22:05Z</time>
      </trkpt>
      <trkpt lat="45.65352" lon="6.59585">
        <ele>2148.2</ele>
        <time>2012-06-16T13:22:40Z</time>
      </trkpt>
      <trkpt lat="45.65352" lon="6.59584">
        <ele>2147.24</ele>
        <time>2012-06-16T13:23:15Z</time>
      </trkpt>
      <trkpt lat="45.65351" lon="6.59584">
        <ele>2147.24</ele>
        <time>2012-06-16T13:23:47Z</time>
      </trkpt>
      <trkpt lat="45.65352" lon="6.59586">
        <ele>2147.24</ele>
        <time>2012-06-16T13:24:14Z</time>
      </trkpt>
      <trkpt lat="45.65352" lon="6.59587">
        <ele>2147.24</ele>
        <time>2012-06-16T13:24:45Z</time>
      </trkpt>
      <trkpt lat="45.65351" lon="6.59586">
        <ele>2147.24</ele>
        <time>2012-06-16T13:25:18Z</time>
      </trkpt>
      <trkpt lat="45.65351" lon="6.59586">
        <ele>2146.76</ele>
        <time>2012-06-16T13:25:51Z</time>
      </trkpt>
      <trkpt lat="45.65351" lon="6.59585">
        <ele>2146.76</ele>
        <time>2012-06-16T13:26:22Z</time>
      </trkpt>
      <trkpt lat="45.65351" lon="6.59585">
        <ele>2146.76</ele>
        <time>2012-06-16T13:26:54Z</time>
      </trkpt>
      <trkpt lat="45.65351" lon="6.59585">
        <ele>2146.76</ele>
        <time>2012-06-16T13:27:22Z</time>
      </trkpt>
      <trkpt lat="45.65351" lon="6.59585">
        <ele>2146.76</ele>
        <time>2012-06-16T13:28:00Z</time>
      </trkpt>
      <trkpt lat="45.65351" lon="6.59584">
        <ele>2147.24</ele>
        <time>2012-06-16T13:28:39Z</time>
      </trkpt>
      <trkpt lat="45.65351" lon="6.59584">
        <ele>2147.24</ele>
        <time>2012-06-16T13:29:12Z</time>
      </trkpt>
      <trkpt lat="45.65351" lon="6.59583">
        <ele>2147.24</ele>
        <time>2012-06-16T13:29:39Z</time>
      </trkpt>
      <trkpt lat="45.65352" lon="6.59584">
        <ele>2147.24</ele>
        <time>2012-06-16T13:30:24Z</time>
      </trkpt>
      <trkpt lat="45.65352" lon="6.59584">
        <ele>2147.24</ele>
        <time>2012-06-16T13:31:28Z</time>
      </trkpt>
      <trkpt lat="45.65352" lon="6.59586">
        <ele>2147.24</ele>
        <time>2012-06-16T13:32:33Z</time>
      </trkpt>
      <trkpt lat="45.65351" lon="6.59587">
        <ele>2147.24</ele>
        <time>2012-06-16T13:33:28Z</time>
      </trkpt>
      <trkpt lat="45.65352" lon="6.59587">
        <ele>2146.76</ele>
        <time>2012-06-16T13:34:31Z</time>
      </trkpt>
      <trkpt lat="45.65352" lon="6.59586">
        <ele>2146.76</ele>
        <time>2012-06-16T13:35:23Z</time>
      </trkpt>
      <trkpt lat="45.65352" lon="6.59585">
        <ele>2146.76</ele>
        <time>2012-06-16T13:36:33Z</time>
      </trkpt>
      <trkpt lat="45.65352" lon="6.59584">
        <ele>2147.24</ele>
        <time>2012-06-16T13:37:24Z</time>
      </trkpt>
      <trkpt lat="45.65352" lon="6.59583">
        <ele>2147.24</ele>
        <time>2012-06-16T13:38:17Z</time>
      </trkpt>
      <trkpt lat="45.65352" lon="6.59583">
        <ele>2147.24</ele>
        <time>2012-06-16T13:38:50Z</time>
      </trkpt>
      <trkpt lat="45.6535" lon="6.59585">
        <ele>2147.24</ele>
        <time>2012-06-16T13:39:18Z</time>
      </trkpt>
      <trkpt lat="45.65346" lon="6.59588">
        <ele>2147.24</ele>
        <time>2012-06-16T13:39:26Z</time>
      </trkpt>
      <trkpt lat="45.65343" lon="6.5959">
        <ele>2148.2</ele>
        <time>2012-06-16T13:39:39Z</time>
      </trkpt>
      <trkpt lat="45.65343" lon="6.5959">
        <ele>2148.68</ele>
        <time>2012-06-16T13:40:16Z</time>
      </trkpt>
      <trkpt lat="45.65342" lon="6.5959">
        <ele>2148.68</ele>
        <time>2012-06-16T13:40:43Z</time>
      </trkpt>
      <trkpt lat="45.65342" lon="6.5959">
        <ele>2148.68</ele>
        <time>2012-06-16T13:41:20Z</time>
      </trkpt>
      <trkpt lat="45.65342" lon="6.59591">
        <ele>2148.68</ele>
        <time>2012-06-16T13:41:56Z</time>
      </trkpt>
      <trkpt lat="45.65342" lon="6.59591">
        <ele>2148.68</ele>
        <time>2012-06-16T13:42:29Z</time>
      </trkpt>
      <trkpt lat="45.65341" lon="6.59592">
        <ele>2148.68</ele>
        <time>2012-06-16T13:42:47Z</time>
      </trkpt>
      <trkpt lat="45.65337" lon="6.59591">
        <ele>2148.68</ele>
        <time>2012-06-16T13:42:53Z</time>
      </trkpt>
      <trkpt lat="45.65336" lon="6.59583">
        <ele>2151.57</ele>
        <time>2012-06-16T13:43:07Z</time>
      </trkpt>
      <trkpt lat="45.65335" lon="6.59584">
        <ele>2152.05</ele>
        <time>2012-06-16T13:43:36Z</time>
      </trkpt>
      <trkpt lat="45.65336" lon="6.59583">
        <ele>2152.05</ele>
        <time>2012-06-16T13:44:07Z</time>
      </trkpt>
      <trkpt lat="45.65335" lon="6.59582">
        <ele>2152.05</ele>
        <time>2012-06-16T13:44:41Z</time>
      </trkpt>
      <trkpt lat="45.65334" lon="6.59583">
        <ele>2152.05</ele>
        <time>2012-06-16T13:45:13Z</time>
      </trkpt>
      <trkpt lat="45.65334" lon="6.59581">
        <ele>2152.53</ele>
        <time>2012-06-16T13:46:09Z</time>
      </trkpt>
      <trkpt lat="45.65334" lon="6.5957">
        <ele>2153.01</ele>
        <time>2012-06-16T13:46:19Z</time>
      </trkpt>
      <trkpt lat="45.65333" lon="6.59562">
        <ele>2153.49</ele>
        <time>2012-06-16T13:46:33Z</time>
      </trkpt>
      <trkpt lat="45.65333" lon="6.59563">
        <ele>2153.49</ele>
        <time>2012-06-16T13:46:37Z</time>
      </trkpt>
      <trkpt lat="45.65342" lon="6.59553">
        <ele>2153.97</ele>
        <time>2012-06-16T13:46:51Z</time>
      </trkpt>
      <trkpt lat="45.65359" lon="6.5954">
        <ele>2153.97</ele>
        <time>2012-06-16T13:47:06Z</time>
      </trkpt>
      <trkpt lat="45.65383" lon="6.59525">
        <ele>2154.45</ele>
        <time>2012-06-16T13:47:24Z</time>
      </trkpt>
      <trkpt lat="45.65385" lon="6.59525">
        <ele>2154.93</ele>
        <time>2012-06-16T13:47:35Z</time>
      </trkpt>
      <trkpt lat="45.65386" lon="6.59525">
        <ele>2154.93</ele>
        <time>2012-06-16T13:47:47Z</time>
      </trkpt>
      <trkpt lat="45.65397" lon="6.59512">
        <ele>2155.41</ele>
        <time>2012-06-16T13:48:02Z</time>
      </trkpt>
      <trkpt lat="45.65404" lon="6.59503">
        <ele>2155.89</ele>
        <time>2012-06-16T13:48:15Z</time>
      </trkpt>
      <trkpt lat="45.65412" lon="6.59494">
        <ele>2156.86</ele>
        <time>2012-06-16T13:48:28Z</time>
      </trkpt>
      <trkpt lat="45.65423" lon="6.59484">
        <ele>2157.82</ele>
        <time>2012-06-16T13:48:42Z</time>
      </trkpt>
      <trkpt lat="45.65437" lon="6.59475">
        <ele>2159.74</ele>
        <time>2012-06-16T13:48:57Z</time>
      </trkpt>
      <trkpt lat="45.65439" lon="6.59473">
        <ele>2160.7</ele>
        <time>2012-06-16T13:49:11Z</time>
      </trkpt>
      <trkpt lat="45.65438" lon="6.59475">
        <ele>2160.7</ele>
        <time>2012-06-16T13:49:43Z</time>
      </trkpt>
      <trkpt lat="45.65439" lon="6.59475">
        <ele>2160.7</ele>
        <time>2012-06-16T13:50:10Z</time>
      </trkpt>
      <trkpt lat="45.65439" lon="6.59476">
        <ele>2161.18</ele>
        <time>2012-06-16T13:50:46Z</time>
      </trkpt>
      <trkpt lat="45.65439" lon="6.59476">
        <ele>2161.66</ele>
        <time>2012-06-16T13:51:14Z</time>
      </trkpt>
      <trkpt lat="45.65439" lon="6.59475">
        <ele>2161.66</ele>
        <time>2012-06-16T13:51:44Z</time>
      </trkpt>
      <trkpt lat="45.65439" lon="6.59474">
        <ele>2161.66</ele>
        <time>2012-06-16T13:52:12Z</time>
      </trkpt>
      <trkpt lat="45.65441" lon="6.59471">
        <ele>2161.66</ele>
        <time>2012-06-16T13:52:31Z</time>
      </trkpt>
      <trkpt lat="45.65444" lon="6.59466">
        <ele>2161.66</ele>
        <time>2012-06-16T13:52:36Z</time>
      </trkpt>
      <trkpt lat="45.65463" lon="6.59456">
        <ele>2161.66</ele>
        <time>2012-06-16T13:52:54Z</time>
      </trkpt>
      <trkpt lat="45.65467" lon="6.59455">
        <ele>2161.66</ele>
        <time>2012-06-16T13:52:57Z</time>
      </trkpt>
      <trkpt lat="45.65469" lon="6.59453">
        <ele>2162.14</ele>
        <time>2012-06-16T13:53:04Z</time>
      </trkpt>
      <trkpt lat="45.65474" lon="6.59449">
        <ele>2163.58</ele>
        <time>2012-06-16T13:53:10Z</time>
      </trkpt>
      <trkpt lat="45.65484" lon="6.59444">
        <ele>2164.55</ele>
        <time>2012-06-16T13:53:22Z</time>
      </trkpt>
      <trkpt lat="45.65493" lon="6.59438">
        <ele>2165.03</ele>
        <time>2012-06-16T13:53:33Z</time>
      </trkpt>
      <trkpt lat="45.65511" lon="6.59432">
        <ele>2165.51</ele>
        <time>2012-06-16T13:53:49Z</time>
      </trkpt>
      <trkpt lat="45.65525" lon="6.59426">
        <ele>2165.51</ele>
        <time>2012-06-16T13:54:05Z</time>
      </trkpt>
      <trkpt lat="45.6553" lon="6.59422">
        <ele>2165.51</ele>
        <time>2012-06-16T13:54:14Z</time>
      </trkpt>
      <trkpt lat="45.65545" lon="6.59411">
        <ele>2164.06</ele>
        <time>2012-06-16T13:54:30Z</time>
      </trkpt>
      <trkpt lat="45.65554" lon="6.59408">
        <ele>2165.03</ele>
        <time>2012-06-16T13:54:46Z</time>
      </trkpt>
      <trkpt lat="45.65554" lon="6.59407">
        <ele>2165.51</ele>
        <time>2012-06-16T13:55:16Z</time>
      </trkpt>
      <trkpt lat="45.65554" lon="6.59407">
        <ele>2165.99</ele>
        <time>2012-06-16T13:55:49Z</time>
      </trkpt>
      <trkpt lat="45.65553" lon="6.59407">
        <ele>2166.47</ele>
        <time>2012-06-16T13:56:12Z</time>
      </trkpt>
      <trkpt lat="45.65551" lon="6.59407">
        <ele>2166.47</ele>
        <time>2012-06-16T13:56:23Z</time>
      </trkpt>
      <trkpt lat="45.65552" lon="6.59405">
        <ele>2166.47</ele>
        <time>2012-06-16T13:56:59Z</time>
      </trkpt>
      <trkpt lat="45.65552" lon="6.59405">
        <ele>2166.47</ele>
        <time>2012-06-16T13:57:31Z</time>
      </trkpt>
      <trkpt lat="45.65554" lon="6.59406">
        <ele>2166.47</ele>
        <time>2012-06-16T13:57:51Z</time>
      </trkpt>
      <trkpt lat="45.65554" lon="6.59407">
        <ele>2166.47</ele>
        <time>2012-06-16T13:58:07Z</time>
      </trkpt>
      <trkpt lat="45.65554" lon="6.59407">
        <ele>2166.47</ele>
        <time>2012-06-16T13:58:08Z</time>
      </trkpt>
      <trkpt lat="45.65572" lon="6.59396">
        <ele>2165.03</ele>
        <time>2012-06-16T13:58:16Z</time>
      </trkpt>
      <trkpt lat="45.65586" lon="6.59391">
        <ele>2161.18</ele>
        <time>2012-06-16T13:58:21Z</time>
      </trkpt>
      <trkpt lat="45.65591" lon="6.59386">
        <ele>2159.74</ele>
        <time>2012-06-16T13:58:23Z</time>
      </trkpt>
      <trkpt lat="45.65602" lon="6.59373">
        <ele>2157.82</ele>
        <time>2012-06-16T13:58:28Z</time>
      </trkpt>
      <trkpt lat="45.6561" lon="6.59368">
        <ele>2158.3</ele>
        <time>2012-06-16T13:58:39Z</time>
      </trkpt>
      <trkpt lat="45.65629" lon="6.59362">
        <ele>2158.3</ele>
        <time>2012-06-16T13:58:51Z</time>
      </trkpt>
      <trkpt lat="45.6565" lon="6.59343">
        <ele>2155.89</ele>
        <time>2012-06-16T13:59:02Z</time>
      </trkpt>
      <trkpt lat="45.65656" lon="6.59336">
        <ele>2152.53</ele>
        <time>2012-06-16T13:59:05Z</time>
      </trkpt>
      <trkpt lat="45.6566" lon="6.59329">
        <ele>2149.16</ele>
        <time>2012-06-16T13:59:07Z</time>
      </trkpt>
      <trkpt lat="45.65669" lon="6.59324">
        <ele>2143.88</ele>
        <time>2012-06-16T13:59:10Z</time>
      </trkpt>
      <trkpt lat="45.65673" lon="6.59325">
        <ele>2141.95</ele>
        <time>2012-06-16T13:59:11Z</time>
      </trkpt>
      <trkpt lat="45.65683" lon="6.59327">
        <ele>2140.03</ele>
        <time>2012-06-16T13:59:14Z</time>
      </trkpt>
      <trkpt lat="45.6569" lon="6.59328">
        <ele>2144.36</ele>
        <time>2012-06-16T13:59:19Z</time>
      </trkpt>
      <trkpt lat="45.65698" lon="6.59326">
        <ele>2147.72</ele>
        <time>2012-06-16T13:59:23Z</time>
      </trkpt>
      <trkpt lat="45.65719" lon="6.59322">
        <ele>2144.84</ele>
        <time>2012-06-16T13:59:29Z</time>
      </trkpt>
      <trkpt lat="45.65729" lon="6.59321">
        <ele>2141.47</ele>
        <time>2012-06-16T13:59:32Z</time>
      </trkpt>
      <trkpt lat="45.6573" lon="6.59321">
        <ele>2140.99</ele>
        <time>2012-06-16T13:59:34Z</time>
      </trkpt>
      <trkpt lat="45.65729" lon="6.59321">
        <ele>2143.4</ele>
        <time>2012-06-16T14:00:00Z</time>
      </trkpt>
      <trkpt lat="45.65729" lon="6.59321">
        <ele>2143.88</ele>
        <time>2012-06-16T14:00:18Z</time>
      </trkpt>
      <trkpt lat="45.65736" lon="6.59319">
        <ele>2143.88</ele>
        <time>2012-06-16T14:00:31Z</time>
      </trkpt>
      <trkpt lat="45.65754" lon="6.59316">
        <ele>2143.88</ele>
        <time>2012-06-16T14:00:40Z</time>
      </trkpt>
      <trkpt lat="45.65763" lon="6.59314">
        <ele>2139.07</ele>
        <time>2012-06-16T14:00:45Z</time>
      </trkpt>
      <trkpt lat="45.65769" lon="6.59314">
        <ele>2136.19</ele>
        <time>2012-06-16T14:00:48Z</time>
      </trkpt>
      <trkpt lat="45.65775" lon="6.59315">
        <ele>2133.78</ele>
        <time>2012-06-16T14:00:50Z</time>
      </trkpt>
      <trkpt lat="45.65784" lon="6.59319">
        <ele>2131.38</ele>
        <time>2012-06-16T14:00:52Z</time>
      </trkpt>
      <trkpt lat="45.65799" lon="6.59329">
        <ele>2126.09</ele>
        <time>2012-06-16T14:00:55Z</time>
      </trkpt>
      <trkpt lat="45.65813" lon="6.59338">
        <ele>2120.32</ele>
        <time>2012-06-16T14:00:59Z</time>
      </trkpt>
      <trkpt lat="45.65815" lon="6.5934">
        <ele>2119.36</ele>
        <time>2012-06-16T14:01:01Z</time>
      </trkpt>
      <trkpt lat="45.65815" lon="6.5934">
        <ele>2123.21</ele>
        <time>2012-06-16T14:01:07Z</time>
      </trkpt>
      <trkpt lat="45.65815" lon="6.5934">
        <ele>2126.57</ele>
        <time>2012-06-16T14:01:11Z</time>
      </trkpt>
      <trkpt lat="45.65825" lon="6.59344">
        <ele>2123.21</ele>
        <time>2012-06-16T14:01:18Z</time>
      </trkpt>
      <trkpt lat="45.65838" lon="6.59346">
        <ele>2119.36</ele>
        <time>2012-06-16T14:01:21Z</time>
      </trkpt>
      <trkpt lat="45.65854" lon="6.59348">
        <ele>2114.08</ele>
        <time>2012-06-16T14:01:24Z</time>
      </trkpt>
      <trkpt lat="45.65877" lon="6.59355">
        <ele>2108.79</ele>
        <time>2012-06-16T14:01:29Z</time>
      </trkpt>
      <trkpt lat="45.65892" lon="6.59355">
        <ele>2108.31</ele>
        <time>2012-06-16T14:01:34Z</time>
      </trkpt>
      <trkpt lat="45.65908" lon="6.59353">
        <ele>2103.98</ele>
        <time>2012-06-16T14:01:40Z</time>
      </trkpt>
      <trkpt lat="45.65912" lon="6.59356">
        <ele>2101.1</ele>
        <time>2012-06-16T14:01:42Z</time>
      </trkpt>
      <trkpt lat="45.65916" lon="6.59358">
        <ele>2097.73</ele>
        <time>2012-06-16T14:01:44Z</time>
      </trkpt>
      <trkpt lat="45.65921" lon="6.59358">
        <ele>2094.85</ele>
        <time>2012-06-16T14:01:46Z</time>
      </trkpt>
      <trkpt lat="45.65946" lon="6.59365">
        <ele>2091</ele>
        <time>2012-06-16T14:01:51Z</time>
      </trkpt>
      <trkpt lat="45.65961" lon="6.59367">
        <ele>2095.81</ele>
        <time>2012-06-16T14:01:58Z</time>
      </trkpt>
      <trkpt lat="45.65962" lon="6.59367">
        <ele>2099.18</ele>
        <time>2012-06-16T14:02:01Z</time>
      </trkpt>
      <trkpt lat="45.65979" lon="6.59375">
        <ele>2098.7</ele>
        <time>2012-06-16T14:02:16Z</time>
      </trkpt>
      <trkpt lat="45.65991" lon="6.59383">
        <ele>2099.18</ele>
        <time>2012-06-16T14:02:26Z</time>
      </trkpt>
      <trkpt lat="45.66003" lon="6.59387">
        <ele>2100.14</ele>
        <time>2012-06-16T14:02:38Z</time>
      </trkpt>
      <trkpt lat="45.66009" lon="6.5939">
        <ele>2100.62</ele>
        <time>2012-06-16T14:02:49Z</time>
      </trkpt>
      <trkpt lat="45.66023" lon="6.59393">
        <ele>2101.58</ele>
        <time>2012-06-16T14:03:03Z</time>
      </trkpt>
      <trkpt lat="45.66043" lon="6.59395">
        <ele>2101.58</ele>
        <time>2012-06-16T14:03:16Z</time>
      </trkpt>
      <trkpt lat="45.6605" lon="6.59396">
        <ele>2101.58</ele>
        <time>2012-06-16T14:03:21Z</time>
      </trkpt>
      <trkpt lat="45.66078" lon="6.59393">
        <ele>2101.58</ele>
        <time>2012-06-16T14:03:35Z</time>
      </trkpt>
      <trkpt lat="45.66092" lon="6.59391">
        <ele>2100.62</ele>
        <time>2012-06-16T14:03:39Z</time>
      </trkpt>
      <trkpt lat="45.66108" lon="6.5939">
        <ele>2100.14</ele>
        <time>2012-06-16T14:03:43Z</time>
      </trkpt>
      <trkpt lat="45.66136" lon="6.59388">
        <ele>2095.81</ele>
        <time>2012-06-16T14:03:51Z</time>
      </trkpt>
      <trkpt lat="45.66146" lon="6.59388">
        <ele>2092.45</ele>
        <time>2012-06-16T14:03:55Z</time>
      </trkpt>
      <trkpt lat="45.66147" lon="6.59388">
        <ele>2091.49</ele>
        <time>2012-06-16T14:03:57Z</time>
      </trkpt>
      <trkpt lat="45.66147" lon="6.59389">
        <ele>2092.93</ele>
        <time>2012-06-16T14:04:16Z</time>
      </trkpt>
      <trkpt lat="45.66147" lon="6.59389">
        <ele>2092.93</ele>
        <time>2012-06-16T14:04:36Z</time>
      </trkpt>
      <trkpt lat="45.66149" lon="6.5939">
        <ele>2093.41</ele>
        <time>2012-06-16T14:05:01Z</time>
      </trkpt>
      <trkpt lat="45.66156" lon="6.59392">
        <ele>2093.41</ele>
        <time>2012-06-16T14:05:08Z</time>
      </trkpt>
      <trkpt lat="45.66155" lon="6.59392">
        <ele>2091.97</ele>
        <time>2012-06-16T14:05:32Z</time>
      </trkpt>
      <trkpt lat="45.66155" lon="6.59392">
        <ele>2091.49</ele>
        <time>2012-06-16T14:05:57Z</time>
      </trkpt>
      <trkpt lat="45.66156" lon="6.59392">
        <ele>2091.49</ele>
        <time>2012-06-16T14:06:20Z</time>
      </trkpt>
      <trkpt lat="45.66159" lon="6.59393">
        <ele>2091.49</ele>
        <time>2012-06-16T14:06:41Z</time>
      </trkpt>
      <trkpt lat="45.66183" lon="6.59405">
        <ele>2087.64</ele>
        <time>2012-06-16T14:06:49Z</time>
      </trkpt>
      <trkpt lat="45.6619" lon="6.5941">
        <ele>2082.83</ele>
        <time>2012-06-16T14:06:52Z</time>
      </trkpt>
      <trkpt lat="45.66197" lon="6.59414">
        <ele>2079.47</ele>
        <time>2012-06-16T14:06:54Z</time>
      </trkpt>
      <trkpt lat="45.66205" lon="6.59416">
        <ele>2076.59</ele>
        <time>2012-06-16T14:06:56Z</time>
      </trkpt>
      <trkpt lat="45.66213" lon="6.59421">
        <ele>2073.7</ele>
        <time>2012-06-16T14:06:58Z</time>
      </trkpt>
      <trkpt lat="45.66231" lon="6.59429">
        <ele>2072.26</ele>
        <time>2012-06-16T14:07:03Z</time>
      </trkpt>
      <trkpt lat="45.66254" lon="6.59439">
        <ele>2071.3</ele>
        <time>2012-06-16T14:07:09Z</time>
      </trkpt>
      <trkpt lat="45.66267" lon="6.59457">
        <ele>2070.82</ele>
        <time>2012-06-16T14:07:12Z</time>
      </trkpt>
      <trkpt lat="45.66278" lon="6.59475">
        <ele>2069.38</ele>
        <time>2012-06-16T14:07:15Z</time>
      </trkpt>
      <trkpt lat="45.66294" lon="6.59497">
        <ele>2065.05</ele>
        <time>2012-06-16T14:07:20Z</time>
      </trkpt>
      <trkpt lat="45.66308" lon="6.59514">
        <ele>2068.41</ele>
        <time>2012-06-16T14:07:28Z</time>
      </trkpt>
      <trkpt lat="45.66316" lon="6.59522">
        <ele>2071.78</ele>
        <time>2012-06-16T14:07:32Z</time>
      </trkpt>
      <trkpt lat="45.66348" lon="6.59523">
        <ele>2070.82</ele>
        <time>2012-06-16T14:07:48Z</time>
      </trkpt>
      <trkpt lat="45.66377" lon="6.59527">
        <ele>2070.82</ele>
        <time>2012-06-16T14:08:04Z</time>
      </trkpt>
      <trkpt lat="45.66402" lon="6.59532">
        <ele>2070.82</ele>
        <time>2012-06-16T14:08:18Z</time>
      </trkpt>
      <trkpt lat="45.66416" lon="6.59533">
        <ele>2070.82</ele>
        <time>2012-06-16T14:08:26Z</time>
      </trkpt>
      <trkpt lat="45.66436" lon="6.59544">
        <ele>2071.78</ele>
        <time>2012-06-16T14:08:40Z</time>
      </trkpt>
      <trkpt lat="45.6644" lon="6.59542">
        <ele>2072.26</ele>
        <time>2012-06-16T14:08:55Z</time>
      </trkpt>
      <trkpt lat="45.6644" lon="6.59542">
        <ele>2072.74</ele>
        <time>2012-06-16T14:09:06Z</time>
      </trkpt>
      <trkpt lat="45.66446" lon="6.59547">
        <ele>2072.74</ele>
        <time>2012-06-16T14:09:11Z</time>
      </trkpt>
      <trkpt lat="45.66479" lon="6.59555">
        <ele>2075.14</ele>
        <time>2012-06-16T14:09:31Z</time>
      </trkpt>
      <trkpt lat="45.66499" lon="6.59562">
        <ele>2077.55</ele>
        <time>2012-06-16T14:09:48Z</time>
      </trkpt>
      <trkpt lat="45.66509" lon="6.59575">
        <ele>2078.51</ele>
        <time>2012-06-16T14:10:01Z</time>
      </trkpt>
      <trkpt lat="45.6652" lon="6.59583">
        <ele>2078.51</ele>
        <time>2012-06-16T14:10:10Z</time>
      </trkpt>
      <trkpt lat="45.66522" lon="6.59583">
        <ele>2078.51</ele>
        <time>2012-06-16T14:10:26Z</time>
      </trkpt>
      <trkpt lat="45.66522" lon="6.59583">
        <ele>2078.51</ele>
        <time>2012-06-16T14:10:37Z</time>
      </trkpt>
      <trkpt lat="45.66548" lon="6.59609">
        <ele>2078.51</ele>
        <time>2012-06-16T14:10:49Z</time>
      </trkpt>
      <trkpt lat="45.66577" lon="6.59649">
        <ele>2076.1</ele>
        <time>2012-06-16T14:11:00Z</time>
      </trkpt>
      <trkpt lat="45.66594" lon="6.59673">
        <ele>2072.74</ele>
        <time>2012-06-16T14:11:04Z</time>
      </trkpt>
      <trkpt lat="45.66611" lon="6.59698">
        <ele>2069.38</ele>
        <time>2012-06-16T14:11:08Z</time>
      </trkpt>
      <trkpt lat="45.66625" lon="6.59725">
        <ele>2068.89</ele>
        <time>2012-06-16T14:11:12Z</time>
      </trkpt>
      <trkpt lat="45.6663" lon="6.59743">
        <ele>2071.3</ele>
        <time>2012-06-16T14:11:16Z</time>
      </trkpt>
      <trkpt lat="45.66632" lon="6.59752">
        <ele>2075.62</ele>
        <time>2012-06-16T14:11:21Z</time>
      </trkpt>
      <trkpt lat="45.66633" lon="6.59752">
        <ele>2074.18</ele>
        <time>2012-06-16T14:11:35Z</time>
      </trkpt>
      <trkpt lat="45.66634" lon="6.59752">
        <ele>2073.22</ele>
        <time>2012-06-16T14:12:11Z</time>
      </trkpt>
      <trkpt lat="45.66635" lon="6.59754">
        <ele>2073.22</ele>
        <time>2012-06-16T14:12:23Z</time>
      </trkpt>
      <trkpt lat="45.66638" lon="6.59762">
        <ele>2073.22</ele>
        <time>2012-06-16T14:12:29Z</time>
      </trkpt>
      <trkpt lat="45.66644" lon="6.59775">
        <ele>2073.22</ele>
        <time>2012-06-16T14:12:38Z</time>
      </trkpt>
      <trkpt lat="45.66651" lon="6.59784">
        <ele>2073.22</ele>
        <time>2012-06-16T14:12:46Z</time>
      </trkpt>
      <trkpt lat="45.66655" lon="6.59788">
        <ele>2073.22</ele>
        <time>2012-06-16T14:12:50Z</time>
      </trkpt>
      <trkpt lat="45.66662" lon="6.59793">
        <ele>2074.18</ele>
        <time>2012-06-16T14:12:55Z</time>
      </trkpt>
      <trkpt lat="45.66689" lon="6.59806">
        <ele>2074.66</ele>
        <time>2012-06-16T14:13:12Z</time>
      </trkpt>
      <trkpt lat="45.66718" lon="6.59823">
        <ele>2074.66</ele>
        <time>2012-06-16T14:13:26Z</time>
      </trkpt>
      <trkpt lat="45.66757" lon="6.59846">
        <ele>2073.22</ele>
        <time>2012-06-16T14:13:38Z</time>
      </trkpt>
      <trkpt lat="45.66793" lon="6.59879">
        <ele>2071.3</ele>
        <time>2012-06-16T14:13:51Z</time>
      </trkpt>
      <trkpt lat="45.66816" lon="6.59887">
        <ele>2070.34</ele>
        <time>2012-06-16T14:14:04Z</time>
      </trkpt>
      <trkpt lat="45.66815" lon="6.59885">
        <ele>2069.86</ele>
        <time>2012-06-16T14:14:34Z</time>
      </trkpt>
      <trkpt lat="45.66815" lon="6.59886">
        <ele>2069.86</ele>
        <time>2012-06-16T14:15:02Z</time>
      </trkpt>
      <trkpt lat="45.66816" lon="6.59887">
        <ele>2069.86</ele>
        <time>2012-06-16T14:15:19Z</time>
      </trkpt>
      <trkpt lat="45.66816" lon="6.59887">
        <ele>2069.86</ele>
        <time>2012-06-16T14:15:40Z</time>
      </trkpt>
      <trkpt lat="45.66817" lon="6.59887">
        <ele>2069.86</ele>
        <time>2012-06-16T14:16:09Z</time>
      </trkpt>
      <trkpt lat="45.66817" lon="6.59888">
        <ele>2069.38</ele>
        <time>2012-06-16T14:16:33Z</time>
      </trkpt>
      <trkpt lat="45.66858" lon="6.59871">
        <ele>2037.17</ele>
        <time>2012-06-16T14:18:36Z</time>
      </trkpt>
      <trkpt lat="45.6686" lon="6.59868">
        <ele>2039.57</ele>
        <time>2012-06-16T14:18:40Z</time>
      </trkpt>
      <trkpt lat="45.66871" lon="6.59856">
        <ele>2043.42</ele>
        <time>2012-06-16T14:18:48Z</time>
      </trkpt>
      <trkpt lat="45.66884" lon="6.59854">
        <ele>2044.86</ele>
        <time>2012-06-16T14:18:53Z</time>
      </trkpt>
      <trkpt lat="45.66914" lon="6.59836">
        <ele>2047.75</ele>
        <time>2012-06-16T14:19:07Z</time>
      </trkpt>
      <trkpt lat="45.66928" lon="6.59807">
        <ele>2047.26</ele>
        <time>2012-06-16T14:19:18Z</time>
      </trkpt>
      <trkpt lat="45.66939" lon="6.59795">
        <ele>2043.42</ele>
        <time>2012-06-16T14:19:23Z</time>
      </trkpt>
      <trkpt lat="45.66952" lon="6.59798">
        <ele>2041.02</ele>
        <time>2012-06-16T14:19:28Z</time>
      </trkpt>
      <trkpt lat="45.66984" lon="6.59822">
        <ele>2041.5</ele>
        <time>2012-06-16T14:19:39Z</time>
      </trkpt>
      <trkpt lat="45.6702" lon="6.59837">
        <ele>2040.54</ele>
        <time>2012-06-16T14:19:53Z</time>
      </trkpt>
      <trkpt lat="45.67048" lon="6.59847">
        <ele>2037.65</ele>
        <time>2012-06-16T14:20:02Z</time>
      </trkpt>
      <trkpt lat="45.6706" lon="6.5986">
        <ele>2034.29</ele>
        <time>2012-06-16T14:20:07Z</time>
      </trkpt>
      <trkpt lat="45.67071" lon="6.59899">
        <ele>2035.25</ele>
        <time>2012-06-16T14:20:18Z</time>
      </trkpt>
      <trkpt lat="45.67076" lon="6.59912">
        <ele>2035.25</ele>
        <time>2012-06-16T14:20:21Z</time>
      </trkpt>
      <trkpt lat="45.67078" lon="6.5992">
        <ele>2034.29</ele>
        <time>2012-06-16T14:20:23Z</time>
      </trkpt>
      <trkpt lat="45.67074" lon="6.59917">
        <ele>2034.29</ele>
        <time>2012-06-16T14:20:28Z</time>
      </trkpt>
      <trkpt lat="45.67056" lon="6.5989">
        <ele>2032.36</ele>
        <time>2012-06-16T14:20:37Z</time>
      </trkpt>
      <trkpt lat="45.67037" lon="6.5989">
        <ele>2028.52</ele>
        <time>2012-06-16T14:20:43Z</time>
      </trkpt>
      <trkpt lat="45.67045" lon="6.59901">
        <ele>2025.15</ele>
        <time>2012-06-16T14:20:47Z</time>
      </trkpt>
      <trkpt lat="45.67062" lon="6.59942">
        <ele>2024.19</ele>
        <time>2012-06-16T14:20:59Z</time>
      </trkpt>
      <trkpt lat="45.67089" lon="6.59982">
        <ele>2020.35</ele>
        <time>2012-06-16T14:21:11Z</time>
      </trkpt>
      <trkpt lat="45.67101" lon="6.6">
        <ele>2016.98</ele>
        <time>2012-06-16T14:21:16Z</time>
      </trkpt>
      <trkpt lat="45.67125" lon="6.6005">
        <ele>2014.58</ele>
        <time>2012-06-16T14:21:28Z</time>
      </trkpt>
      <trkpt lat="45.67127" lon="6.60067">
        <ele>2014.58</ele>
        <time>2012-06-16T14:21:31Z</time>
      </trkpt>
      <trkpt lat="45.67132" lon="6.60085">
        <ele>2014.1</ele>
        <time>2012-06-16T14:21:34Z</time>
      </trkpt>
      <trkpt lat="45.67143" lon="6.6011">
        <ele>2010.25</ele>
        <time>2012-06-16T14:21:39Z</time>
      </trkpt>
      <trkpt lat="45.67149" lon="6.60125">
        <ele>2006.89</ele>
        <time>2012-06-16T14:21:42Z</time>
      </trkpt>
      <trkpt lat="45.67159" lon="6.60153">
        <ele>2004.97</ele>
        <time>2012-06-16T14:21:47Z</time>
      </trkpt>
      <trkpt lat="45.67189" lon="6.60194">
        <ele>2003.52</ele>
        <time>2012-06-16T14:21:59Z</time>
      </trkpt>
      <trkpt lat="45.67212" lon="6.60221">
        <ele>1999.68</ele>
        <time>2012-06-16T14:22:09Z</time>
      </trkpt>
      <trkpt lat="45.6722" lon="6.6023">
        <ele>1996.8</ele>
        <time>2012-06-16T14:22:12Z</time>
      </trkpt>
      <trkpt lat="45.67226" lon="6.6024">
        <ele>1994.87</ele>
        <time>2012-06-16T14:22:15Z</time>
      </trkpt>
      <trkpt lat="45.67253" lon="6.60276">
        <ele>1992.95</ele>
        <time>2012-06-16T14:22:27Z</time>
      </trkpt>
      <trkpt lat="45.67281" lon="6.60297">
        <ele>1989.59</ele>
        <time>2012-06-16T14:22:37Z</time>
      </trkpt>
      <trkpt lat="45.67289" lon="6.60309">
        <ele>1986.22</ele>
        <time>2012-06-16T14:22:40Z</time>
      </trkpt>
      <trkpt lat="45.67302" lon="6.60328">
        <ele>1983.34</ele>
        <time>2012-06-16T14:22:46Z</time>
      </trkpt>
      <trkpt lat="45.67322" lon="6.6035">
        <ele>1983.82</ele>
        <time>2012-06-16T14:22:54Z</time>
      </trkpt>
      <trkpt lat="45.67327" lon="6.60359">
        <ele>1983.82</ele>
        <time>2012-06-16T14:22:56Z</time>
      </trkpt>
      <trkpt lat="45.67334" lon="6.60385">
        <ele>1983.34</ele>
        <time>2012-06-16T14:23:05Z</time>
      </trkpt>
      <trkpt lat="45.67336" lon="6.60385">
        <ele>1981.9</ele>
        <time>2012-06-16T14:23:19Z</time>
      </trkpt>
      <trkpt lat="45.67337" lon="6.60386">
        <ele>1981.9</ele>
        <time>2012-06-16T14:23:41Z</time>
      </trkpt>
      <trkpt lat="45.67337" lon="6.60387">
        <ele>1981.9</ele>
        <time>2012-06-16T14:24:12Z</time>
      </trkpt>
      <trkpt lat="45.67336" lon="6.60386">
        <ele>1981.9</ele>
        <time>2012-06-16T14:24:41Z</time>
      </trkpt>
      <trkpt lat="45.67339" lon="6.60384">
        <ele>1981.41</ele>
        <time>2012-06-16T14:25:13Z</time>
      </trkpt>
      <trkpt lat="45.67339" lon="6.60384">
        <ele>1981.41</ele>
        <time>2012-06-16T14:25:48Z</time>
      </trkpt>
      <trkpt lat="45.67339" lon="6.60383">
        <ele>1981.41</ele>
        <time>2012-06-16T14:26:20Z</time>
      </trkpt>
      <trkpt lat="45.67339" lon="6.60383">
        <ele>1981.41</ele>
        <time>2012-06-16T14:26:49Z</time>
      </trkpt>
      <trkpt lat="45.67338" lon="6.60383">
        <ele>1980.93</ele>
        <time>2012-06-16T14:27:08Z</time>
      </trkpt>
      <trkpt lat="45.67337" lon="6.60384">
        <ele>1980.93</ele>
        <time>2012-06-16T14:27:42Z</time>
      </trkpt>
      <trkpt lat="45.67337" lon="6.60385">
        <ele>1980.93</ele>
        <time>2012-06-16T14:28:12Z</time>
      </trkpt>
      <trkpt lat="45.67336" lon="6.60385">
        <ele>1980.93</ele>
        <time>2012-06-16T14:28:37Z</time>
      </trkpt>
      <trkpt lat="45.67336" lon="6.60385">
        <ele>1980.93</ele>
        <time>2012-06-16T14:28:43Z</time>
      </trkpt>
      <trkpt lat="45.67341" lon="6.60394">
        <ele>1980.93</ele>
        <time>2012-06-16T14:28:48Z</time>
      </trkpt>
      <trkpt lat="45.67359" lon="6.60432">
        <ele>1978.05</ele>
        <time>2012-06-16T14:29:02Z</time>
      </trkpt>
      <trkpt lat="45.67366" lon="6.60451">
        <ele>1974.69</ele>
        <time>2012-06-16T14:29:07Z</time>
      </trkpt>
      <trkpt lat="45.6737" lon="6.60461">
        <ele>1971.8</ele>
        <time>2012-06-16T14:29:10Z</time>
      </trkpt>
      <trkpt lat="45.67373" lon="6.60469">
        <ele>1969.88</ele>
        <time>2012-06-16T14:29:12Z</time>
      </trkpt>
      <trkpt lat="45.67379" lon="6.60494">
        <ele>1968.44</ele>
        <time>2012-06-16T14:29:16Z</time>
      </trkpt>
      <trkpt lat="45.67394" lon="6.60543">
        <ele>1967.48</ele>
        <time>2012-06-16T14:29:27Z</time>
      </trkpt>
      <trkpt lat="45.67429" lon="6.60587">
        <ele>1965.07</ele>
        <time>2012-06-16T14:29:43Z</time>
      </trkpt>
      <trkpt lat="45.67436" lon="6.60593">
        <ele>1963.63</ele>
        <time>2012-06-16T14:29:52Z</time>
      </trkpt>
      <trkpt lat="45.67436" lon="6.60593">
        <ele>1963.15</ele>
        <time>2012-06-16T14:29:54Z</time>
      </trkpt>
      <trkpt lat="45.6744" lon="6.60589">
        <ele>1962.67</ele>
        <time>2012-06-16T14:30:04Z</time>
      </trkpt>
      <trkpt lat="45.6744" lon="6.60589">
        <ele>1962.19</ele>
        <time>2012-06-16T14:30:35Z</time>
      </trkpt>
      <trkpt lat="45.67442" lon="6.60589">
        <ele>1962.19</ele>
        <time>2012-06-16T14:31:07Z</time>
      </trkpt>
      <trkpt lat="45.67441" lon="6.60589">
        <ele>1962.19</ele>
        <time>2012-06-16T14:31:39Z</time>
      </trkpt>
      <trkpt lat="45.67442" lon="6.6059">
        <ele>1962.19</ele>
        <time>2012-06-16T14:32:06Z</time>
      </trkpt>
      <trkpt lat="45.67442" lon="6.6059">
        <ele>1962.19</ele>
        <time>2012-06-16T14:32:36Z</time>
      </trkpt>
      <trkpt lat="45.67443" lon="6.6059">
        <ele>1962.19</ele>
        <time>2012-06-16T14:32:38Z</time>
      </trkpt>
      <trkpt lat="45.67442" lon="6.60586">
        <ele>1962.19</ele>
        <time>2012-06-16T14:32:51Z</time>
      </trkpt>
      <trkpt lat="45.67442" lon="6.60586">
        <ele>1961.71</ele>
        <time>2012-06-16T14:33:02Z</time>
      </trkpt>
      <trkpt lat="45.67449" lon="6.60579">
        <ele>1961.71</ele>
        <time>2012-06-16T14:33:06Z</time>
      </trkpt>
      <trkpt lat="45.67455" lon="6.60574">
        <ele>1961.71</ele>
        <time>2012-06-16T14:33:08Z</time>
      </trkpt>
      <trkpt lat="45.67478" lon="6.60548">
        <ele>1959.78</ele>
        <time>2012-06-16T14:33:15Z</time>
      </trkpt>
      <trkpt lat="45.675" lon="6.60533">
        <ele>1956.42</ele>
        <time>2012-06-16T14:33:24Z</time>
      </trkpt>
      <trkpt lat="45.67503" lon="6.60531">
        <ele>1955.46</ele>
        <time>2012-06-16T14:33:25Z</time>
      </trkpt>
      <trkpt lat="45.67515" lon="6.60524">
        <ele>1951.13</ele>
        <time>2012-06-16T14:33:30Z</time>
      </trkpt>
      <trkpt lat="45.67539" lon="6.60538">
        <ele>1952.09</ele>
        <time>2012-06-16T14:33:44Z</time>
      </trkpt>
      <trkpt lat="45.6754" lon="6.60537">
        <ele>1952.09</ele>
        <time>2012-06-16T14:34:07Z</time>
      </trkpt>
      <trkpt lat="45.6754" lon="6.60536">
        <ele>1952.09</ele>
        <time>2012-06-16T14:34:23Z</time>
      </trkpt>
      <trkpt lat="45.6754" lon="6.60536">
        <ele>1952.09</ele>
        <time>2012-06-16T14:34:50Z</time>
      </trkpt>
      <trkpt lat="45.67565" lon="6.60522">
        <ele>1951.13</ele>
        <time>2012-06-16T14:34:59Z</time>
      </trkpt>
      <trkpt lat="45.67594" lon="6.60512">
        <ele>1947.77</ele>
        <time>2012-06-16T14:35:07Z</time>
      </trkpt>
      <trkpt lat="45.67608" lon="6.60506">
        <ele>1944.4</ele>
        <time>2012-06-16T14:35:11Z</time>
      </trkpt>
      <trkpt lat="45.67637" lon="6.60485">
        <ele>1942</ele>
        <time>2012-06-16T14:35:21Z</time>
      </trkpt>
      <trkpt lat="45.67672" lon="6.60472">
        <ele>1941.52</ele>
        <time>2012-06-16T14:35:33Z</time>
      </trkpt>
      <trkpt lat="45.67694" lon="6.60465">
        <ele>1940.08</ele>
        <time>2012-06-16T14:35:39Z</time>
      </trkpt>
      <trkpt lat="45.67706" lon="6.60457">
        <ele>1938.64</ele>
        <time>2012-06-16T14:35:42Z</time>
      </trkpt>
      <trkpt lat="45.67726" lon="6.60442">
        <ele>1933.83</ele>
        <time>2012-06-16T14:35:47Z</time>
      </trkpt>
      <trkpt lat="45.67735" lon="6.60434">
        <ele>1932.39</ele>
        <time>2012-06-16T14:35:49Z</time>
      </trkpt>
      <trkpt lat="45.67766" lon="6.60429">
        <ele>1930.46</ele>
        <time>2012-06-16T14:35:56Z</time>
      </trkpt>
      <trkpt lat="45.67773" lon="6.60427">
        <ele>1930.46</ele>
        <time>2012-06-16T14:36:00Z</time>
      </trkpt>
      <trkpt lat="45.67786" lon="6.60418">
        <ele>1930.46</ele>
        <time>2012-06-16T14:36:04Z</time>
      </trkpt>
      <trkpt lat="45.67793" lon="6.6041">
        <ele>1930.46</ele>
        <time>2012-06-16T14:36:06Z</time>
      </trkpt>
      <trkpt lat="45.67833" lon="6.60386">
        <ele>1929.5</ele>
        <time>2012-06-16T14:36:17Z</time>
      </trkpt>
      <trkpt lat="45.67866" lon="6.60388">
        <ele>1928.54</ele>
        <time>2012-06-16T14:36:31Z</time>
      </trkpt>
      <trkpt lat="45.67883" lon="6.60411">
        <ele>1927.58</ele>
        <time>2012-06-16T14:36:38Z</time>
      </trkpt>
      <trkpt lat="45.67899" lon="6.60413">
        <ele>1926.62</ele>
        <time>2012-06-16T14:36:42Z</time>
      </trkpt>
      <trkpt lat="45.67908" lon="6.6041">
        <ele>1924.7</ele>
        <time>2012-06-16T14:36:44Z</time>
      </trkpt>
      <trkpt lat="45.67921" lon="6.60411">
        <ele>1921.81</ele>
        <time>2012-06-16T14:36:47Z</time>
      </trkpt>
      <trkpt lat="45.67942" lon="6.60421">
        <ele>1917.97</ele>
        <time>2012-06-16T14:36:52Z</time>
      </trkpt>
      <trkpt lat="45.6798" lon="6.60449">
        <ele>1917.01</ele>
        <time>2012-06-16T14:37:03Z</time>
      </trkpt>
      <trkpt lat="45.67982" lon="6.60453">
        <ele>1917.01</ele>
        <time>2012-06-16T14:37:04Z</time>
      </trkpt>
      <trkpt lat="45.68" lon="6.6046">
        <ele>1915.56</ele>
        <time>2012-06-16T14:37:09Z</time>
      </trkpt>
      <trkpt lat="45.68021" lon="6.60457">
        <ele>1910.76</ele>
        <time>2012-06-16T14:37:16Z</time>
      </trkpt>
      <trkpt lat="45.68023" lon="6.60457">
        <ele>1909.32</ele>
        <time>2012-06-16T14:37:32Z</time>
      </trkpt>
      <trkpt lat="45.68023" lon="6.60457">
        <ele>1909.8</ele>
        <time>2012-06-16T14:37:41Z</time>
      </trkpt>
      <trkpt lat="45.6803" lon="6.6047">
        <ele>1909.8</ele>
        <time>2012-06-16T14:37:45Z</time>
      </trkpt>
      <trkpt lat="45.68033" lon="6.605">
        <ele>1908.83</ele>
        <time>2012-06-16T14:37:49Z</time>
      </trkpt>
      <trkpt lat="45.68046" lon="6.60534">
        <ele>1904.51</ele>
        <time>2012-06-16T14:37:54Z</time>
      </trkpt>
      <trkpt lat="45.68057" lon="6.60546">
        <ele>1902.11</ele>
        <time>2012-06-16T14:37:57Z</time>
      </trkpt>
      <trkpt lat="45.68057" lon="6.6055">
        <ele>1902.11</ele>
        <time>2012-06-16T14:38:10Z</time>
      </trkpt>
      <trkpt lat="45.68058" lon="6.6055">
        <ele>1902.59</ele>
        <time>2012-06-16T14:38:27Z</time>
      </trkpt>
      <trkpt lat="45.68058" lon="6.6055">
        <ele>1902.59</ele>
        <time>2012-06-16T14:38:54Z</time>
      </trkpt>
      <trkpt lat="45.68062" lon="6.60552">
        <ele>1902.59</ele>
        <time>2012-06-16T14:39:09Z</time>
      </trkpt>
      <trkpt lat="45.68071" lon="6.60556">
        <ele>1902.59</ele>
        <time>2012-06-16T14:39:13Z</time>
      </trkpt>
      <trkpt lat="45.68096" lon="6.60573">
        <ele>1899.22</ele>
        <time>2012-06-16T14:39:21Z</time>
      </trkpt>
      <trkpt lat="45.68107" lon="6.60581">
        <ele>1895.38</ele>
        <time>2012-06-16T14:39:25Z</time>
      </trkpt>
      <trkpt lat="45.68121" lon="6.60596">
        <ele>1892.49</ele>
        <time>2012-06-16T14:39:30Z</time>
      </trkpt>
      <trkpt lat="45.6815" lon="6.60591">
        <ele>1892.49</ele>
        <time>2012-06-16T14:39:41Z</time>
      </trkpt>
      <trkpt lat="45.68159" lon="6.60564">
        <ele>1890.09</ele>
        <time>2012-06-16T14:39:45Z</time>
      </trkpt>
      <trkpt lat="45.68164" lon="6.60544">
        <ele>1888.17</ele>
        <time>2012-06-16T14:39:47Z</time>
      </trkpt>
      <trkpt lat="45.68172" lon="6.60524">
        <ele>1883.36</ele>
        <time>2012-06-16T14:39:51Z</time>
      </trkpt>
      <trkpt lat="45.68185" lon="6.60496">
        <ele>1881.92</ele>
        <time>2012-06-16T14:39:59Z</time>
      </trkpt>
      <trkpt lat="45.68209" lon="6.60448">
        <ele>1880.96</ele>
        <time>2012-06-16T14:40:06Z</time>
      </trkpt>
      <trkpt lat="45.68229" lon="6.60417">
        <ele>1877.59</ele>
        <time>2012-06-16T14:40:11Z</time>
      </trkpt>
      <trkpt lat="45.68236" lon="6.60433">
        <ele>1874.71</ele>
        <time>2012-06-16T14:40:17Z</time>
      </trkpt>
      <trkpt lat="45.68236" lon="6.60432">
        <ele>1875.67</ele>
        <time>2012-06-16T14:40:30Z</time>
      </trkpt>
      <trkpt lat="45.6823" lon="6.60441">
        <ele>1876.15</ele>
        <time>2012-06-16T14:40:34Z</time>
      </trkpt>
      <trkpt lat="45.68217" lon="6.60473">
        <ele>1876.15</ele>
        <time>2012-06-16T14:40:40Z</time>
      </trkpt>
      <trkpt lat="45.68218" lon="6.60532">
        <ele>1873.27</ele>
        <time>2012-06-16T14:40:51Z</time>
      </trkpt>
      <trkpt lat="45.68229" lon="6.60528">
        <ele>1869.9</ele>
        <time>2012-06-16T14:40:58Z</time>
      </trkpt>
      <trkpt lat="45.6823" lon="6.60518">
        <ele>1867.98</ele>
        <time>2012-06-16T14:41:00Z</time>
      </trkpt>
      <trkpt lat="45.68237" lon="6.60491">
        <ele>1865.09</ele>
        <time>2012-06-16T14:41:05Z</time>
      </trkpt>
      <trkpt lat="45.68271" lon="6.6042">
        <ele>1862.69</ele>
        <time>2012-06-16T14:41:19Z</time>
      </trkpt>
      <trkpt lat="45.68276" lon="6.60411">
        <ele>1860.77</ele>
        <time>2012-06-16T14:41:21Z</time>
      </trkpt>
      <trkpt lat="45.68287" lon="6.60403">
        <ele>1858.37</ele>
        <time>2012-06-16T14:41:24Z</time>
      </trkpt>
      <trkpt lat="45.68295" lon="6.60401">
        <ele>1856.44</ele>
        <time>2012-06-16T14:41:26Z</time>
      </trkpt>
      <trkpt lat="45.68317" lon="6.60372">
        <ele>1854.04</ele>
        <time>2012-06-16T14:41:34Z</time>
      </trkpt>
      <trkpt lat="45.68316" lon="6.6036">
        <ele>1854.04</ele>
        <time>2012-06-16T14:41:36Z</time>
      </trkpt>
      <trkpt lat="45.6833" lon="6.60296">
        <ele>1851.64</ele>
        <time>2012-06-16T14:41:49Z</time>
      </trkpt>
      <trkpt lat="45.68342" lon="6.60283">
        <ele>1847.79</ele>
        <time>2012-06-16T14:41:53Z</time>
      </trkpt>
      <trkpt lat="45.68349" lon="6.6028">
        <ele>1845.39</ele>
        <time>2012-06-16T14:41:55Z</time>
      </trkpt>
      <trkpt lat="45.68374" lon="6.60279">
        <ele>1842.02</ele>
        <time>2012-06-16T14:42:01Z</time>
      </trkpt>
      <trkpt lat="45.68417" lon="6.60292">
        <ele>1841.54</ele>
        <time>2012-06-16T14:42:13Z</time>
      </trkpt>
      <trkpt lat="45.68442" lon="6.60301">
        <ele>1838.18</ele>
        <time>2012-06-16T14:42:20Z</time>
      </trkpt>
      <trkpt lat="45.68453" lon="6.60305">
        <ele>1835.29</ele>
        <time>2012-06-16T14:42:23Z</time>
      </trkpt>
      <trkpt lat="45.68465" lon="6.60308">
        <ele>1832.89</ele>
        <time>2012-06-16T14:42:26Z</time>
      </trkpt>
      <trkpt lat="45.68478" lon="6.60311">
        <ele>1831.93</ele>
        <time>2012-06-16T14:42:29Z</time>
      </trkpt>
      <trkpt lat="45.68494" lon="6.60314">
        <ele>1830.97</ele>
        <time>2012-06-16T14:42:33Z</time>
      </trkpt>
      <trkpt lat="45.68508" lon="6.60315">
        <ele>1830.97</ele>
        <time>2012-06-16T14:42:37Z</time>
      </trkpt>
      <trkpt lat="45.68535" lon="6.60287">
        <ele>1826.64</ele>
        <time>2012-06-16T14:42:46Z</time>
      </trkpt>
      <trkpt lat="45.68544" lon="6.60274">
        <ele>1822.8</ele>
        <time>2012-06-16T14:42:49Z</time>
      </trkpt>
      <trkpt lat="45.68551" lon="6.60267">
        <ele>1821.84</ele>
        <time>2012-06-16T14:42:51Z</time>
      </trkpt>
      <trkpt lat="45.6856" lon="6.60263">
        <ele>1820.39</ele>
        <time>2012-06-16T14:42:53Z</time>
      </trkpt>
      <trkpt lat="45.68579" lon="6.60264">
        <ele>1818.95</ele>
        <time>2012-06-16T14:42:57Z</time>
      </trkpt>
      <trkpt lat="45.68587" lon="6.60276">
        <ele>1818.95</ele>
        <time>2012-06-16T14:43:03Z</time>
      </trkpt>
      <trkpt lat="45.68588" lon="6.60287">
        <ele>1818.95</ele>
        <time>2012-06-16T14:43:11Z</time>
      </trkpt>
      <trkpt lat="45.68574" lon="6.60295">
        <ele>1818.47</ele>
        <time>2012-06-16T14:43:15Z</time>
      </trkpt>
      <trkpt lat="45.68554" lon="6.6032">
        <ele>1814.15</ele>
        <time>2012-06-16T14:43:22Z</time>
      </trkpt>
      <trkpt lat="45.68549" lon="6.60332">
        <ele>1811.74</ele>
        <time>2012-06-16T14:43:25Z</time>
      </trkpt>
      <trkpt lat="45.6853" lon="6.60376">
        <ele>1808.86</ele>
        <time>2012-06-16T14:43:36Z</time>
      </trkpt>
      <trkpt lat="45.68527" lon="6.60396">
        <ele>1808.86</ele>
        <time>2012-06-16T14:43:40Z</time>
      </trkpt>
      <trkpt lat="45.68521" lon="6.60415">
        <ele>1808.38</ele>
        <time>2012-06-16T14:43:43Z</time>
      </trkpt>
      <trkpt lat="45.68517" lon="6.6043">
        <ele>1806.45</ele>
        <time>2012-06-16T14:43:45Z</time>
      </trkpt>
      <trkpt lat="45.6851" lon="6.60457">
        <ele>1802.61</ele>
        <time>2012-06-16T14:43:49Z</time>
      </trkpt>
      <trkpt lat="45.685" lon="6.60471">
        <ele>1800.21</ele>
        <time>2012-06-16T14:43:53Z</time>
      </trkpt>
      <trkpt lat="45.68475" lon="6.60511">
        <ele>1800.21</ele>
        <time>2012-06-16T14:44:05Z</time>
      </trkpt>
      <trkpt lat="45.68474" lon="6.60524">
        <ele>1799.73</ele>
        <time>2012-06-16T14:44:09Z</time>
      </trkpt>
      <trkpt lat="45.68477" lon="6.60543">
        <ele>1795.4</ele>
        <time>2012-06-16T14:44:14Z</time>
      </trkpt>
      <trkpt lat="45.68472" lon="6.60559">
        <ele>1790.11</ele>
        <time>2012-06-16T14:44:18Z</time>
      </trkpt>
      <trkpt lat="45.68472" lon="6.60578">
        <ele>1787.23</ele>
        <time>2012-06-16T14:44:22Z</time>
      </trkpt>
      <trkpt lat="45.68471" lon="6.60594">
        <ele>1786.27</ele>
        <time>2012-06-16T14:44:25Z</time>
      </trkpt>
      <trkpt lat="45.68475" lon="6.60616">
        <ele>1784.34</ele>
        <time>2012-06-16T14:44:30Z</time>
      </trkpt>
      <trkpt lat="45.68479" lon="6.60621">
        <ele>1782.9</ele>
        <time>2012-06-16T14:44:32Z</time>
      </trkpt>
      <trkpt lat="45.68496" lon="6.60643">
        <ele>1780.5</ele>
        <time>2012-06-16T14:44:45Z</time>
      </trkpt>
      <trkpt lat="45.68498" lon="6.60643">
        <ele>1780.02</ele>
        <time>2012-06-16T14:44:47Z</time>
      </trkpt>
      <trkpt lat="45.68505" lon="6.60637">
        <ele>1780.02</ele>
        <time>2012-06-16T14:44:54Z</time>
      </trkpt>
      <trkpt lat="45.68513" lon="6.60628">
        <ele>1779.06</ele>
        <time>2012-06-16T14:45:01Z</time>
      </trkpt>
      <trkpt lat="45.68541" lon="6.60605">
        <ele>1777.13</ele>
        <time>2012-06-16T14:45:17Z</time>
      </trkpt>
      <trkpt lat="45.68567" lon="6.60583">
        <ele>1773.29</ele>
        <time>2012-06-16T14:45:29Z</time>
      </trkpt>
      <trkpt lat="45.68573" lon="6.60577">
        <ele>1771.37</ele>
        <time>2012-06-16T14:45:32Z</time>
      </trkpt>
      <trkpt lat="45.68587" lon="6.60565">
        <ele>1768.96</ele>
        <time>2012-06-16T14:45:38Z</time>
      </trkpt>
      <trkpt lat="45.68623" lon="6.6057">
        <ele>1768.48</ele>
        <time>2012-06-16T14:45:51Z</time>
      </trkpt>
      <trkpt lat="45.68649" lon="6.60565">
        <ele>1767.52</ele>
        <time>2012-06-16T14:46:00Z</time>
      </trkpt>
      <trkpt lat="45.6866" lon="6.60557">
        <ele>1765.12</ele>
        <time>2012-06-16T14:46:03Z</time>
      </trkpt>
      <trkpt lat="45.68669" lon="6.60547">
        <ele>1761.27</ele>
        <time>2012-06-16T14:46:06Z</time>
      </trkpt>
      <trkpt lat="45.68674" lon="6.60561">
        <ele>1757.91</ele>
        <time>2012-06-16T14:46:11Z</time>
      </trkpt>
      <trkpt lat="45.68668" lon="6.60571">
        <ele>1757.91</ele>
        <time>2012-06-16T14:46:13Z</time>
      </trkpt>
      <trkpt lat="45.68657" lon="6.60583">
        <ele>1757.43</ele>
        <time>2012-06-16T14:46:16Z</time>
      </trkpt>
      <trkpt lat="45.68659" lon="6.60606">
        <ele>1757.43</ele>
        <time>2012-06-16T14:46:22Z</time>
      </trkpt>
      <trkpt lat="45.68677" lon="6.60595">
        <ele>1756.95</ele>
        <time>2012-06-16T14:46:28Z</time>
      </trkpt>
      <trkpt lat="45.68689" lon="6.60592">
        <ele>1752.14</ele>
        <time>2012-06-16T14:46:32Z</time>
      </trkpt>
      <trkpt lat="45.68695" lon="6.60593">
        <ele>1749.74</ele>
        <time>2012-06-16T14:46:34Z</time>
      </trkpt>
      <trkpt lat="45.687" lon="6.60601">
        <ele>1745.41</ele>
        <time>2012-06-16T14:46:39Z</time>
      </trkpt>
      <trkpt lat="45.68702" lon="6.60603">
        <ele>1745.41</ele>
        <time>2012-06-16T14:46:41Z</time>
      </trkpt>
      <trkpt lat="45.68687" lon="6.6064">
        <ele>1745.41</ele>
        <time>2012-06-16T14:46:54Z</time>
      </trkpt>
      <trkpt lat="45.68665" lon="6.60674">
        <ele>1745.41</ele>
        <time>2012-06-16T14:47:02Z</time>
      </trkpt>
      <trkpt lat="45.68655" lon="6.60692">
        <ele>1744.93</ele>
        <time>2012-06-16T14:47:05Z</time>
      </trkpt>
      <trkpt lat="45.68612" lon="6.60771">
        <ele>1743.97</ele>
        <time>2012-06-16T14:47:19Z</time>
      </trkpt>
      <trkpt lat="45.68571" lon="6.60819">
        <ele>1742.53</ele>
        <time>2012-06-16T14:47:29Z</time>
      </trkpt>
      <trkpt lat="45.68542" lon="6.60844">
        <ele>1742.05</ele>
        <time>2012-06-16T14:47:36Z</time>
      </trkpt>
      <trkpt lat="45.68518" lon="6.60847">
        <ele>1741.57</ele>
        <time>2012-06-16T14:47:42Z</time>
      </trkpt>
      <trkpt lat="45.68509" lon="6.60839">
        <ele>1741.08</ele>
        <time>2012-06-16T14:47:47Z</time>
      </trkpt>
      <trkpt lat="45.6851" lon="6.6084">
        <ele>1739.64</ele>
        <time>2012-06-16T14:47:55Z</time>
      </trkpt>
      <trkpt lat="45.68479" lon="6.60836">
        <ele>1737.72</ele>
        <time>2012-06-16T14:48:05Z</time>
      </trkpt>
      <trkpt lat="45.68459" lon="6.60862">
        <ele>1734.84</ele>
        <time>2012-06-16T14:48:11Z</time>
      </trkpt>
      <trkpt lat="45.68452" lon="6.60884">
        <ele>1731.47</ele>
        <time>2012-06-16T14:48:15Z</time>
      </trkpt>
      <trkpt lat="45.68451" lon="6.60888">
        <ele>1730.99</ele>
        <time>2012-06-16T14:48:16Z</time>
      </trkpt>
      <trkpt lat="45.68444" lon="6.60957">
        <ele>1730.51</ele>
        <time>2012-06-16T14:48:30Z</time>
      </trkpt>
      <trkpt lat="45.68433" lon="6.60972">
        <ele>1730.51</ele>
        <time>2012-06-16T14:48:39Z</time>
      </trkpt>
      <trkpt lat="45.68417" lon="6.60989">
        <ele>1730.03</ele>
        <time>2012-06-16T14:48:53Z</time>
      </trkpt>
      <trkpt lat="45.68406" lon="6.60999">
        <ele>1729.07</ele>
        <time>2012-06-16T14:48:59Z</time>
      </trkpt>
      <trkpt lat="45.68389" lon="6.61001">
        <ele>1728.11</ele>
        <time>2012-06-16T14:49:04Z</time>
      </trkpt>
      <trkpt lat="45.68377" lon="6.60997">
        <ele>1727.63</ele>
        <time>2012-06-16T14:49:07Z</time>
      </trkpt>
      <trkpt lat="45.68353" lon="6.61005">
        <ele>1724.26</ele>
        <time>2012-06-16T14:49:12Z</time>
      </trkpt>
      <trkpt lat="45.68333" lon="6.6104">
        <ele>1718.49</ele>
        <time>2012-06-16T14:49:18Z</time>
      </trkpt>
      <trkpt lat="45.6833" lon="6.61046">
        <ele>1718.01</ele>
        <time>2012-06-16T14:49:19Z</time>
      </trkpt>
      <trkpt lat="45.68315" lon="6.61064">
        <ele>1717.53</ele>
        <time>2012-06-16T14:49:23Z</time>
      </trkpt>
      <trkpt lat="45.68273" lon="6.61106">
        <ele>1716.57</ele>
        <time>2012-06-16T14:49:32Z</time>
      </trkpt>
      <trkpt lat="45.68247" lon="6.6112">
        <ele>1713.69</ele>
        <time>2012-06-16T14:49:36Z</time>
      </trkpt>
      <trkpt lat="45.68221" lon="6.61127">
        <ele>1709.36</ele>
        <time>2012-06-16T14:49:39Z</time>
      </trkpt>
      <trkpt lat="45.6821" lon="6.61131">
        <ele>1706</ele>
        <time>2012-06-16T14:49:41Z</time>
      </trkpt>
      <trkpt lat="45.6821" lon="6.61133">
        <ele>1705.04</ele>
        <time>2012-06-16T14:49:43Z</time>
      </trkpt>
      <trkpt lat="45.6821" lon="6.61134">
        <ele>1708.4</ele>
        <time>2012-06-16T14:49:51Z</time>
      </trkpt>
      <trkpt lat="45.68211" lon="6.61134">
        <ele>1708.88</ele>
        <time>2012-06-16T14:50:16Z</time>
      </trkpt>
      <trkpt lat="45.68211" lon="6.61135">
        <ele>1708.4</ele>
        <time>2012-06-16T14:50:47Z</time>
      </trkpt>
      <trkpt lat="45.68211" lon="6.61134">
        <ele>1708.4</ele>
        <time>2012-06-16T14:50:50Z</time>
      </trkpt>
      <trkpt lat="45.68223" lon="6.61143">
        <ele>1708.4</ele>
        <time>2012-06-16T14:50:58Z</time>
      </trkpt>
      <trkpt lat="45.68267" lon="6.61147">
        <ele>1706</ele>
        <time>2012-06-16T14:51:10Z</time>
      </trkpt>
      <trkpt lat="45.68284" lon="6.61151">
        <ele>1702.63</ele>
        <time>2012-06-16T14:51:14Z</time>
      </trkpt>
      <trkpt lat="45.68293" lon="6.61152">
        <ele>1700.71</ele>
        <time>2012-06-16T14:51:16Z</time>
      </trkpt>
      <trkpt lat="45.68311" lon="6.61155">
        <ele>1697.34</ele>
        <time>2012-06-16T14:51:20Z</time>
      </trkpt>
      <trkpt lat="45.68329" lon="6.61162">
        <ele>1696.86</ele>
        <time>2012-06-16T14:51:24Z</time>
      </trkpt>
      <trkpt lat="45.68346" lon="6.61164">
        <ele>1696.38</ele>
        <time>2012-06-16T14:51:28Z</time>
      </trkpt>
      <trkpt lat="45.68356" lon="6.6116">
        <ele>1696.38</ele>
        <time>2012-06-16T14:51:30Z</time>
      </trkpt>
      <trkpt lat="45.68375" lon="6.6117">
        <ele>1693.98</ele>
        <time>2012-06-16T14:51:34Z</time>
      </trkpt>
      <trkpt lat="45.68405" lon="6.61187">
        <ele>1689.17</ele>
        <time>2012-06-16T14:51:40Z</time>
      </trkpt>
      <trkpt lat="45.68416" lon="6.61199">
        <ele>1686.29</ele>
        <time>2012-06-16T14:51:45Z</time>
      </trkpt>
      <trkpt lat="45.68405" lon="6.61201">
        <ele>1685.81</ele>
        <time>2012-06-16T14:51:47Z</time>
      </trkpt>
      <trkpt lat="45.68392" lon="6.61203">
        <ele>1685.81</ele>
        <time>2012-06-16T14:51:49Z</time>
      </trkpt>
      <trkpt lat="45.68376" lon="6.61199">
        <ele>1684.37</ele>
        <time>2012-06-16T14:51:51Z</time>
      </trkpt>
      <trkpt lat="45.6834" lon="6.6121">
        <ele>1680.52</ele>
        <time>2012-06-16T14:51:55Z</time>
      </trkpt>
      <trkpt lat="45.68319" lon="6.6122">
        <ele>1677.64</ele>
        <time>2012-06-16T14:51:57Z</time>
      </trkpt>
      <trkpt lat="45.68286" lon="6.61242">
        <ele>1672.35</ele>
        <time>2012-06-16T14:52:00Z</time>
      </trkpt>
      <trkpt lat="45.68274" lon="6.61249">
        <ele>1670.43</ele>
        <time>2012-06-16T14:52:01Z</time>
      </trkpt>
      <trkpt lat="45.68237" lon="6.61269">
        <ele>1664.66</ele>
        <time>2012-06-16T14:52:04Z</time>
      </trkpt>
      <trkpt lat="45.68204" lon="6.61279">
        <ele>1658.89</ele>
        <time>2012-06-16T14:52:07Z</time>
      </trkpt>
      <trkpt lat="45.68195" lon="6.61297">
        <ele>1656.01</ele>
        <time>2012-06-16T14:52:10Z</time>
      </trkpt>
      <trkpt lat="45.68205" lon="6.61301">
        <ele>1655.53</ele>
        <time>2012-06-16T14:52:12Z</time>
      </trkpt>
      <trkpt lat="45.68217" lon="6.61299">
        <ele>1656.49</ele>
        <time>2012-06-16T14:52:14Z</time>
      </trkpt>
      <trkpt lat="45.68297" lon="6.61309">
        <ele>1655.05</ele>
        <time>2012-06-16T14:52:25Z</time>
      </trkpt>
      <trkpt lat="45.68297" lon="6.61305">
        <ele>1652.16</ele>
        <time>2012-06-16T14:52:30Z</time>
      </trkpt>
      <trkpt lat="45.68292" lon="6.61304">
        <ele>1651.2</ele>
        <time>2012-06-16T14:52:33Z</time>
      </trkpt>
      <trkpt lat="45.68296" lon="6.61309">
        <ele>1651.68</ele>
        <time>2012-06-16T14:52:38Z</time>
      </trkpt>
      <trkpt lat="45.68325" lon="6.6131">
        <ele>1651.2</ele>
        <time>2012-06-16T14:52:45Z</time>
      </trkpt>
      <trkpt lat="45.68354" lon="6.61334">
        <ele>1647.36</ele>
        <time>2012-06-16T14:52:51Z</time>
      </trkpt>
      <trkpt lat="45.68356" lon="6.61341">
        <ele>1646.4</ele>
        <time>2012-06-16T14:52:52Z</time>
      </trkpt>
      <trkpt lat="45.68365" lon="6.61373">
        <ele>1642.07</ele>
        <time>2012-06-16T14:52:56Z</time>
      </trkpt>
      <trkpt lat="45.68375" lon="6.61413">
        <ele>1639.67</ele>
        <time>2012-06-16T14:53:01Z</time>
      </trkpt>
      <trkpt lat="45.68408" lon="6.61479">
        <ele>1638.22</ele>
        <time>2012-06-16T14:53:10Z</time>
      </trkpt>
      <trkpt lat="45.68396" lon="6.61544">
        <ele>1634.38</ele>
        <time>2012-06-16T14:53:17Z</time>
      </trkpt>
      <trkpt lat="45.68373" lon="6.61565">
        <ele>1630.53</ele>
        <time>2012-06-16T14:53:20Z</time>
      </trkpt>
      <trkpt lat="45.68356" lon="6.61567">
        <ele>1626.69</ele>
        <time>2012-06-16T14:53:22Z</time>
      </trkpt>
      <trkpt lat="45.68348" lon="6.61566">
        <ele>1626.69</ele>
        <time>2012-06-16T14:53:23Z</time>
      </trkpt>
      <trkpt lat="45.68332" lon="6.61573">
        <ele>1625.25</ele>
        <time>2012-06-16T14:53:25Z</time>
      </trkpt>
      <trkpt lat="45.68319" lon="6.61618">
        <ele>1626.69</ele>
        <time>2012-06-16T14:53:31Z</time>
      </trkpt>
      <trkpt lat="45.68337" lon="6.61646">
        <ele>1627.17</ele>
        <time>2012-06-16T14:53:34Z</time>
      </trkpt>
      <trkpt lat="45.68327" lon="6.6166">
        <ele>1623.8</ele>
        <time>2012-06-16T14:53:39Z</time>
      </trkpt>
      <trkpt lat="45.68321" lon="6.61654">
        <ele>1622.36</ele>
        <time>2012-06-16T14:53:40Z</time>
      </trkpt>
      <trkpt lat="45.68299" lon="6.61619">
        <ele>1616.11</ele>
        <time>2012-06-16T14:53:44Z</time>
      </trkpt>
      <trkpt lat="45.68282" lon="6.61586">
        <ele>1611.79</ele>
        <time>2012-06-16T14:53:47Z</time>
      </trkpt>
      <trkpt lat="45.68245" lon="6.61548">
        <ele>1606.02</ele>
        <time>2012-06-16T14:53:51Z</time>
      </trkpt>
      <trkpt lat="45.68234" lon="6.61541">
        <ele>1605.06</ele>
        <time>2012-06-16T14:53:52Z</time>
      </trkpt>
      <trkpt lat="45.68204" lon="6.61533">
        <ele>1603.62</ele>
        <time>2012-06-16T14:53:55Z</time>
      </trkpt>
      <trkpt lat="45.68164" lon="6.61527">
        <ele>1600.73</ele>
        <time>2012-06-16T14:54:00Z</time>
      </trkpt>
      <trkpt lat="45.68119" lon="6.6152">
        <ele>1597.37</ele>
        <time>2012-06-16T14:54:05Z</time>
      </trkpt>
      <trkpt lat="45.68076" lon="6.6151">
        <ele>1594</ele>
        <time>2012-06-16T14:54:09Z</time>
      </trkpt>
      <trkpt lat="45.68067" lon="6.61506">
        <ele>1593.04</ele>
        <time>2012-06-16T14:54:10Z</time>
      </trkpt>
      <trkpt lat="45.68054" lon="6.61526">
        <ele>1590.16</ele>
        <time>2012-06-16T14:54:16Z</time>
      </trkpt>
      <trkpt lat="45.68058" lon="6.61529">
        <ele>1590.16</ele>
        <time>2012-06-16T14:54:28Z</time>
      </trkpt>
      <trkpt lat="45.68058" lon="6.61529">
        <ele>1590.16</ele>
        <time>2012-06-16T14:54:54Z</time>
      </trkpt>
      <trkpt lat="45.68058" lon="6.61528">
        <ele>1590.64</ele>
        <time>2012-06-16T14:55:24Z</time>
      </trkpt>
      <trkpt lat="45.68059" lon="6.61528">
        <ele>1590.64</ele>
        <time>2012-06-16T14:55:30Z</time>
      </trkpt>
      <trkpt lat="45.68069" lon="6.6153">
        <ele>1590.64</ele>
        <time>2012-06-16T14:55:34Z</time>
      </trkpt>
      <trkpt lat="45.68088" lon="6.61536">
        <ele>1590.64</ele>
        <time>2012-06-16T14:55:38Z</time>
      </trkpt>
      <trkpt lat="45.68118" lon="6.61551">
        <ele>1589.2</ele>
        <time>2012-06-16T14:55:43Z</time>
      </trkpt>
      <trkpt lat="45.68142" lon="6.61567">
        <ele>1587.75</ele>
        <time>2012-06-16T14:55:51Z</time>
      </trkpt>
      <trkpt lat="45.68174" lon="6.61595">
        <ele>1585.83</ele>
        <time>2012-06-16T14:56:01Z</time>
      </trkpt>
      <trkpt lat="45.68178" lon="6.61599">
        <ele>1585.35</ele>
        <time>2012-06-16T14:56:02Z</time>
      </trkpt>
      <trkpt lat="45.68202" lon="6.61632">
        <ele>1584.39</ele>
        <time>2012-06-16T14:56:11Z</time>
      </trkpt>
      <trkpt lat="45.68205" lon="6.6163">
        <ele>1582.95</ele>
        <time>2012-06-16T14:56:22Z</time>
      </trkpt>
      <trkpt lat="45.68204" lon="6.61629">
        <ele>1582.47</ele>
        <time>2012-06-16T14:57:01Z</time>
      </trkpt>
    </trkseg>
  </trk>
</gpx>